[[{"header":{"parameterUnit":"m.s-1","parameterCategory":1,"la1":30.6,"la2":28.766,"lo1":-90.7593,"lo2":-88.6598,"dx":0.0162,"dy":0.0183,"nx":116,"ny":114,"refTime":"2023-01-22T18:00:00:Z","depth":0,"parameterNumber":2,"parameterNumberName":"U-component_of_WINDS"},"data":[0.0,0.0,0.0,0.0,0.0,0.0,0.0,0.0,0.0,0.0,0.0,0.0,0.0,0.0,0.0,0.0,0.0,0.0,0.0,0.0,0.0,0.0,0.0,0.0,0.0,0.0,0.0,0.0,0.0,0.0,0.0,0.0,0.0,0.0,0.0,0.0,0.0,0.0,0.0,0.0,0.0,0.0,0.0,0.0,0.0,0.0,0.0,0.0,0.0,0.0,0.0,0.0,0.0,0.0,0.0,0.0,0.0,0.0,0.0,0.0,0.0,0.0,0.0,0.0,0.0,0.0,0.0,0.0,0.0,0.0,0.0,0.0,0.0,0.0,0.0,0.0,0.0,0.0,0.0,0.0,0.0,0.0,0.0,0.0,0.0,0.0,0.0,0.0,0.0,0.0,0.0,0.0,0.0,0.0,0.0,0.0,0.0,0.0,0.0,0.0,0.0,0.0,0.0,0.0,0.0,0.0,0.0,0.0,0.0,0.0,0.0,0.0,0.0,0.0,0.0,0.0,0.0,0.0,0.0,0.0,0.0,0.0,0.0,0.0,0.0,0.0,0.0,0.0,0.0,0.0,0.0,0.0,0.0,0.0,0.0,0.0,0.0,0.0,0.0,0.0,0.0,0.0,0.0,0.0,0.0,0.0,0.0,0.0,0.0,0.0,0.0,0.0,0.0,0.0,0.0,0.0,0.0,0.0,0.0,0.0,0.0,0.0,0.0,0.0,0.0,0.0,0.0,0.0,0.0,0.0,0.0,0.0,0.0,0.0,0.0,0.0,0.0,0.0,0.0,0.0,0.0,0.0,0.0,0.0,0.0,0.0,0.0,0.0,0.0,0.0,0.0,0.0,0.0,0.0,0.0,0.0,0.0,0.0,0.0,0.0,0.0,0.0,0.0,0.0,0.0,0.0,0.0,0.0,0.0,0.0,0.0,0.0,0.0,0.0,0.0,0.0,0.0,0.0,0.0,0.0,0.0,0.0,0.0,0.0,0.0,0.0,0.0,0.0,0.0,0.0,0.0,0.0,0.0,0.0,0.0,0.0,0.0,0.0,0.0,0.0,0.0,0.0,0.0,0.0,0.0,0.0,0.0,0.0,0.0,0.0,0.0,0.0,0.0,0.0,0.0,0.0,0.0,0.0,0.0,0.0,0.0,0.0,0.0,0.0,0.0,0.0,0.0,0.0,0.0,0.0,0.0,0.0,0.0,0.0,0.0,0.0,0.0,0.0,0.0,0.0,0.0,0.0,0.0,0.0,0.0,0.0,0.0,0.0,0.0,0.0,0.0,0.0,0.0,0.0,0.0,0.0,0.0,0.0,0.0,0.0,0.0,0.0,0.0,0.0,0.0,0.0,0.0,0.0,0.0,0.0,0.0,0.0,0.0,0.0,0.0,0.0,0.0,0.0,0.0,0.0,0.0,0.0,0.0,0.0,0.0,0.0,0.0,0.0,0.0,0.0,0.0,0.0,0.0,0.0,0.0,0.0,0.0,0.0,0.0,0.0,0.0,0.0,0.0,0.0,0.0,0.0,0.0,0.0,0.0,0.0,0.0,0.0,0.0,0.0,0.0,0.0,0.0,0.0,0.0,0.0,0.0,0.0,0.0,0.0,0.0,0.0,0.0,0.0,0.0,0.0,0.0,0.0,0.0,0.0,0.0,0.0,0.0,0.0,0.0,0.0,0.0,0.0,0.0,0.0,0.0,0.0,0.0,0.0,0.0,0.0,0.0,0.0,0.0,0.0,0.0,0.0,0.0,0.0,0.0,0.0,0.0,0.0,0.0,0.0,0.0,0.0,0.0,0.0,0.0,0.0,0.0,0.0,0.0,0.0,0.0,0.0,0.0,0.0,0.0,0.0,0.0,0.0,0.0,0.0,0.0,0.0,0.0,0.0,0.0,0.0,0.0,0.0,0.0,0.0,0.0,0.0,0.0,0.0,0.0,0.0,0.0,0.0,0.0,0.0,0.0,0.0,0.0,0.0,0.0,0.0,0.0,0.0,0.0,0.0,0.0,0.0,0.0,0.0,0.0,0.0,0.0,0.0,0.0,0.0,0.0,0.0,0.0,0.0,0.0,0.0,0.0,0.0,0.0,0.0,0.0,0.0,0.0,0.0,0.0,0.0,0.0,0.0,0.0,0.0,0.0,0.0,0.0,0.0,0.0,0.0,0.0,0.0,0.0,0.0,0.0,0.0,0.0,0.0,0.0,0.0,0.0,0.0,0.0,0.0,0.0,0.0,0.0,0.0,0.0,0.0,0.0,0.0,0.0,0.0,0.0,0.0,0.0,0.0,0.0,0.0,0.0,0.0,0.0,0.0,0.0,0.0,0.0,0.0,0.0,0.0,0.0,0.0,0.0,0.0,0.0,0.0,0.0,0.0,0.0,0.0,0.0,0.0,0.0,0.0,0.0,0.0,0.0,0.0,0.0,0.0,0.0,0.0,0.0,0.0,0.0,0.0,0.0,0.0,0.0,0.0,0.0,0.0,0.0,0.0,0.0,0.0,0.0,0.0,0.0,0.0,0.0,0.0,0.0,0.0,0.0,0.0,0.0,0.0,0.0,0.0,0.0,0.0,0.0,0.0,0.0,0.0,0.0,0.0,0.0,0.0,0.0,0.0,0.0,0.0,0.0,0.0,0.0,0.0,0.0,0.0,0.0,0.0,0.0,0.0,0.0,0.0,0.0,0.0,0.0,0.0,0.0,0.0,0.0,0.0,0.0,0.0,0.0,0.0,0.0,0.0,0.0,0.0,0.0,0.0,0.0,0.0,0.0,0.0,0.0,0.0,0.0,0.0,0.0,0.0,0.0,0.0,0.0,0.0,0.0,0.0,0.0,0.0,0.0,0.0,0.0,0.0,0.0,0.0,0.0,0.0,0.0,0.0,0.0,0.0,0.0,0.0,0.0,0.0,0.0,0.0,0.0,0.0,0.0,0.0,0.0,0.0,0.0,0.0,0.0,0.0,0.0,0.0,0.0,0.0,0.0,0.0,0.0,0.0,0.0,0.0,0.0,0.0,0.0,0.0,0.0,0.0,0.0,0.0,0.0,0.0,0.0,0.0,0.0,0.0,0.0,0.0,0.0,0.0,0.0,0.0,0.0,0.0,0.0,0.0,0.0,0.0,0.0,0.0,0.0,0.0,0.0,0.0,0.0,0.0,0.0,0.0,0.0,0.0,0.0,0.0,0.0,0.0,0.0,0.0,0.0,0.0,0.0,0.0,0.0,0.0,0.0,0.0,0.0,0.0,0.0,0.0,0.0,0.0,0.0,0.0,0.0,0.0,0.0,0.0,0.0,0.0,0.0,0.0,0.0,0.0,0.0,0.0,0.0,0.0,0.0,0.0,0.0,0.0,0.0,0.0,0.0,0.0,0.0,0.0,0.0,0.0,0.0,0.0,0.0,0.0,0.0,0.0,0.0,0.0,0.0,0.0,0.0,0.0,0.0,0.0,0.0,0.0,0.0,0.0,0.0,0.0,0.0,0.0,0.0,0.0,0.0,0.0,0.0,0.0,0.0,0.0,0.0,0.0,0.0,0.0,0.0,0.0,0.0,0.0,0.0,0.0,0.0,0.0,0.0,0.0,0.0,0.0,0.0,0.0,0.0,0.0,0.0,0.0,0.0,0.0,0.0,0.0,0.0,0.0,0.0,0.0,0.0,0.0,0.0,0.0,0.0,0.0,0.0,0.0,0.0,0.0,0.0,0.0,0.0,0.0,0.0,0.0,0.0,0.0,0.0,0.0,0.0,0.0,0.0,0.0,0.0,0.0,0.0,0.0,0.0,0.0,0.0,0.0,0.0,0.0,0.0,0.0,0.0,0.0,0.0,0.0,0.0,0.0,0.0,0.0,0.0,0.0,0.0,0.0,0.0,0.0,0.0,0.0,0.0,0.0,0.0,0.0,0.0,0.0,0.0,0.0,0.0,0.0,0.0,0.0,0.0,0.0,0.0,0.0,0.0,0.0,0.0,0.0,0.0,0.0,0.0,0.0,0.0,0.0,0.0,0.0,0.0,0.0,0.0,0.0,0.0,0.0,0.0,0.0,0.0,0.0,0.0,0.0,0.0,0.0,0.0,0.0,0.0,0.0,0.0,0.0,0.0,0.0,0.0,0.0,0.0,0.0,0.0,0.0,0.0,0.0,0.0,0.0,0.0,0.0,0.0,0.0,0.0,0.0,0.0,0.0,0.0,0.0,0.0,0.0,0.0,0.0,0.0,0.0,0.0,0.0,0.0,0.0,0.0,0.0,0.0,0.0,0.0,0.0,0.0,0.0,0.0,0.0,0.0,0.0,0.0,0.0,0.0,0.0,0.0,0.0,0.0,0.0,0.0,0.0,0.0,0.0,0.0,0.0,0.0,0.0,0.0,0.0,0.0,0.0,0.0,0.0,0.0,0.0,0.0,0.0,0.0,0.0,0.0,0.0,0.0,0.0,0.0,0.0,0.0,0.0,0.0,0.0,0.0,0.0,0.0,0.0,0.0,0.0,0.0,0.0,0.0,0.0,0.0,0.0,0.0,0.0,0.0,0.0,0.0,0.0,0.0,0.0,0.0,0.0,0.0,0.0,0.0,0.0,0.0,0.0,0.0,0.0,0.0,0.0,0.0,0.0,0.0,0.0,0.0,0.0,0.0,0.0,0.0,0.0,0.0,0.0,0.0,0.0,0.0,0.0,0.0,0.0,0.0,0.0,0.0,0.0,0.0,0.0,0.0,0.0,0.0,0.0,0.0,0.0,0.0,0.0,0.0,0.0,0.0,0.0,0.0,0.0,0.0,0.0,0.0,0.0,0.0,0.0,0.0,0.0,0.0,0.0,0.0,0.0,0.0,0.0,0.0,0.0,0.0,0.0,0.0,0.0,0.0,0.0,0.0,0.0,0.0,0.0,0.0,0.0,0.0,0.0,0.0,0.0,0.0,0.0,0.0,0.0,0.0,0.0,0.0,0.0,0.0,0.0,0.0,0.0,0.0,0.0,0.0,0.0,0.0,0.0,0.0,0.0,0.0,0.0,0.0,0.0,0.0,0.0,0.0,0.0,0.0,0.0,0.0,0.0,0.0,0.0,0.0,0.0,0.0,0.0,0.0,0.0,0.0,0.0,0.0,0.0,0.0,0.0,0.0,0.0,0.0,0.0,0.0,0.0,0.0,0.0,0.0,0.0,0.0,0.0,0.0,0.0,0.0,0.0,0.0,0.0,0.0,0.0,0.0,0.0,0.0,0.0,0.0,0.0,0.0,0.0,0.0,0.0,0.0,0.0,0.0,0.0,0.0,0.0,0.0,0.0,0.0,0.0,0.0,0.0,0.0,0.0,0.0,0.0,0.0,0.0,0.0,0.0,0.0,0.0,0.0,0.0,0.0,0.0,0.0,0.0,0.0,0.0,0.0,0.0,0.0,0.0,0.0,0.0,0.0,0.0,0.0,0.0,0.0,0.0,0.0,0.0,0.0,0.0,0.0,0.0,0.0,0.0,0.0,0.0,0.0,0.0,0.0,0.0,0.0,0.0,0.0,0.0,0.0,0.0,0.0,0.0,0.0,0.0,0.0,0.0,0.0,0.0,0.0,0.0,0.0,0.0,0.0,0.0,0.0,0.0,0.0,0.0,0.0,0.0,0.0,0.0,0.0,0.0,0.0,0.0,0.0,0.0,0.0,0.0,0.0,0.0,0.0,0.0,0.0,0.0,0.0,0.0,0.0,0.0,0.0,0.0,0.0,0.0,0.0,0.0,0.0,0.0,0.0,0.0,0.0,0.0,0.0,0.0,0.0,0.0,0.0,0.0,0.0,0.0,0.0,0.0,0.0,0.0,0.0,0.0,0.0,0.0,0.0,0.0,0.0,0.0,0.0,0.0,0.0,0.0,0.0,0.0,0.0,0.0,0.0,0.0,0.0,0.0,0.0,0.0,0.0,0.0,0.0,0.0,0.0,0.0,0.0,0.0,0.0,0.0,0.0,0.0,0.0,0.0,0.0,0.0,0.0,0.0,0.0,0.0,0.0,0.0,0.0,0.0,0.0,0.0,0.0,0.0,0.0,0.0,0.0,0.0,0.0,0.0,0.0,0.0,0.0,0.0,0.0,0.0,0.0,0.0,0.0,0.0,0.0,0.0,1.5733,0.0,0.0,0.0,0.0,0.0,0.0,0.0,0.0,0.0,0.0,0.0,0.0,0.0,0.0,0.0,0.0,0.0,0.0,0.0,0.0,0.0,0.0,0.0,0.0,0.0,0.0,0.0,0.0,0.0,0.0,0.0,0.0,0.0,0.0,0.0,0.0,0.0,0.0,0.0,0.0,0.0,-0.4283,-0.3675,-0.3101,-0.2555,0.0,0.0,0.0,0.0,0.0,0.0,0.0,0.0,0.0,0.0,0.0,0.0,0.0,0.0,0.0,0.0,0.0,0.0,0.0,0.0,0.0,0.0,0.0,0.0,0.0,0.0,0.0,0.0,0.0,0.0,0.0,0.0,0.0,0.0,0.0,0.0,0.0,0.0,0.0,0.0,0.0,0.0,0.0,0.0,0.0,0.0,0.0,0.0,0.0,0.0,0.0,0.0,0.0,0.0,0.0,0.0,0.0,0.0,0.0,0.0,0.0,0.0,0.0,0.0,0.0,0.0,0.0,0.0,0.0,0.0,0.0,1.5609,0.0,0.0,0.0,0.0,0.0,0.0,0.0,0.0,0.0,0.0,0.0,0.0,0.0,0.0,0.0,0.0,0.0,0.0,0.0,0.0,0.0,0.0,0.0,0.0,0.0,0.0,0.0,0.0,0.0,0.0,0.0,0.0,0.0,0.0,0.0,0.0,0.0,0.0,0.0,0.0,0.0,0.0,0.0,0.0,-0.2837,0.0,0.0,0.0,0.0,0.0,0.0,0.0,0.0,0.0,0.0,0.0,0.0,0.0,0.0,0.0,0.0,0.0,0.0,0.0,0.0,0.0,0.0,0.0,0.0,0.0,0.0,0.0,0.0,0.0,0.0,0.0,0.0,0.0,0.0,0.0,0.0,0.0,0.0,0.0,0.0,0.0,0.0,0.0,0.0,0.0,0.0,0.0,0.0,0.0,0.0,0.0,0.0,0.0,0.0,0.0,0.0,0.0,0.0,0.0,0.0,0.0,0.0,0.0,1.6235,1.6507,1.6766,1.7061,1.7217,1.72,1.617,1.5831,1.5958,0.0,0.0,0.0,0.0,0.0,0.0,0.0,0.0,0.0,0.0,0.0,0.0,0.0,0.0,0.0,0.0,0.0,0.0,0.0,0.0,0.0,0.0,0.0,0.0,0.0,0.0,0.0,0.0,0.0,0.0,0.0,0.0,0.0,0.0,0.0,0.0,0.0,0.0,0.0,0.0,0.0,0.0,0.0,-0.2799,-0.2121,0.0,0.0,0.0,0.0,0.0,0.0,0.0,0.0,0.0,0.0,0.0,0.0,0.0,0.0,0.0,0.0,0.0,0.0,0.0,0.0,0.0,0.0,0.0,0.0,0.0,0.0,0.0,0.0,0.0,0.0,0.0,0.0,0.0,0.0,0.0,0.0,0.0,0.0,0.0,0.0,0.0,0.0,1.3986,1.4493,0.0,0.0,0.0,0.0,0.0,0.0,0.0,0.0,0.0,0.0,0.0,0.0,0.0,0.0,1.7218,1.7044,1.7046,1.7244,1.7125,1.7186,1.7377,1.7257,1.7301,1.7446,1.7175,0.0,1.7003,1.6986,0.0,0.0,0.0,0.0,0.0,0.0,0.0,0.0,0.0,0.0,0.0,0.0,0.0,0.0,0.0,0.0,0.0,0.0,0.0,0.0,0.0,0.0,0.0,0.0,0.0,0.0,0.0,0.0,0.0,0.0,0.0,0.0,0.0,0.0,0.0,0.0,0.0,0.0,0.0,0.0,0.0,0.0,0.0,0.0,0.0,0.0,0.0,0.0,0.0,0.0,0.0,0.0,0.0,0.0,0.0,0.0,0.0,0.0,0.0,0.0,0.0,0.0,0.0,0.0,0.0,0.0,0.0,0.0,0.0,0.0,0.0,0.0,0.0,0.0,0.0,0.0,0.0,0.0,0.0,0.0,0.0,0.0,0.0,0.0,0.0,1.4439,1.4858,1.5033,1.584,1.6307,0.0,0.0,0.0,0.0,0.0,0.0,0.0,0.0,0.0,1.7191,1.7191,1.7242,1.7334,1.7242,1.7242,1.7334,1.7612,1.7809,1.7905,1.8159,1.8328,1.8393,1.8345,1.8292,1.8216,1.7584,1.7326,1.734,0.0,0.0,0.0,0.0,0.0,1.7533,0.0,0.0,0.0,0.0,0.0,0.0,0.0,0.0,0.0,0.0,0.0,0.0,0.0,0.0,0.0,0.0,0.0,0.0,0.0,0.0,0.0,0.0,0.0,0.0,0.0,0.0,0.0,0.0,0.0,0.0,0.0,0.0,0.0,0.0,0.0,0.0,0.0,0.0,0.0,0.0,0.0,0.0,0.0,0.0,0.0,0.0,0.0,0.0,0.0,0.0,0.0,0.0,0.0,0.0,0.0,0.0,0.0,0.0,0.0,0.0,0.0,0.0,0.0,0.0,0.0,0.0,0.0,0.0,0.0,0.0,0.0,0.0,0.0,0.0,0.0,0.0,0.0,1.5494,1.5652,1.5698,1.6512,1.6944,0.0,0.0,0.0,0.0,0.0,0.0,1.7693,1.7693,1.7693,1.7693,1.7693,1.7693,1.7693,1.7693,1.7693,1.7684,1.8192,1.8433,1.8448,1.8898,1.9101,1.9101,1.9101,1.9101,1.9038,1.818,1.7826,1.7806,1.7806,1.7788,1.778,1.7932,1.8009,1.8034,0.0,0.0,0.0,0.0,0.0,0.0,0.0,0.0,0.0,0.0,0.0,0.0,0.0,0.0,0.0,0.0,0.0,0.0,0.0,0.0,0.0,0.0,0.0,0.0,0.0,0.0,0.0,0.0,0.0,0.0,0.0,0.0,0.0,0.0,0.0,0.0,0.0,0.0,0.0,0.0,0.0,0.0,0.0,0.0,0.0,0.0,0.0,0.0,0.0,0.0,0.0,0.0,0.0,0.0,0.0,0.0,0.0,0.0,0.0,0.0,0.0,0.0,0.0,0.0,0.0,0.0,0.0,0.0,0.0,0.0,0.0,0.0,0.0,0.0,0.0,0.0,0.0,0.0,0.0,1.6489,1.7478,0.0,0.0,0.0,0.0,1.8999,1.8999,1.8999,1.8999,1.8999,1.8999,1.8999,1.8999,1.8999,1.8999,1.8999,1.8999,1.8999,1.9043,1.9058,1.9058,1.9087,1.9101,1.9101,1.9101,1.9101,1.9101,1.9038,1.9089,1.92,1.92,1.9236,1.9297,1.9306,1.9389,1.948,0.0,0.0,0.0,0.0,0.0,0.0,0.0,0.0,0.0,0.0,0.0,0.0,0.0,0.0,0.0,0.0,0.0,0.0,0.0,0.0,0.0,0.0,0.0,0.0,0.0,0.0,0.0,0.0,0.0,0.0,0.0,0.0,0.0,0.0,0.0,0.0,0.0,0.0,0.0,0.0,0.0,0.0,0.0,0.0,0.0,0.0,0.0,0.0,0.0,0.0,0.0,0.0,0.0,0.0,0.0,0.0,0.0,0.0,0.0,0.0,0.0,0.0,0.0,0.0,0.0,0.0,0.0,0.0,0.0,0.0,0.0,0.0,0.0,0.0,0.0,0.0,0.0,0.0,0.0,1.6969,1.7811,0.0,0.0,1.8821,1.9101,1.9101,1.9101,1.9101,1.9101,1.9101,1.9101,1.9101,1.9101,1.9101,1.9101,1.9101,1.9101,1.9101,1.9101,1.9101,1.9101,1.9101,1.9101,1.9101,1.9101,1.9101,1.9101,1.9101,1.9129,1.9167,1.9167,1.9246,1.9339,1.9376,1.9483,1.9602,0.0,0.0,0.0,0.0,0.0,0.0,0.0,0.0,0.0,0.0,0.0,0.0,0.0,0.0,0.0,0.0,0.0,0.0,0.0,0.0,0.0,0.0,0.0,0.0,0.0,0.0,0.0,0.0,0.0,0.0,0.0,0.0,0.0,0.0,0.0,0.0,0.0,0.0,0.0,0.0,0.0,0.0,-0.0501,0.0,0.0,0.0,0.0,0.0,0.0,0.0,0.0,0.0,0.0,0.0,0.0,0.0,0.0,0.0,0.0,0.0,0.0,0.0,0.0,0.0,0.0,0.0,0.0,0.0,0.0,0.0,0.0,0.0,0.0,0.0,0.0,0.0,0.0,0.0,1.7199,1.7199,1.7828,1.8324,1.8471,1.8745,1.8945,1.9092,1.9101,1.9101,1.9101,1.9101,1.9101,1.9101,1.9101,1.9101,1.9101,1.9101,1.9101,1.9101,1.9101,1.9101,1.9101,1.9101,1.9101,1.9101,1.9101,1.9101,1.9101,1.9101,1.9101,1.9101,1.9101,1.9148,1.9246,1.933,1.9413,1.951,0.0,0.0,0.0,0.0,0.0,0.0,0.0,0.0,0.0,0.0,0.0,0.0,0.0,0.0,0.0,0.0,0.0,0.0,0.0,0.0,0.0,0.0,0.0,0.0,0.0,0.0,0.0,0.0,0.0,0.0,0.0,0.0,0.0,0.0,0.0,0.0,0.0,0.0,0.0,0.0,0.0,0.0,-0.0897,0.0,0.0,0.0,0.0,0.0,0.0,0.0,0.0,0.0,0.0,0.0,0.0,0.0,0.0,0.0,0.0,0.0,0.0,0.0,0.0,0.0,0.0,0.0,0.0,0.0,0.0,0.0,0.0,0.0,0.0,0.0,0.0,0.0,1.6315,1.6871,1.7188,1.7199,1.7537,1.7958,1.8422,1.8481,1.8669,1.9054,1.9092,1.9101,1.9101,1.9101,1.9101,1.9101,1.9101,1.9101,1.9101,1.9116,1.913,1.913,1.9159,1.9159,1.9159,1.9159,1.9159,1.9159,1.9159,1.9159,1.9159,1.9159,1.9159,1.9159,1.9116,1.9101,1.912,1.9256,1.9302,1.9311,0.0,0.0,0.0,0.0,0.0,0.0,0.0,0.0,0.0,0.0,0.0,0.0,0.0,0.0,0.0,0.0,0.0,0.0,0.0,0.0,0.0,0.0,0.0,0.0,0.0,0.0,0.0,0.0,0.0,0.0,0.0,0.0,0.0,0.0,0.0,0.0,0.0,0.0,0.0,0.0,0.0,0.0,-0.09,0.0,0.0,0.0,0.0,0.0,0.0,0.0,0.0,0.0,0.0,0.0,0.0,0.0,0.0,0.0,0.0,0.0,0.0,0.0,0.0,0.0,0.0,0.0,0.0,0.0,0.0,0.0,0.0,0.0,0.0,0.0,0.0,1.4606,1.5821,1.6402,1.682,1.7167,1.7303,1.7526,1.7948,1.8295,1.8553,1.8669,1.8936,1.9101,1.9101,1.9101,1.9101,1.9101,1.9101,1.9101,1.9101,1.958,1.9827,1.9827,2.0262,2.049,2.049,2.049,2.049,2.049,2.049,2.049,2.049,2.049,2.049,2.0378,1.9464,1.9157,1.9256,1.9293,1.933,1.9367,0.0,0.0,0.0,0.0,0.0,0.0,0.0,0.0,0.0,0.0,0.0,0.0,0.0,0.0,0.0,0.0,0.0,0.0,0.0,0.0,0.0,0.0,0.0,0.0,0.0,0.0,0.0,0.0,0.0,0.0,0.0,0.0,0.0,0.0,0.0,0.0,0.0,0.0,0.0,0.0,0.0,0.0,-0.0898,-0.0898,-0.0603,-0.0196,-0.0196,0.0056,0.0449,0.0715,0.0,0.0,0.0,0.0,0.0,0.0,0.0,0.0,0.0,0.0,0.0,0.0,0.0,0.0,0.0,0.0,0.0,0.0,0.0,0.0,0.0,0.0,0.0,0.0,1.3849,1.4282,1.5108,1.5789,1.6303,1.6582,1.6786,1.7144,1.775,1.8048,1.8354,1.8726,1.9238,1.9522,1.9522,1.9754,1.9899,1.9899,1.9899,1.9899,1.9899,2.0277,2.048,2.048,2.0828,2.1003,2.1003,2.1003,2.1003,0.0,2.1003,2.1003,2.1003,2.1003,2.1003,0.0,0.0,0.0,0.0,0.0,2.0036,2.0065,0.0,0.0,0.0,0.0,0.0,0.0,0.0,0.0,0.0,0.0,0.0,0.0,0.0,0.0,0.0,0.0,0.0,0.0,0.0,0.0,0.0,0.0,0.0,0.0,0.0,0.0,0.0,0.0,0.0,0.0,0.0,0.0,0.0,0.0,0.0,0.0,0.0,0.0,0.0,0.0,0.0,0.0,-0.0898,-0.0898,-0.0645,-0.028,-0.028,-0.0056,0.0266,0.0308,0.0,0.0,0.0,0.0,0.0,0.0,0.0,0.0,0.0,0.0,0.0,0.0,0.0,0.0,0.0,0.0,0.0,0.0,0.0,0.0,0.0,0.0,0.0,0.0,1.3588,1.3978,1.4233,1.5028,1.5656,1.5777,1.6162,1.6767,1.7668,1.7794,1.8175,1.8993,1.967,2.0065,2.0125,0.0,0.0,0.0,0.0,2.0967,2.093,2.0988,2.0986,2.0923,2.1006,2.108,2.1133,2.1133,2.1154,2.1206,2.1206,2.1206,2.1206,2.1206,2.1206,2.1206,2.1071,2.1003,2.1003,2.1003,2.1003,0.0,0.0,0.0,0.0,0.0,0.0,0.0,0.0,0.0,0.0,0.0,0.0,0.0,0.0,0.0,0.0,0.0,0.0,0.0,0.0,0.0,0.0,0.0,0.0,0.0,0.0,0.0,0.0,0.0,0.0,0.0,0.0,0.0,0.0,0.0,0.0,0.0,0.0,0.0,0.0,0.0,0.0,0.0,-0.0898,-0.0898,-0.0842,-0.0771,-0.0771,-0.0715,-0.0589,-0.021,-0.0028,0.028,0.159,0.0,0.0,0.0,0.0,0.0,0.0,0.0,0.0,0.0,0.0,0.0,0.0,0.0,0.0,0.0,0.0,0.0,0.0,0.0,0.0,1.3099,1.3208,1.3308,1.3421,1.3955,1.4709,1.5677,1.5876,1.6334,1.7384,1.7772,1.8216,1.8811,1.9331,1.9791,2.0239,2.0359,0.0,2.0978,2.1003,2.0816,2.044,2.0928,2.0932,2.0516,0.0,0.0,2.1968,2.1968,2.2161,2.2522,2.2522,2.2522,2.2522,2.2522,2.2522,2.2435,2.1398,2.1003,2.1003,2.1003,2.1003,2.1003,0.0,0.0,0.0,0.0,0.0,0.0,0.0,0.0,0.0,0.0,0.0,0.0,0.0,0.0,0.0,0.0,0.0,0.0,0.0,0.0,0.0,0.0,0.0,0.0,0.0,0.0,0.0,0.0,0.0,0.0,0.0,0.0,0.0,0.0,0.0,0.0,0.0,0.0,0.0,0.0,0.0,0.0,-0.1316,-0.1009,-0.0898,-0.0898,-0.0898,-0.0898,-0.087,-0.0631,-0.0393,-0.007,0.0671,0.1034,0.1411,0.0,0.0,0.0,0.0,0.0,0.0,0.0,0.0,0.0,0.0,0.0,0.0,0.0,0.0,1.1385,0.0,0.0,1.2942,1.3085,1.3097,1.3215,1.3503,1.3842,1.4474,1.5614,1.5958,1.6629,1.7966,1.8279,1.8608,1.911,1.9639,2.0064,2.0337,2.0671,2.0959,2.1192,2.1204,2.1223,2.1254,2.1555,2.17,2.1705,2.204,2.2339,2.2598,2.2598,2.2715,2.2888,2.2888,2.2888,2.2877,2.2649,2.2379,2.21,2.1456,2.1363,2.1598,2.1598,2.1598,2.1642,0.0,0.0,0.0,0.0,0.0,0.0,0.0,0.0,0.0,0.0,0.0,0.0,0.0,0.0,0.0,0.0,0.0,0.0,0.0,0.0,0.0,0.0,0.0,0.0,0.0,0.0,0.0,0.0,0.0,0.0,0.0,0.0,0.0,0.0,0.0,0.0,0.0,0.0,0.0,0.0,0.0,0.0,-0.1916,-0.1442,-0.1107,-0.0898,-0.0898,-0.0898,-0.0898,-0.0898,-0.0645,-0.0322,-0.0224,0.0028,0.049,0.1523,0.1828,0.0,0.0,0.0,0.0,0.0,0.0,0.0,0.0,0.0,0.8928,1.0022,1.0676,1.1221,1.1819,1.2372,1.2839,1.3133,1.3179,1.3375,1.3916,1.4094,1.4612,1.5851,1.6266,1.7072,1.8679,1.8837,1.9039,1.951,2.0009,2.0374,2.0578,2.1106,2.1502,2.1696,2.1708,2.1878,2.2224,2.2224,2.2388,2.2711,2.2711,2.2759,2.2858,2.2858,2.2951,2.31,2.31,2.2971,2.2726,2.2365,2.1876,2.1393,2.1284,2.1575,2.2065,2.2159,2.2208,2.2301,0.0,0.0,0.0,0.0,0.0,0.0,0.0,0.0,0.0,0.0,0.0,0.0,0.0,0.0,0.0,0.0,0.0,0.0,0.0,0.0,0.0,0.0,0.0,0.0,0.0,0.0,0.0,0.0,0.0,0.0,0.0,0.0,0.0,0.0,0.0,0.0,0.0,0.0,0.0,0.0,0.0,0.0,-0.2597,-0.2528,-0.1832,-0.0898,-0.0898,-0.0898,-0.0898,-0.0898,-0.087,-0.0743,-0.0336,-0.0168,0.0042,0.0939,0.0,0.1442,0.0,0.0,0.0,0.5837,0.6155,0.6576,0.0,0.0,0.8323,0.9458,1.0126,1.0664,1.12,1.1794,1.247,1.3328,1.345,1.3658,1.4258,1.4357,1.5023,1.6823,1.6761,1.7202,1.882,1.8981,1.9195,1.9737,1.9839,2.0271,2.125,2.1354,2.1837,2.2799,2.2813,2.2657,2.2283,2.2283,2.2079,2.1675,2.1675,2.1913,2.2391,2.2391,2.2894,2.3783,2.3783,2.3213,2.2268,2.2218,2.1881,2.1345,2.0882,2.1017,2.1551,2.2016,2.2208,2.2278,0.0,0.0,0.0,0.0,0.0,0.0,0.0,0.0,0.0,0.0,0.0,0.0,0.0,0.0,0.0,0.0,0.0,0.0,0.0,0.0,0.0,0.0,0.0,0.0,0.0,0.0,0.0,0.0,0.0,0.0,0.0,0.0,0.0,0.0,0.0,0.0,0.0,0.0,0.0,0.0,0.0,0.0,-0.3222,-0.3222,-0.2694,-0.1902,-0.1554,-0.1651,0.0,0.0,-0.1135,-0.133,-0.0785,-0.0421,-0.0084,0.0519,0.0884,0.0,0.3026,0.0,0.0,0.0,0.6159,0.6418,0.7241,0.7436,0.7757,0.8902,0.956,1.0164,1.0889,1.1817,1.2643,0.0,1.3618,1.4063,1.4664,1.4849,1.5464,1.6907,1.7309,1.7999,1.9345,1.9459,1.971,2.0276,2.0314,2.0672,2.1419,2.147,2.1668,2.2118,2.2132,2.2189,2.2298,2.2298,2.2336,2.2433,2.2433,2.2545,2.2787,2.312,2.3512,2.3891,2.3891,2.3282,2.226,2.226,2.1944,2.1445,2.122,2.1067,2.1054,2.1555,2.1933,2.2278,0.0,0.0,0.0,0.0,0.0,0.0,0.0,0.0,0.0,0.0,0.0,0.0,0.0,0.0,0.0,0.0,0.0,0.0,0.0,0.0,0.0,0.0,0.0,0.0,0.0,0.0,0.0,0.0,0.0,0.0,0.0,0.0,0.0,0.0,0.0,0.0,0.0,0.0,0.0,0.0,0.0,0.0,-0.3849,-0.3849,-0.3583,-0.3098,-0.2319,-0.2333,0.0,0.0,-0.1692,-0.1972,-0.154,-0.105,-0.056,-0.014,0.0574,0.161,0.3289,0.0,0.0,0.5618,0.5996,0.6228,0.6936,0.7098,0.7375,0.8349,0.9062,0.975,1.0543,1.1591,0.0,1.3259,1.3735,1.4312,1.5137,1.5379,1.5858,1.6929,1.7531,1.8288,1.9422,1.9828,2.0226,2.068,2.083,2.1143,2.1681,2.1719,2.1782,2.1945,2.1945,2.2133,2.2521,2.2521,2.2721,2.3108,2.3108,2.3103,2.3116,2.3743,2.3905,2.3688,2.3874,2.3339,2.2293,2.2293,2.1982,2.1507,2.1507,2.1449,2.1418,2.1771,2.1923,2.2088,0.0,0.0,0.0,0.0,0.0,0.0,0.0,0.0,0.0,0.0,0.0,0.0,0.0,0.0,0.0,0.0,0.0,0.0,0.0,0.0,0.0,0.0,0.0,0.0,0.0,0.0,0.0,0.0,0.0,0.0,0.0,0.0,0.0,0.0,0.0,0.0,0.0,0.0,0.0,0.0,0.0,0.0,-0.4474,-0.4474,-0.446,-0.4294,-0.3098,0.0,0.0,0.0,-0.2653,-0.2667,-0.2653,-0.2235,0.0,-0.1188,0.0196,0.0,0.0,0.0,0.4056,0.5075,0.5477,0.5878,0.6869,0.7098,0.7254,0.7818,0.866,0.9474,1.0013,1.0845,1.1948,1.3532,1.3803,1.4293,1.5679,1.5879,1.6214,1.709,1.7216,1.7654,0.0,1.9951,2.0679,2.0705,2.1168,2.1707,2.2259,2.227,2.2521,2.3045,2.3058,2.3058,2.3083,2.3083,2.3083,2.3108,2.3108,2.3095,2.3128,2.3785,2.3741,2.3165,2.3803,2.3406,2.2299,2.2299,2.1985,2.1507,2.1507,2.2172,2.3134,2.3133,2.2424,2.1575,0.0,0.0,0.0,0.0,0.0,0.0,0.0,0.0,0.0,0.0,0.0,0.0,0.0,0.0,0.0,0.0,0.0,0.0,0.0,0.0,0.0,0.0,0.0,0.0,0.0,0.0,0.0,0.0,0.0,0.0,0.0,0.0,0.0,0.0,0.0,0.0,0.0,0.0,0.0,0.0,0.0,0.0,-0.4318,-0.4453,-0.4505,-0.4449,0.0,0.0,0.0,0.0,0.0,0.0,-0.282,0.0,0.0,-0.0894,0.0,0.0,0.0,0.0,0.4001,0.4828,0.5312,0.5691,0.6028,0.6318,0.6671,0.7254,0.7731,0.8413,0.9615,1.0559,1.169,1.3334,1.3965,1.4659,1.5749,1.5899,1.6087,1.6609,1.6986,0.0,0.0,0.0,0.0,2.0376,2.0603,2.0949,2.1484,2.1937,2.2253,2.2421,2.2869,2.3108,2.3108,2.3108,2.3108,2.3108,2.3108,2.3335,2.378,2.4,2.3985,2.378,2.4,2.362,2.2832,2.2832,2.2719,2.2571,2.2571,2.2824,2.3242,2.3595,2.3255,2.2754,0.0,0.0,0.0,0.0,0.0,0.0,0.0,0.0,0.0,0.0,0.0,0.0,0.0,0.0,0.0,0.0,0.0,0.0,0.0,0.0,0.0,0.0,0.0,0.0,0.0,0.0,0.0,0.0,0.0,0.0,0.0,0.0,0.0,0.0,0.0,0.0,0.0,0.0,0.0,0.0,0.0,0.0,-0.4385,-0.4436,-0.4484,0.0,0.0,0.0,0.0,0.0,0.0,0.0,0.0,0.0,0.0,0.0,0.0,0.0,0.0,0.2915,0.3613,0.4443,0.4883,0.5189,0.5522,0.58,0.6128,0.6671,0.7212,0.7957,0.9179,1.0197,1.132,1.2892,1.3494,1.4124,1.5098,1.5405,1.5677,1.6005,1.6692,0.0,0.0,0.0,0.0,2.0224,2.0476,2.0744,2.108,2.1506,2.1741,2.1741,2.2387,2.2735,2.2735,2.2975,2.3108,2.3108,2.3108,2.3333,2.375,2.375,2.375,2.375,2.375,2.3499,2.3108,2.3108,2.3108,2.3108,2.3108,2.3403,2.3881,2.4229,2.4408,2.4538,0.0,0.0,0.0,0.0,0.0,0.0,0.0,0.0,0.0,0.0,0.0,0.0,0.0,0.0,0.0,0.0,0.0,0.0,0.0,0.0,0.0,0.0,0.0,0.0,0.0,0.0,0.0,0.0,0.0,0.0,0.0,0.0,0.0,0.0,0.0,0.0,0.0,0.0,0.0,0.0,0.0,0.0,-0.4652,-0.4473,0.0,0.0,0.0,0.0,0.0,0.0,0.0,0.0,0.0,0.0,0.0,0.0,0.0,0.0631,0.1694,0.2334,0.2931,0.3929,0.4177,0.4429,0.533,0.5563,0.5704,0.6105,0.7068,0.8051,0.0,0.0,1.0881,1.2235,1.2497,1.2855,1.3861,1.4501,1.5011,0.0,0.0,0.0,0.0,0.0,0.0,2.015,0.0,2.0996,2.0996,2.1028,2.1056,2.1056,2.1694,2.2039,2.2039,2.2674,2.3005,2.3047,2.3047,2.3078,2.3108,2.3108,2.3108,2.3108,2.3108,2.3108,2.3108,2.3108,2.3108,2.3108,2.3108,2.3857,2.4951,2.4951,2.5688,2.65,0.0,0.0,0.0,0.0,0.0,0.0,0.0,0.0,0.0,0.0,0.0,0.0,0.0,0.0,0.0,0.0,0.0,0.0,0.0,0.0,0.0,0.0,0.0,0.0,0.0,0.0,0.0,0.0,0.0,0.0,0.0,0.0,0.0,0.0,0.0,0.0,0.0,0.0,0.0,0.0,0.0,0.0,-0.4338,0.0,0.0,0.0,0.0,0.0,0.0,0.0,0.0,0.0,0.0,0.0,-0.1958,0.0,0.0,0.0589,0.1469,0.2193,0.2861,0.3577,0.3976,0.426,0.4498,0.5093,0.5674,0.5924,0.657,0.734,0.0,0.0,0.0,1.1547,1.2297,0.0,1.3876,1.4219,0.0,0.0,0.0,1.6698,1.7611,1.8123,0.0,0.0,1.9536,1.9616,1.9616,2.008,2.0355,2.0355,2.1012,2.1361,2.1361,2.1518,2.1862,2.2344,2.2344,2.2628,2.3108,2.3108,2.3108,2.3108,2.3108,2.3108,2.3108,2.3108,2.3108,2.3108,2.3108,2.359,2.4336,2.4336,2.4523,2.4867,0.0,0.0,0.0,0.0,0.0,0.0,0.0,0.0,0.0,0.0,0.0,0.0,0.0,0.0,0.0,0.0,0.0,0.0,0.0,0.0,0.0,0.0,0.0,0.0,0.0,0.0,0.0,0.0,0.0,0.0,0.0,0.0,0.0,0.0,0.0,0.0,0.0,0.0,0.0,0.0,0.0,0.0,0.0,0.0,0.0,0.0,0.0,0.0,0.0,0.0,0.0,-0.3139,-0.2806,-0.2291,-0.1776,-0.1635,0.0,0.028,0.1314,0.1942,0.2516,0.3388,0.3774,0.399,0.4164,0.4608,0.5134,0.5666,0.6183,0.0,0.0,0.0,0.0,0.0,0.0,0.0,1.3078,1.3463,1.3995,0.0,1.5831,0.0,1.7616,1.8309,1.8818,0.0,1.9108,1.9108,1.9108,1.9462,1.9666,1.9666,2.0307,2.0805,2.1092,2.1092,2.1439,2.2101,2.2101,2.2463,2.3108,2.3108,2.3108,2.3108,0.0,2.3108,2.3108,2.3108,2.3108,2.3108,2.3108,2.3514,2.4102,2.4102,2.4263,2.4552,0.0,0.0,0.0,0.0,0.0,0.0,0.0,0.0,0.0,0.0,0.0,0.0,0.0,0.0,0.0,0.0,0.0,0.0,0.0,0.0,0.0,0.0,0.0,0.0,0.0,0.0,0.0,0.0,0.0,0.0,0.0,0.0,0.0,0.0,0.0,0.0,0.0,0.0,0.0,0.0,0.0,0.0,0.0,0.0,0.0,0.0,0.0,0.0,0.0,0.0,-0.2653,-0.2569,-0.2486,-0.2097,-0.1623,-0.1482,-0.0882,0.0,0.1189,0.1706,0.2167,0.3216,0.3541,0.3694,0.4042,0.4164,0.4446,0.529,0.0,0.0,0.7524,0.0,0.9582,1.0256,0.0,1.1662,1.2042,1.2597,1.3297,1.4246,1.5634,1.6756,1.7388,1.8358,1.8948,1.8948,1.9031,1.9108,1.9108,1.9108,1.9108,1.9108,1.9666,2.0242,2.0821,2.0821,2.1223,2.1974,2.1974,2.2372,2.3108,2.3108,2.3108,2.3108,0.0,0.0,2.3108,2.3108,2.3108,2.3108,2.3108,2.3454,2.3971,2.3971,2.4307,2.4695,0.0,0.0,0.0,0.0,0.0,0.0,0.0,0.0,0.0,0.0,0.0,0.0,0.0,0.0,0.0,0.0,0.0,0.0,0.0,0.0,0.0,0.0,0.0,0.0,0.0,0.0,0.0,0.0,0.0,0.0,0.0,0.0,0.0,0.0,0.0,0.0,0.0,0.0,0.0,0.0,0.0,0.0,0.0,0.0,0.0,0.0,0.0,0.0,0.0,0.0,-0.2374,-0.1874,-0.1372,-0.1064,-0.0855,-0.0658,-0.0084,0.0589,0.0925,0.1762,0.2597,0.2806,0.323,0.3624,0.3694,0.3962,0.0,0.0,0.0,0.6304,0.6668,0.0,0.0,0.9566,0.0,0.0,0.0,0.0,0.0,0.0,0.0,0.0,0.0,0.0,0.0,0.0,0.0,0.0,1.9108,1.9108,1.9108,1.9108,1.9214,1.933,1.9446,1.9446,2.0063,2.1266,2.1266,2.1908,2.3108,2.3108,2.3108,2.3108,0.0,0.0,2.3108,2.3108,2.3108,2.3108,2.3108,2.3168,2.3275,2.3275,2.3335,2.3486,0.0,0.0,0.0,0.0,0.0,0.0,0.0,0.0,0.0,0.0,0.0,0.0,0.0,0.0,0.0,0.0,0.0,0.0,0.0,0.0,0.0,0.0,0.0,0.0,0.0,0.0,0.0,0.0,0.0,0.0,0.0,0.0,0.0,0.0,0.0,0.0,0.0,0.0,0.0,0.0,0.0,0.0,0.0,0.0,0.0,0.0,0.0,0.0,0.0,0.0,-0.2249,-0.1595,-0.0981,-0.0757,-0.0645,-0.0378,-0.0042,0.0322,0.0785,0.1554,0.2305,0.2625,0.316,0.3599,0.3599,0.0,0.0,0.0,0.0,0.581,0.6264,0.0,0.0,0.0,0.0,0.0,0.0,0.0,0.0,0.0,0.0,0.0,0.0,0.0,0.0,0.0,0.0,0.0,1.9081,1.9108,1.9108,1.9108,1.9108,1.9108,1.9108,1.9108,1.96,2.0581,2.0581,2.127,2.2586,2.2586,2.2765,2.3108,2.3108,0.0,2.3108,2.3108,2.3108,2.3108,2.3108,2.3108,2.3108,2.3108,2.3108,2.3153,0.0,0.0,0.0,0.0,0.0,0.0,0.0,0.0,0.0,0.0,0.0,0.0,0.0,0.0,0.0,0.0,0.0,0.0,0.0,0.0,0.0,0.0,0.0,0.0,0.0,0.0,0.0,0.0,0.0,0.0,0.0,0.0,0.0,0.0,0.0,0.0,0.0,0.0,0.0,0.0,0.0,0.0,0.0,0.0,0.0,0.0,0.0,0.0,0.0,0.0,-0.2401,-0.1733,-0.119,-0.0827,-0.0547,-0.0308,-0.0112,0.014,0.0589,0.1246,0.1888,0.2221,0.2866,0.3413,0.3413,0.3513,0.0,0.0,0.0,0.5407,0.6072,0.0,0.0,0.0,0.0,0.0,0.0,0.0,0.0,0.0,0.0,0.0,0.0,0.0,0.0,0.0,0.0,0.0,1.9065,1.9108,1.9108,1.9108,1.9108,1.9108,1.9108,1.9108,1.9435,2.0096,2.0096,2.0798,2.2101,2.2101,2.2479,2.3108,2.3108,0.0,0.0,2.3108,2.3108,2.3108,2.3108,2.3108,2.3108,2.3108,2.3108,2.3108,0.0,0.0,0.0,0.0,0.0,0.0,0.0,0.0,0.0,0.0,0.0,0.0,0.0,0.0,0.0,0.0,0.0,0.0,0.0,0.0,0.0,0.0,0.0,0.0,0.0,0.0,0.0,0.0,0.0,0.0,0.0,0.0,0.0,0.0,0.0,0.0,0.0,0.0,0.0,0.0,0.0,0.0,0.0,0.0,0.0,0.0,0.0,0.0,0.0,0.0,0.0,-0.2541,-0.2183,-0.1232,-0.0266,-0.035,0.0,0.0,0.021,0.0924,0.1679,0.1191,0.193,0.2778,0.2778,0.0,0.0,0.0,0.4734,0.5407,0.6072,0.6802,0.0,0.0,0.0,0.0,0.0,0.0,0.0,0.0,0.0,0.0,0.0,0.0,0.0,0.0,0.0,0.0,0.0,1.9108,1.9108,1.9108,1.9108,1.9108,1.9108,1.9108,1.9435,2.0096,2.0096,2.0798,2.2101,2.2101,2.2479,2.3108,0.0,0.0,0.0,2.3108,2.3108,2.3108,2.3108,2.3108,2.3108,2.3108,2.3108,2.3108,0.0,0.0,0.0,0.0,0.0,0.0,0.0,0.0,0.0,0.0,0.0,0.0,0.0,0.0,0.0,0.0,0.0,0.0,0.0,0.0,0.0,0.0,0.0,0.0,0.0,0.0,0.0,0.0,0.0,0.0,0.0,0.0,0.0,0.0,0.0,0.0,0.0,0.0,0.0,0.0,0.0,0.0,0.0,0.0,0.0,0.0,0.0,0.0,0.0,0.0,0.0,0.0,-0.1846,-0.1036,0.0,0.0,-0.0196,0.0308,0.007,0.0616,0.1205,0.0953,0.1804,0.2694,0.2694,0.0,0.0,0.4111,0.4643,0.522,0.5899,0.6529,0.7133,0.0,0.0,0.0,0.0,0.0,0.0,0.0,0.0,0.0,0.0,0.0,0.0,0.0,0.0,0.0,0.0,1.9108,1.9108,1.9108,1.9108,1.9108,1.9108,1.9108,1.9231,1.9501,1.9501,2.0193,2.1491,2.1491,2.2079,2.3108,0.0,0.0,0.0,2.3108,2.3108,2.3108,2.3108,2.3108,2.3108,2.3108,2.3108,2.3108,0.0,0.0,0.0,0.0,0.0,0.0,0.0,0.0,0.0,0.0,0.0,0.0,0.0,0.0,0.0,0.0,0.0,0.0,0.0,0.0,0.0,0.0,0.0,0.0,0.0,0.0,0.0,0.0,0.0,0.0,0.0,0.0,0.0,0.0,0.0,0.0,0.0,0.0,0.0,0.0,0.0,0.0,0.0,0.0,0.0,0.0,0.0,0.0,0.0,0.0,0.0,0.0,0.0,0.0,0.0,0.0,-0.0364,0.0,0.0,0.0308,0.0673,0.0856,0.1679,0.2486,0.0,0.0,0.0,0.4291,0.4677,0.5143,0.5928,0.647,0.6922,0.0,0.0,0.0,0.0,0.0,0.0,0.0,0.0,0.0,0.0,0.0,0.0,0.0,0.0,0.0,0.0,1.9108,1.9108,1.9108,1.9108,1.9108,1.9108,1.9108,1.9108,1.9108,1.9108,1.9797,2.1092,2.1092,2.1831,2.3108,0.0,0.0,0.0,2.3108,2.3108,2.3108,2.3108,2.3108,2.3108,2.3108,2.3108,2.3108,0.0,0.0,0.0,0.0,0.0,0.0,0.0,0.0,0.0,0.0,0.0,0.0,0.0,0.0,0.0,0.0,0.0,0.0,0.0,0.0,0.0,0.0,0.0,0.0,0.0,0.0,0.0,0.0,0.0,0.0,0.0,0.0,0.0,0.0,0.0,0.0,0.0,0.0,0.0,0.0,0.0,0.0,0.0,0.0,0.0,0.0,0.0,0.0,0.0,0.0,0.0,0.0,0.0,0.0,0.0,0.0,-0.0112,0.0,0.0,0.0,0.0154,0.0757,0.1358,0.1972,0.0,0.0,0.0,0.4722,0.4897,0.5227,0.6293,0.6661,0.6998,0.7597,0.0,0.0,0.0,0.0,0.0,0.0,0.0,0.0,0.0,0.0,0.0,0.0,0.0,0.0,0.0,1.9108,1.9108,1.9108,1.9108,1.9108,1.9108,1.9108,1.9108,1.9108,1.9108,1.9797,2.1092,2.1092,2.1831,0.0,0.0,0.0,0.0,2.3108,2.3108,2.3108,2.3108,2.3108,2.3108,2.3108,2.3108,2.3108,0.0,0.0,0.0,0.0,0.0,0.0,0.0,0.0,0.0,0.0,0.0,0.0,0.0,0.0,0.0,0.0,0.0,0.0,0.0,0.0,0.0,0.0,0.0,0.0,0.0,0.0,0.0,0.0,0.0,0.0,0.0,0.0,0.0,0.0,0.0,0.0,0.0,0.0,0.0,0.0,0.0,0.0,0.0,0.0,0.0,0.0,0.0,0.0,0.0,0.0,0.0,0.0,0.0,0.0,0.0,0.0,0.0,0.0,0.0,0.0,0.014,0.0743,0.1358,0.1958,0.2555,0.0,0.0,0.4773,0.5162,0.5566,0.6188,0.6798,0.727,0.7461,0.8706,0.0,0.0,0.0,0.0,0.0,0.0,0.0,0.0,0.0,0.0,0.0,0.0,0.0,0.0,1.9108,1.9108,1.9108,1.9108,1.9108,1.9108,1.9108,1.9108,1.9108,1.9108,1.9551,2.0436,2.0885,0.0,0.0,0.0,0.0,0.0,2.3108,2.3108,2.3108,2.3108,2.3108,2.3108,2.3108,2.3108,2.3108,0.0,0.0,0.0,0.0,0.0,0.0,0.0,0.0,0.0,0.0,0.0,0.0,0.0,0.0,0.0,0.0,0.0,0.0,0.0,0.0,0.0,0.0,0.0,0.0,0.0,0.0,0.0,0.0,0.0,0.0,0.0,0.0,0.0,0.0,0.0,0.0,0.0,0.0,0.0,0.0,0.0,0.0,0.0,0.0,0.0,0.0,0.0,0.0,0.0,0.0,0.0,0.0,0.0,0.0,0.0,0.0,0.0,0.0,0.0,0.0,0.0196,0.1036,0.1526,0.0,0.0,0.0,0.0,0.4801,0.5358,0.5878,0.6305,0.7021,0.7588,0.7721,0.8896,0.0,0.0,0.0,0.0,0.0,0.0,0.0,0.0,0.0,0.0,0.0,0.0,0.0,0.0,0.0,1.9108,1.9108,1.9108,1.9108,1.9108,1.9108,1.9108,1.9108,1.9108,1.9452,2.0112,2.0532,0.0,0.0,0.0,0.0,0.0,2.272,2.2869,2.3108,2.3108,2.3108,2.3108,2.3108,2.3108,2.3108,0.0,0.0,0.0,0.0,0.0,0.0,0.0,0.0,0.0,0.0,0.0,0.0,0.0,0.0,0.0,0.0,0.0,0.0,0.0,0.0,0.0,0.0,0.0,0.0,0.0,0.0,0.0,0.0,0.0,0.0,0.0,0.0,0.0,0.0,0.0,0.0,0.0,0.0,0.0,0.0,0.0,0.0,0.0,0.0,0.0,0.0,0.0,0.0,0.0,0.0,0.0,0.0,0.0,0.0,0.0,0.0,0.0,0.0,0.0,0.0,0.0,0.0,0.0,0.0,0.0,0.0,0.0,0.0,0.0,0.6182,0.664,0.7332,0.7949,0.8271,0.9171,0.0,0.0,0.0,0.0,0.0,0.0,0.0,0.0,0.0,0.0,0.0,0.0,0.0,0.0,0.0,1.9108,1.9108,1.9108,1.9108,1.9108,1.9108,1.9108,1.9108,1.9108,1.9429,2.0042,2.0091,0.0,0.0,0.0,0.0,0.0,2.2101,2.2494,2.3108,2.3108,2.3108,2.3108,2.3108,2.3108,2.3108,0.0,0.0,0.0,0.0,0.0,0.0,0.0,0.0,0.0,0.0,0.0,0.0,0.0,0.0,0.0,0.0,0.0,0.0,0.0,0.0,0.0,0.0,0.0,0.0,0.0,0.0,0.0,0.0,0.0,0.0,0.0,0.0,0.0,0.0,0.0,0.0,0.0,0.0,0.0,0.0,0.0,0.0,0.0,0.0,0.0,0.0,-0.0533,0.0,0.0,0.0,0.0,0.0,0.0,0.0,0.0,0.0,0.0,0.0,0.0,0.0,0.0,0.0,0.0,0.0,0.0,0.0,0.0,0.0,0.0,0.6635,0.6941,0.7654,0.8281,0.8562,0.0,0.0,0.0,0.0,0.0,0.0,0.0,0.0,0.0,0.0,0.0,0.0,0.0,0.0,0.0,0.0,1.9108,1.9108,1.9108,1.9108,1.9108,1.9108,1.9108,1.9108,1.9108,1.9181,1.9347,1.9879,0.0,0.0,0.0,0.0,2.2101,2.2101,2.2494,2.3108,2.3108,2.3108,2.3108,2.3108,2.3108,2.3108,0.0,0.0,0.0,0.0,0.0,0.0,0.0,0.0,0.0,0.0,0.0,0.0,0.0,0.0,0.0,0.0,0.0,0.0,0.0,0.0,0.0,0.0,0.0,0.0,0.0,0.0,0.0,0.0,0.0,0.0,0.0,0.0,0.0,0.0,0.0,0.0,0.0,0.0,0.0,0.0,0.0,0.0,0.0,0.0,0.0,0.0,-0.0435,-0.036,0.0,-0.007,-0.0042,-0.0096,0.0,0.0,0.0,0.0,0.0196,0.0491,0.0813,0.0898,0.1107,0.2,0.2458,0.0,0.0,0.0,0.0,0.0,0.0,0.0,0.7221,0.0,0.0,0.0,0.0,0.0,0.0,0.0,0.0,0.0,0.0,0.0,0.0,0.0,0.0,0.0,0.0,0.0,0.0,0.0,1.9108,1.9108,1.9108,1.9108,1.9108,1.9108,1.9108,1.9108,1.9108,1.9108,1.9115,1.9797,0.0,0.0,0.0,0.0,2.1663,2.1962,2.2494,2.3108,2.3108,2.3108,2.3108,2.3108,2.3108,2.3108,0.0,0.0,0.0,0.0,0.0,0.0,0.0,0.0,0.0,0.0,0.0,0.0,0.0,0.0,0.0,0.0,0.0,0.0,0.0,0.0,0.0,0.0,0.0,0.0,0.0,0.0,0.0,0.0,0.0,0.0,0.0,0.0,0.0,0.0,0.0,0.0,0.0,0.0,0.0,0.0,0.0,0.0,0.0,0.0,0.0,0.0,0.0,0.0,0.0,-0.0042,0.0,0.0,0.0,0.0,0.0,0.0,0.0,0.0,0.1149,0.1177,0.1414,0.2444,0.2764,0.2975,0.0,0.0,0.0,0.0,0.0,0.0,0.0,0.0,0.0,0.0,0.0,0.0,0.0,0.0,0.0,0.0,0.0,0.0,0.0,0.0,0.0,0.0,0.0,0.0,0.0,0.0,0.0,1.9108,1.9108,1.9108,1.9108,1.9108,1.9108,1.9108,1.9108,1.9108,1.9125,1.9682,1.9699,0.0,0.0,0.0,2.1298,2.1865,2.2494,2.3108,2.3108,2.3108,2.3108,2.3108,2.3108,2.3108,0.0,0.0,0.0,0.0,0.0,0.0,0.0,0.0,0.0,0.0,0.0,0.0,0.0,0.0,0.0,0.0,0.0,0.0,0.0,0.0,0.0,0.0,0.0,0.0,0.0,0.0,0.0,0.0,0.0,0.0,0.0,0.0,0.0,0.0,0.0,0.0,0.0,0.0,0.0,0.0,0.0,0.0,0.0,0.0,0.0,0.0,0.0,0.0,0.0,0.0,0.0,0.0,0.0,0.0,0.0,0.0,0.0,0.0,0.2291,0.243,0.2472,0.2653,0.3088,0.3485,0.0,0.0,0.0,0.0,0.0,0.0,0.0,0.0,0.0,0.0,0.0,0.0,0.0,0.0,0.0,0.0,0.0,0.0,0.0,0.0,0.0,0.0,0.0,0.0,0.0,0.0,0.0,1.9081,1.9108,1.9108,1.9108,1.9108,1.9108,1.9108,1.9108,1.9108,1.9108,1.9198,1.9512,0.0,0.0,2.0905,2.1959,2.2055,2.2494,2.3108,2.3108,2.3108,2.3108,2.3108,2.3108,2.3108,0.0,0.0,0.0,0.0,0.0,0.0,0.0,0.0,0.0,0.0,0.0,0.0,0.0,0.0,0.0,0.0,0.0,0.0,0.0,0.0,0.0,0.0,0.0,0.0,0.0,0.0,0.0,0.0,0.0,0.0,0.0,0.0,0.0,0.0,0.0,0.0,0.0,0.0,0.0,0.0,0.0,0.0,0.0,0.0,0.0,0.0,0.0,0.0,0.0,0.0,0.0966,0.0966,0.0966,0.0,0.0,0.0,0.0,0.0,0.2625,0.2933,0.3241,0.3458,0.3724,0.0,0.0,0.0,0.0,0.0,0.0,0.0,0.0,0.0,0.0,0.0,0.0,0.0,0.0,0.0,0.0,0.0,0.0,0.0,0.0,0.0,0.0,0.0,0.0,0.0,0.0,0.0,0.0,0.0,1.9108,1.9108,1.9108,1.9108,1.9108,1.9108,1.9108,1.9108,1.9098,1.9479,1.9813,2.0145,0.0,2.1526,2.2129,2.2494,2.2826,2.3108,2.3108,2.3108,2.3108,2.3108,2.3108,2.3108,0.0,0.0,0.0,0.0,0.0,0.0,0.0,0.0,0.0,0.0,0.0,0.0,0.0,0.0,0.0,0.0,0.0,0.0,0.0,0.0,0.0,0.0,0.0,0.0,0.0,0.0,0.0,0.0,0.0,0.0,0.0,0.0,0.0,0.0,0.0,0.0,0.0,0.0,0.0,0.0,0.0,0.0,0.0,0.0,0.0,0.0,0.0,0.0,0.0,0.0,0.0,0.0,0.0,0.0,0.0,0.0,0.2432,0.2905,0.2905,0.3244,0.3719,0.0,0.0,0.0,0.0,0.0,0.0,0.0,0.0,0.0,0.0,0.0,0.0,0.0,0.0,0.0,0.0,0.0,0.0,0.0,0.0,0.0,0.0,0.0,0.0,0.0,0.0,0.0,0.0,0.0,0.0,0.0,1.9108,1.9108,1.9108,1.9108,1.9108,1.9108,1.9108,1.9108,1.9125,1.9633,1.9949,2.0161,2.1191,2.1807,2.2132,2.2647,2.2959,2.3108,2.3108,2.3108,2.3108,2.3108,2.3108,2.3108,0.0,0.0,0.0,0.0,0.0,0.0,0.0,0.0,0.0,0.0,0.0,0.0,0.0,0.0,0.0,0.0,0.0,0.0,0.0,0.0,0.0,0.0,0.0,0.0,0.0,0.0,0.0,0.0,0.0,0.0,0.0,0.0,0.0,0.0,0.0,0.0,0.0,0.0,0.0,0.0,0.0,0.0,0.0,0.0,0.0,0.0,0.0,0.0,0.0,0.0,0.0,0.0,0.0,0.0,0.0,0.0,0.3061,0.3541,0.3541,0.3569,0.3802,0.0,0.0,0.0,0.0,0.0,0.0,0.0,0.0,0.0,0.0,0.0,0.0,0.0,0.0,0.0,0.0,0.0,0.0,0.0,0.0,0.0,0.0,0.0,0.0,0.0,0.0,0.0,0.0,0.0,0.0,0.0,0.0,1.9108,1.9108,1.9108,1.9108,1.9108,1.9108,1.9108,1.9108,1.9158,1.9501,2.0107,2.0193,2.0942,2.2101,2.2147,2.254,2.3108,2.3108,2.3108,2.3108,2.3108,2.3108,2.3108,0.0,0.0,0.0,0.0,0.0,0.0,0.0,0.0,0.0,0.0,0.0,0.0,0.0,0.0,0.0,0.0,0.0,0.0,0.0,0.0,0.0,0.0,0.0,0.0,0.0,0.0,0.0,0.0,0.0,0.0,0.0,0.0,0.0,0.0,0.0,0.0,0.0,0.0,0.0,0.0,0.0,0.0,0.0,0.0,0.0,0.0,0.0,0.0,0.0,0.0,0.0,0.0,0.0,0.0,0.0,0.0,0.3427,0.3599,0.3599,0.3788,0.0,0.0,0.0,0.0,0.0,0.0,0.0,0.0,0.0,0.0,0.0,0.0,0.0,0.0,0.0,0.0,0.0,0.0,0.0,0.0,0.0,0.0,0.0,0.0,0.0,0.0,0.0,0.0,0.0,0.0,0.0,0.0,0.0,1.9108,1.9108,1.9108,1.9108,1.9108,1.9108,1.9108,1.9108,1.9108,1.9468,2.0096,2.0096,2.0618,2.1506,2.1928,2.2252,2.2525,2.2944,2.3108,2.3108,2.3108,2.3108,2.3108,0.0,0.0,0.0,0.0,0.0,0.0,0.0,0.0,0.0,0.0,0.0,0.0,0.0,0.0,0.0,0.0,0.0,0.0,0.0,0.0,0.0,0.0,0.0,0.0,0.0,0.0,0.0,0.0,0.0,0.0,0.0,0.0,0.0,0.0,0.0,0.0,0.0,0.0,0.0,0.0,0.0,0.0,0.0,0.0,0.0,0.0,0.0,0.0,0.0,0.0,0.0,0.0,0.0,0.0,0.0,0.0,0.0,0.3788,0.3788,0.4101,0.0,0.0,0.0,0.0,0.0,0.0,0.0,0.0,0.0,0.0,0.0,0.0,0.0,0.0,0.0,0.0,0.0,0.0,0.0,0.0,0.0,0.0,0.0,0.0,0.0,0.0,0.0,0.0,0.0,0.0,0.0,0.0,0.0,1.9108,1.9108,1.9108,1.9108,1.9108,1.9108,1.9108,1.9108,1.9108,1.9347,1.9797,1.9998,2.0355,2.0837,2.1506,2.1788,2.185,2.2525,2.2781,2.2811,2.302,2.3108,2.3108,0.0,0.0,0.0,0.0,0.0,0.0,0.0,0.0,0.0,0.0,0.0,0.0,0.0,0.0,0.0,0.0,0.0,0.0,0.0,0.0,0.0,0.0,0.0,0.0,0.0,0.0,0.0,0.0,0.0,0.0,0.0,0.0,0.0,0.0,0.0,0.0,0.0,0.0,0.0,0.0,0.0,0.0,0.0,0.0,0.0,0.0,0.0,0.0,0.0,0.0,0.0,0.0,0.0,0.0,0.0,0.0,0.3882,0.4191,0.4191,0.4539,0.0,0.0,0.0,0.0,0.0,0.0,0.0,0.0,0.0,0.0,0.0,0.0,0.0,0.0,0.0,0.0,0.0,0.0,0.0,0.0,0.0,0.0,0.0,0.0,0.0,0.0,0.0,0.0,0.0,0.0,0.0,0.0,0.0,0.0,1.9108,1.9108,1.9108,1.9108,1.9108,1.9108,1.9108,1.9108,1.9108,1.9131,1.9813,2.0096,2.0145,2.0821,2.1092,2.1171,2.185,2.2101,2.2175,2.2841,2.3093,2.3093,0.0,0.0,0.0,0.0,0.0,0.0,0.0,0.0,0.0,0.0,0.0,0.0,0.0,0.0,0.0,0.0,0.0,0.0,0.0,0.0,0.0,0.0,0.0,0.0,0.0,0.0,0.0,0.0,0.0,0.0,0.0,0.0,0.0,0.0,0.0,0.0,0.0,0.0,0.0,0.0,0.0,0.0,0.0,0.0,0.0,0.0,0.0,0.0,0.0,0.0,0.0,0.0,0.0,0.0,0.0,0.0,0.368,0.3774,0.3774,0.0,0.0,0.0,0.0,0.0,0.0,0.0,0.0,0.0,0.0,0.0,0.0,0.0,0.0,0.0,0.0,0.0,0.0,0.0,0.0,0.0,0.0,0.0,0.0,0.0,0.0,0.0,0.0,0.0,0.0,0.0,0.0,0.0,0.0,0.0,1.9108,1.9108,1.9108,1.9108,1.9108,1.9108,1.9108,1.9108,1.9108,1.9131,1.9813,1.983,1.9495,2.0629,2.1092,2.1171,2.185,2.1819,2.1487,2.2144,2.2402,2.2463,0.0,0.0,0.0,0.0,0.0,0.0,0.0,0.0,0.0,0.0,0.0,0.0,0.0,0.0,0.0,0.0,0.0,0.0,0.0,0.0,0.0,0.0,0.0,0.0,0.0,0.0,0.0,0.0,0.0,0.0,0.0,0.0,0.0,0.0,0.0,0.0,0.0,0.0,0.0,0.0,0.0,0.0,0.0,0.0,0.0,0.0,0.0,0.0,0.0,0.0,0.0,0.0,0.0,0.0,0.0,0.0,0.3965,0.4162,0.0,0.0,0.0,0.0,0.0,0.0,0.0,0.0,0.0,0.0,0.0,0.0,0.0,0.0,0.0,0.0,0.0,0.0,0.0,0.0,0.0,0.0,0.0,0.0,0.0,0.0,0.0,0.0,0.0,0.0,0.0,0.0,0.0,0.0,0.0,0.0,1.9108,1.9108,1.9108,1.9108,1.9108,1.9108,1.9108,1.9108,1.9108,1.9131,1.9813,2.0015,1.996,2.0773,2.0933,2.0773,2.1443,2.1471,2.1171,2.185,2.1931,2.1803,0.0,0.0,0.0,0.0,0.0,0.0,0.0,0.0,0.0,0.0,0.0,0.0,0.0,0.0,0.0,0.0,0.0,0.0,0.0,0.0,0.0,0.0,0.0,0.0,0.0,0.0,0.0,0.0,0.0,0.0,0.0,0.0,0.0,0.0,0.0,0.0,0.0,0.0,0.0,0.0,0.0,0.0,0.0,0.0,0.0,0.0,0.0,0.0,0.0,0.0,0.0,0.0,0.0,0.0,0.0,0.4042,0.447,0.0,0.0,0.0,0.0,0.0,0.0,0.0,0.0,0.0,0.0,0.0,0.0,0.0,0.0,0.0,0.0,0.0,0.0,0.0,0.0,0.0,0.0,0.0,0.0,0.0,0.0,0.0,0.0,0.0,0.0,0.0,0.0,0.0,0.0,0.0,0.0,0.0,1.9108,1.9108,1.9108,0.0,1.9108,1.9108,1.9108,1.9108,1.9131,1.9231,1.9846,2.0484,2.1092,2.1092,2.0741,2.0242,2.0853,2.106,2.1092,2.1756,2.1616,2.1203,0.0,0.0,0.0,0.0,0.0,0.0,0.0,0.0,0.0,0.0,0.0,0.0,0.0,0.0,0.0,0.0,0.0,0.0,0.0,0.0,0.0,0.0,0.0,0.0,0.0,0.0,0.0,0.0,0.0,0.0,0.0,0.0,0.0,0.0,0.0,0.0,0.0,0.0,0.0,0.0,0.0,0.0,0.0,0.0,0.0,0.0,0.0,0.0,0.0,0.0,0.0,0.0,0.0,0.3599,0.361,0.3708,0.0,0.0,0.0,0.0,0.0,0.0,0.0,0.0,0.0,0.0,0.0,0.0,0.0,0.0,0.0,0.0,0.0,0.0,0.0,0.0,0.0,0.0,0.0,0.0,0.0,0.0,0.0,0.0,0.0,0.0,0.0,0.0,0.0,0.0,0.0,0.0,0.0,1.9108,1.9108,1.9108,1.9108,0.0,1.9108,1.9108,1.9108,1.9108,1.9396,1.9884,2.0031,2.0484,2.1092,2.1092,2.1012,2.0901,2.1044,2.0773,2.0404,2.1076,2.1219,2.1203,0.0,0.0,0.0,0.0,0.0,0.0,0.0,0.0,0.0,0.0,0.0,0.0,0.0,0.0,0.0,0.0,0.0,0.0,0.0,0.0,0.0,0.0,0.0,0.0,0.0,0.0,0.0,0.0,0.0,0.0,0.0,0.0,0.0,0.0,0.0,0.0,0.0,0.0,0.0,0.0,0.0,0.0,0.0,0.0,0.0,0.0,0.0,0.0,0.0,0.0,0.0,0.0,0.0,0.0,0.3638,0.3827,0.4029,0.0,0.0,0.0,0.0,0.0,0.0,0.0,0.0,0.0,0.0,0.0,0.0,0.0,0.0,0.0,0.0,0.0,0.0,0.0,0.0,0.0,0.0,0.0,0.0,0.0,0.0,0.0,0.0,0.0,0.0,0.0,0.0,0.0,0.0,0.0,1.9108,1.9108,1.9108,1.9108,1.9108,1.9108,1.9108,1.9108,1.9108,1.9108,1.9468,2.0096,2.0096,2.0484,2.1092,2.1092,2.1298,2.1553,2.1234,2.0885,2.0613,2.0965,2.0693,2.0242,0.0,0.0,0.0,0.0,0.0,0.0,0.0,0.0,0.0,0.0,0.0,0.0,0.0,0.0,0.0,0.0,0.0,0.0,0.0,0.0,0.0,0.0,0.0,0.0,0.0,0.0,0.0,0.0,0.0,0.0,0.0,0.0,0.0,0.0,0.0,0.0,0.0,0.0,0.0,0.0,0.0,0.0,0.0,0.0,0.0,0.0,0.0,0.0,0.0,0.0,0.0,0.0,0.0,0.0,0.3713,0.4057,0.4208,0.451,0.0,0.0,0.0,0.0,0.0,0.0,0.0,0.0,0.0,0.0,0.0,0.0,0.0,0.0,0.0,0.0,0.0,0.0,0.0,0.0,0.0,0.0,0.0,0.0,0.0,0.0,0.0,0.0,0.0,0.0,0.0,0.0,1.9108,1.9108,1.9108,1.9108,1.9108,1.9108,1.9108,1.9108,1.9108,1.9108,1.9108,1.9108,1.9396,1.9928,2.0058,2.0404,2.0933,2.1044,2.1491,2.2039,2.1491,2.1203,2.1092,2.1092,2.0323,1.9347,0.0,0.0,0.0,0.0,0.0,0.0,0.0,0.0,0.0,0.0,0.0,0.0,0.0,0.0,0.0,0.0,0.0,0.0,0.0,0.0,0.0,0.0,0.0,0.0,0.0,0.0,0.0,0.0,0.0,0.0,0.0,0.0,0.0,0.0,0.0,0.0,0.0,0.0,0.0,0.0,0.0,0.0,0.0,0.0,0.0,0.0,0.0,0.0,0.0,0.0,0.0,0.0,0.0,0.0,0.0,0.0,0.0,0.0,0.0,0.0,0.0,0.0,0.0,0.0,0.0,0.0,0.0,0.0,0.0,0.0,0.0,0.0,0.0,0.0,0.0,0.0,0.0,0.0,0.0,0.0,0.0,0.0,0.0,0.0,0.0,0.0,0.0,0.0,0.0,1.9108,1.9108,1.9108,1.9108,1.9108,1.9108,1.9108,1.9108,1.9108,1.9108,1.9108,1.9108,1.9108,1.9158,1.9264,1.9846,2.0145,2.0274,2.0853,2.1491,2.2098,2.2005,2.1616,2.1092,2.1092,2.0613,1.9982,0.0,0.0,0.0,0.0,0.0,0.0,0.0,0.0,0.0,0.0,0.0,0.0,0.0,0.0,0.0,0.0,0.0,0.0,0.0,0.0,0.0,0.0,0.0,0.0,0.0,0.0,0.0,0.0,0.0,0.0,0.0,0.1797,0.1797,0.0,0.0,0.0,0.0,0.0,0.0,0.0,0.0,0.0,0.0,0.0,0.0,0.0,0.0,0.0,0.0,0.0,0.0,0.0,0.0,0.0,0.0,0.0,0.0,0.0,0.0,0.0,0.0,0.0,0.0,0.0,0.0,0.0,0.0,0.0,0.0,0.0,0.0,0.0,0.0,0.0,0.0,0.0,0.0,0.0,0.0,0.0,0.0,0.0,0.0,0.0,0.0,0.0,0.0,0.0,1.9081,1.9108,1.9108,1.9108,1.9108,1.9108,1.9108,1.9108,1.9108,1.9108,1.9108,1.9108,1.9108,1.9108,1.9108,1.9125,1.9413,1.9748,2.0096,1.9998,2.0597,2.1506,2.1128,2.0794,2.0532,2.0532,2.0123,1.9534,0.0,0.0,0.0,0.0,0.0,0.0,0.0,0.0,0.0,0.0,0.0,0.0,0.0,0.0,0.0,0.0,0.0,0.0,0.0,0.0,0.0,0.0,0.0,0.0,0.0,0.0,0.0,0.0,0.0,0.0,0.1797,0.1797,0.1805,0.0,0.1817,0.0,0.0,0.0,0.0,0.0,0.0,0.0,0.0,0.0,0.0,0.0,0.0,0.0,0.0,0.0,0.0,0.0,0.0,0.0,0.0,0.0,0.0,0.0,0.0,0.0,0.0,0.0,0.0,0.0,0.0,0.0,0.0,0.0,0.0,0.0,0.0,0.0,0.0,0.0,0.0,0.0,0.0,0.0,0.0,0.0,0.0,0.0,0.0,0.0,0.0,0.0,0.0,0.0,1.9108,1.9108,1.9108,1.9108,1.9108,1.9108,1.9108,1.9108,1.9108,1.9108,1.9108,1.9108,1.9108,1.9108,1.9108,1.9108,1.9108,1.938,1.9813,1.9495,1.9944,2.0805,2.0484,2.0242,2.0096,2.0096,1.9682,1.9119,0.0,0.0,0.0,0.0,0.0,0.0,0.0,0.0,0.0,0.0,0.0,0.0,0.0,0.0,0.0,0.0,0.0,0.0,0.0,0.0,0.0,0.0,0.0,0.0,0.0,0.0,0.0,0.0,0.0,0.0,0.1797,0.1797,0.184,0.1892,0.1892,0.1893,0.1899,0.0,0.0,0.0,0.0,0.0,0.0,0.0,0.0,0.0,0.0,0.0,0.0,0.0,0.0,0.0,0.0,0.0,0.0,0.0,0.0,0.0,0.0,0.0,0.0,0.0,0.0,0.0,0.0,0.0,0.0,0.0,0.0,0.0,0.0,0.0,0.0,0.0,0.0,0.0,0.0,0.0,0.0,0.0,0.0,0.0,0.0,0.0,0.0,0.0,0.0,0.0,1.9108,1.9108,1.9108,1.9108,1.9108,1.9108,1.9108,1.9108,1.9108,1.9108,1.9108,1.9108,1.9108,1.9108,1.9108,1.9108,1.9108,1.9125,1.9198,1.9797,2.0091,2.021,2.0805,2.0661,2.0096,2.0096,1.9682,1.917,0.0,0.0,0.0,0.0,0.0,0.0,0.0,0.0,0.0,0.0,0.0,0.0,0.0,0.0,0.0,0.0,0.0,0.0,0.0,0.0,0.0,0.0,0.0,0.0,0.0,0.0,0.0,0.0,0.0,0.1866,0.1866,0.1906,0.1935,0.1968,0.1914,0.1955,0.203,0.2052,0.0,0.0,0.0,0.0,0.0,0.0,0.0,0.0,0.0,0.0,0.0,0.0,0.0,0.0,0.0,0.0,0.0,0.0,0.0,0.0,0.0,0.0,0.0,0.0,0.0,0.0,0.0,0.0,0.0,0.0,0.0,0.0,0.0,0.0,0.0,0.0,0.0,0.0,0.0,0.0,0.0,0.0,0.0,0.0,0.0,0.0,0.0,0.0,0.0,0.0,1.9088,1.9108,1.9108,1.9108,1.9108,1.9108,1.9108,1.9108,1.9108,1.9108,1.9108,1.9108,1.9108,1.9108,1.9108,1.9108,1.9108,1.9108,1.9125,1.9363,1.9462,1.9485,1.9731,1.9666,1.9462,1.9462,1.9314,1.917,0.0,0.0,0.0,0.0,0.0,0.0,0.0,0.0,0.0,0.0,0.0,0.0,0.0,0.0,0.0,0.0,0.0,0.0,0.0,0.0,0.0,0.0,0.0,0.0,0.0,0.0,0.0,0.0,0.0,0.0,0.0,0.0,0.2015,0.2033,0.1991,0.0,0.0,0.0,0.0,0.2221,0.0,0.0,0.3228,0.0,0.0,0.0,0.0,0.0,0.0,0.0,0.0,0.0,0.0,0.0,0.0,0.0,0.0,0.0,0.0,0.0,0.0,0.0,0.0,0.0,0.0,0.0,0.0,0.0,0.0,0.0,0.0,0.0,0.0,0.0,0.0,0.0,0.0,0.0,0.0,0.0,0.0,0.0,0.0,0.0,0.0,0.0,0.0,0.0,1.8849,1.887,1.8942,1.9098,1.9108,1.9108,1.9108,1.9108,1.9108,1.9108,1.9108,1.9108,1.9108,1.9108,1.9108,1.9108,1.9108,1.9108,1.9108,1.9108,1.9108,1.9108,1.9108,1.9108,1.9108,1.9108,1.9202,1.9399,0.0,-0.0898,-0.0898,-0.0898,-0.0898,-0.0743,0.0,0.0,0.0,0.0,0.0,0.0,0.0,0.0,0.0,0.0,0.0,0.0,0.0,0.0,0.0,0.0,0.0,0.0,0.0,0.0,0.0,0.0,0.0,0.0,0.0,0.0,0.2041,0.0,0.2098,0.2098,0.2102,0.0,0.0,0.2221,0.0,0.2624,0.3209,0.0,0.0,0.0,0.43,0.43,0.0,0.0,0.0,0.0,0.0,0.0,0.0,0.0,0.0,0.0,0.0,0.0,0.0,0.0,0.0,0.0,0.0,0.0,0.0,0.0,0.0,0.0,0.0,0.0,0.0,0.0,0.0,0.0,0.0,0.0,0.0,0.0,0.0,0.0,0.0,0.0,0.0,0.0,0.0,1.789,1.8346,1.8387,1.8631,1.9088,1.9108,1.9108,1.9108,1.9108,1.9108,1.9108,1.9108,1.9108,1.9108,1.9108,1.9108,1.9108,1.9108,1.9108,1.9108,1.9108,1.9108,1.9108,1.9108,1.9108,1.9108,1.9119,1.9409,1.9865,-0.094,-0.0898,-0.0898,-0.0898,-0.0898,-0.0856,0.0,0.0,0.0,0.0,0.0,0.0,0.0,0.0,0.0,0.0,0.0,0.0,0.0,0.0108,0.0509,0.1386,0.1417,0.1601,0.0,0.0,0.0,0.0,0.0,0.0,0.0,0.0,0.0,0.0,0.2178,0.2178,0.2181,0.2197,0.0,0.0,0.2571,0.2989,0.0,0.0,0.0,0.0,0.0,0.43,0.0,0.0,0.43,0.43,0.0,0.0,0.0,0.0,0.0,0.0,0.7598,0.0,0.0,0.0,0.0,0.0,0.0,0.0,0.0,0.0,0.0,0.0,0.0,0.0,0.0,0.0,0.0,0.0,0.0,0.0,0.0,0.0,0.0,0.0,0.0,0.0,0.0,0.0,1.7188,1.7399,1.7869,1.8232,1.8631,1.9088,1.9108,1.9108,1.9108,1.9108,1.9108,1.9108,1.9108,1.9108,1.9108,1.9108,1.9108,1.9108,1.9108,1.9108,1.9108,1.9108,1.9108,1.9108,1.9108,1.9108,1.9139,1.9482,1.9679,1.9907,-0.1341,-0.1202,-0.1121,-0.115,-0.1037,0.0,0.0,0.0,0.0,0.0,0.0,0.0,0.0,0.0,0.0,0.0,0.0,0.0,0.0,-0.0304,0.016,0.1199,0.1246,0.1502,0.0,0.0,0.0,0.0,0.0,0.0,0.0,0.0,0.0,0.0,0.0,0.0,0.0,0.0,0.0,0.0,0.2703,0.0,0.0,0.3809,0.4011,0.0,0.0,0.0,0.43,0.43,0.43,0.0,0.0,0.0,0.0,0.0,0.0,0.0,0.0,0.0,0.0,0.0,0.0,0.0,0.0,1.0658,0.0,0.0,0.0,0.0,0.0,0.0,0.0,0.0,0.0,0.0,0.0,0.0,0.0,0.0,0.0,0.0,0.0,0.0,0.0,0.0,1.6752,1.7032,1.7668,1.8143,1.8631,1.9088,1.9108,1.9108,1.9108,1.9108,1.9108,1.9108,1.9108,1.9108,1.9108,1.9108,1.9108,1.9108,1.9108,1.9108,1.9108,1.9108,1.9108,1.9108,1.9108,1.9108,1.916,1.9627,1.9917,2.0141,0.0,-0.1687,-0.1479,-0.1503,-0.1295,0.0,0.0,0.0,0.0,0.0,0.0,0.0,0.0,0.0,0.0,0.0,0.0,0.0,0.0,-0.0386,0.0067,0.1076,0.1176,0.1496,0.2087,0.0,0.0,0.0,0.0,0.0,0.0,0.0,0.0,0.0,0.0,0.0,0.0,0.0,0.0,0.282,0.277,0.3188,0.0,0.0,0.4045,0.0,0.43,0.43,0.43,0.43,0.43,0.0,0.0,0.0,0.0,0.0,0.6482,0.0,0.0,0.0,0.0,0.0,0.0,0.0,1.0095,1.0532,1.0989,0.0,0.0,0.0,0.0,0.0,0.0,0.0,0.0,0.0,0.0,0.0,0.0,0.0,0.0,0.0,0.0,0.0,1.6398,1.6398,1.6398,1.6757,1.7575,1.8071,1.8532,1.9015,1.9077,1.9108,1.9108,1.9108,1.9108,1.9108,1.9108,1.9108,1.9108,1.9108,1.9108,1.9108,1.9108,1.9108,1.9108,1.9108,1.9108,1.9108,1.9108,1.9139,1.9233,1.9699,2.0138,2.0547,-0.2105,-0.2001,-0.1867,-0.1553,0.0,0.0,0.0,0.0,0.0,0.0,0.0,0.0,0.0,0.0,0.0,0.0,0.0,0.0,0.0,-0.0941,-0.0655,-0.0017,0.042,0.0908,0.1463,0.194,0.0,0.0,0.0,0.0,0.0,0.0,0.0,0.0,0.0,0.0,0.0,0.0,0.0,0.3556,0.3226,0.0,0.4197,0.4197,0.425,0.43,0.43,0.43,0.43,0.0,0.43,0.4384,0.0,0.0,0.0,0.0,0.0,0.0,0.0,0.0,0.0,0.0,0.0,0.0,0.9628,0.9718,0.9942,0.0,0.0,0.0,0.0,0.0,0.0,0.0,0.0,0.0,0.0,0.0,0.0,0.0,0.0,0.0,0.0,0.0,1.6398,1.6398,1.6398,1.6626,1.7105,1.7575,1.8045,1.8512,1.8911,1.9108,1.9108,1.9108,1.9108,1.9108,1.9108,1.9108,1.9108,1.9108,1.9108,1.9108,1.9108,1.9108,1.9108,1.9108,1.9108,1.9108,1.9108,1.9326,1.971,2.0131,2.0568,2.1023,-0.2622,-0.2458,-0.2296,-0.2135,0.0,0.0,0.0,0.0,0.0,0.0,0.0,0.0,0.0,0.0,0.0,0.0,0.0,0.0,0.0,0.0,-0.0857,-0.0319,-0.005,0.047,0.1277,0.1597,0.1901,0.0,0.0,0.0,0.0,0.0,0.0,0.0,0.0,0.0,0.0,0.0,0.3426,0.3775,0.3575,0.0,0.43,0.43,0.43,0.43,0.43,0.43,0.43,0.43,0.4481,0.0,0.0,0.5355,0.5789,0.0,0.7244,0.7944,0.0,0.0,0.0,0.95,0.0,0.0,0.0,0.9894,1.011,0.0,0.0,0.0,0.0,0.0,0.0,0.0,0.0,0.0,0.0,0.0,0.0,0.0,0.0,0.0,0.0,0.0,1.6398,1.6398,1.6398,1.657,1.6971,1.7451,1.7921,1.8387,1.887,1.9108,1.9108,1.9108,1.9108,1.9108,1.9108,1.9108,1.9108,1.9108,1.9108,1.9108,1.9108,1.9108,1.9108,1.9108,1.9108,1.9129,1.9357,1.9585,1.9876,2.0514,2.0899,2.1168,-0.3133,-0.2842,-0.262,-0.2609,0.0,0.0,0.0,0.0,0.0,0.0,0.0,0.0,0.0,0.0,0.0,0.0,0.0,0.0,0.0,0.0,-0.0908,-0.047,-0.0353,0.0101,0.0975,0.1193,0.1547,0.2018,0.0,0.0,0.0,0.0,0.0,0.0,0.0,0.0,0.0,0.0,0.0,0.3892,0.0,0.4061,0.43,0.43,0.43,0.43,0.43,0.43,0.43,0.43,0.0,0.499,0.5186,0.5554,0.0,0.0,0.0,0.0,0.0,0.0,0.0,0.0,0.0,0.9612,0.0,0.0,0.0,0.0,0.0,0.0,0.0,0.0,0.0,0.0,0.0,0.0,0.0,0.0,0.0,0.0,0.0,0.0,0.0,0.0,1.6259,1.6388,1.6288,1.6413,1.6862,1.7327,1.7786,1.8247,1.8719,1.9015,1.9108,1.9108,1.9108,1.9108,1.9108,1.9108,1.9108,1.9108,1.9108,1.9108,1.9108,1.9108,1.9108,1.9108,1.915,1.9274,1.9647,1.9855,2.0003,2.0814,2.1158,2.1282,-0.3276,-0.2926,-0.2594,-0.2302,0.0,0.0,0.0,0.0,0.0,0.0,0.0,0.0,0.0,0.0,0.0,0.0,0.0,0.0,-0.1092,0.0,0.0,-0.1008,-0.0554,-0.0235,-0.0118,0.0807,0.1328,0.1396,0.0,0.0,0.0,0.0,0.0,0.0,0.2554,0.0,0.0,0.0,0.3928,0.0,0.425,0.4267,0.0,0.43,0.43,0.43,0.43,0.43,0.43,0.0,0.4334,0.4548,0.0,0.5859,0.0,0.0,0.0,0.0,0.0,0.0,0.0,0.0,0.95,0.0,0.0,0.0,0.0,0.0,0.0,0.0,0.0,0.0,0.0,0.0,0.0,0.0,0.0,0.0,0.0,0.0,0.0,0.0,0.0,0.0,0.0,1.6359,1.585,1.5798,1.6432,1.6866,1.728,1.7761,1.8226,1.8667,1.9098,1.9108,1.9108,1.9108,1.9108,1.9108,1.9108,1.9108,1.9108,1.9108,1.9108,1.9108,1.9108,1.9108,1.9347,1.972,1.9772,2.0024,2.0392,2.0909,2.1354,2.1735,-0.3309,-0.3092,-0.2889,0.0,0.0,0.0,0.0,0.0,0.0,0.0,0.0,0.0,0.0,0.0,0.0,0.0,0.0,-0.1092,0.0,0.0,0.0,0.0,-0.0891,-0.0622,-0.0302,0.0134,0.0521,0.084,0.1396,0.0,0.0,0.0,0.0,0.0,0.2354,0.0,0.3213,0.0,0.0,0.0,0.0,0.0,0.0,0.4352,0.43,0.43,0.43,0.43,0.43,0.0,0.4514,0.0,0.0,0.0,0.0,0.0,0.0,0.0,0.0,0.0,0.0,0.0,0.0,0.0,0.0,0.0,1.0475,0.0,0.0,0.0,0.0,0.0,0.0,0.0,0.0,0.0,0.0,0.0,0.0,0.0,0.0,0.0,0.0,0.0,0.0,0.0,0.0,1.5696,1.6359,1.6783,1.7223,1.7688,1.8154,1.8631,1.9098,1.9108,1.9108,1.9108,1.9108,1.9108,1.9108,1.9108,1.9108,1.9108,1.9108,1.9108,1.9108,1.9108,1.9378,1.9824,2.0065,2.042,2.0868,2.1323,2.1631,2.1807,-0.356,0.0,0.0,0.0,0.0,0.0,-0.153,-0.126,-0.1096,0.0,0.0,0.0,-0.1117,-0.111,0.0,0.0,0.0,-0.1092,0.0,0.0,-0.1101,0.0,0.0,0.0,0.0,-0.037,-0.0118,0.0286,0.0824,0.0,0.0,0.0,0.0,0.0,0.0,0.2732,0.3303,0.0,0.0,0.4555,0.4555,0.461,0.4671,0.4481,0.4393,0.4346,0.4346,0.4327,0.43,0.43,0.4564,0.0,0.5223,0.0,0.0,0.0,0.0,0.0,0.9253,0.0,0.0,0.0,0.0,0.0,0.0,0.0,0.0,0.0,0.0,0.0,0.0,0.0,0.0,0.0,0.0,0.0,0.0,0.0,0.0,0.0,0.0,0.0,0.0,0.0,0.0,0.0,1.5522,1.5522,1.6359,1.667,1.7099,1.7688,1.804,1.8501,1.9098,1.9108,1.9108,1.9108,1.9108,1.9108,1.9108,1.9108,1.9108,1.9108,1.9108,1.8981,1.8804,1.8804,1.9134,1.9685,1.9984,2.0601,2.1323,2.1683,2.1807,2.1807,-0.4175,-0.3291,0.0,0.0,0.0,0.0,-0.116,-0.1109,-0.1103,0.0,0.0,0.0,0.0,0.0,0.0,0.0,0.0,-0.1092,-0.1092,0.0,-0.1106,0.0,0.0,-0.1088,0.0,0.0,-0.0286,-0.0269,0.0269,0.0,0.0,0.0,0.0,0.0,0.0,0.3101,0.3517,0.3905,0.4323,0.4702,0.4702,0.4705,0.4705,0.0,0.4605,0.4498,0.4498,0.0,0.0,0.43,0.4317,0.0,0.0,0.0,0.0,0.0,0.0,0.0,0.0,0.0,0.0,0.942,0.0,0.0,0.0,0.0,1.0444,0.0,0.0,0.0,0.0,0.0,0.0,0.0,0.0,0.0,0.0,0.0,0.0,0.0,0.0,0.0,0.0,0.0,0.0,1.5337,1.4868,1.5084,1.6331,1.6409,1.6808,1.7668,1.7719,1.8169,1.9098,1.9108,1.9108,1.9108,1.9108,1.9108,1.9108,1.9108,1.9108,1.9108,1.9108,1.8687,1.8037,1.8037,1.8536,1.9319,1.9329,2.0333,2.1787,2.1797,2.1807,2.1807,0.0,0.0,0.0,0.0,0.0,0.0,-0.1154,-0.114,-0.1157,0.0,0.0,0.0,0.0,0.0,-0.1169,0.0,0.0,-0.1171,-0.1171,-0.1163,0.0,0.0,0.0,-0.1164,0.0,0.0,-0.0887,-0.0887,-0.0355,0.0,0.0,0.0,0.0,0.0,0.0,0.3159,0.0,0.0,0.0,0.0,0.0,0.4847,0.4765,0.0,0.0,0.4627,0.4627,0.4602,0.0,0.4456,0.4668,0.5015,0.5286,0.6017,0.686,0.7335,0.7873,0.0,0.0,0.0,0.8468,0.9022,0.0,0.0,0.0,0.0,0.0,0.0,0.0,0.0,0.0,0.0,0.0,0.0,0.0,0.0,0.0,0.0,0.0,0.0,0.0,0.0,0.0,0.0,0.0,1.5337,1.5206,1.5478,0.0,1.6398,1.6798,1.7668,1.7699,1.8148,1.9098,1.9108,1.9108,1.9108,1.9108,1.9108,1.9108,1.9108,1.9108,1.9108,1.9108,1.8965,1.8751,1.9063,1.9209,1.9323,2.0159,2.066,2.1021,2.1587,2.1807,2.1807,-0.6024,0.0,0.0,0.0,0.0,0.0,0.0,0.0,0.0,0.0,-0.1201,0.0,-0.1235,0.0,-0.1201,0.0,-0.1191,-0.1203,-0.1203,-0.1195,0.0,-0.1203,-0.1196,0.0,0.0,0.0,-0.1203,-0.1203,0.0,-0.0237,0.0,0.0,0.0,0.0,0.0,0.0,0.0,0.0,0.4667,0.0,0.0,0.495,0.0,0.0,0.4773,0.4734,0.0,0.4725,0.4694,0.4597,0.4938,0.5403,0.5443,0.6221,0.7146,0.7271,0.7705,0.8171,0.8284,0.8171,0.0,0.884,0.8748,0.0,1.0015,0.0,0.0,0.0,0.0,0.0,0.0,0.0,0.0,0.0,0.0,0.0,0.0,0.0,0.0,0.0,0.0,0.0,0.0,0.0,1.4261,1.5323,1.5206,1.5464,0.0,0.0,1.6798,1.7668,1.7699,1.8148,1.9098,1.9108,1.9108,1.9108,1.9108,1.9108,1.9108,1.9108,1.9108,1.9108,1.9108,1.8948,1.8728,1.8881,1.8895,1.8904,1.9904,2.0375,2.0576,2.1136,2.1328,2.129,-0.6348,0.0,0.0,0.0,-0.2719,0.0,0.0,0.0,-0.1218,0.0,-0.1214,-0.1225,-0.1293,-0.125,-0.1214,-0.1214,-0.1206,0.0,-0.1208,-0.1198,0.0,0.0,-0.1198,-0.12,-0.1208,0.0,0.0,0.0,0.0,0.0,0.0,0.0,0.0,0.0,0.3311,0.0,0.3862,0.4665,0.4998,0.4998,0.4998,0.4998,0.4998,0.4998,0.4925,0.4804,0.4804,0.4768,0.4724,0.4755,0.5147,0.5708,0.6047,0.6572,0.7108,0.743,0.7538,0.7604,0.7919,0.8001,0.8159,0.8813,0.0,0.0,0.0,0.0,1.0218,0.0,0.0,0.0,0.0,0.0,0.0,0.0,0.0,0.0,0.0,0.0,0.0,0.0,0.0,0.0,0.0,1.2988,1.342,1.522,1.4854,0.0,0.0,0.0,1.6769,1.7668,1.7699,1.8148,1.9098,1.9108,1.9108,1.9108,1.9108,1.9108,1.9108,1.9065,1.9075,1.9108,1.9065,1.8691,1.8071,1.7649,1.7743,1.8174,1.8635,1.9495,2.0459,2.0537,2.0518,2.0343,-0.6944,-0.6331,-0.5838,0.0,-0.3896,-0.2173,0.0,0.0,0.0,0.0,-0.1265,-0.1288,-0.1295,-0.1289,-0.1265,-0.1265,-0.1277,0.0,0.0,0.0,0.0,-0.1273,-0.128,-0.1281,-0.1273,-0.1272,0.0,-0.1272,0.0,0.0,0.0617,0.0,0.0,0.0,0.0,0.0,0.3862,0.4665,0.4998,0.4998,0.4998,0.4998,0.0,0.0,0.4977,0.4952,0.4952,0.4931,0.4985,0.5374,0.5895,0.6419,0.6861,0.7368,0.7833,0.7916,0.7936,0.7971,0.8045,0.8075,0.814,0.8416,0.8409,0.8628,0.0,0.0,0.0,0.0,0.0,0.0,0.0,0.0,0.0,0.0,0.0,0.0,0.0,0.0,0.0,0.0,0.0,0.0,1.2858,1.3549,1.4216,1.4691,1.5001,0.0,0.0,0.0,0.0,1.7662,1.7699,1.8148,1.9098,1.9108,1.9108,1.9108,1.9108,1.9108,1.9081,1.8536,1.8586,1.9075,1.8519,1.8676,1.9304,1.8898,1.8629,1.852,1.8982,1.935,1.9757,2.1011,2.0673,1.9757,-0.7317,-0.6725,0.0,-0.5938,0.0,0.0,-0.2576,0.0,0.0,-0.1334,-0.1265,0.0,-0.1295,-0.1296,-0.1296,-0.1296,-0.1296,0.0,0.0,0.0,0.0,-0.1296,-0.1296,-0.1296,-0.1296,-0.1296,0.0,-0.0864,0.0,0.0,0.104,0.0,0.0,0.0,0.0,0.3802,0.0,0.4665,0.4998,0.4998,0.4998,0.0,0.0,0.4998,0.4998,0.4998,0.4998,0.4998,0.5082,0.5657,0.6235,0.6813,0.725,0.7771,0.8221,0.8126,0.8097,0.8097,0.8097,0.8097,0.8157,0.8366,0.8319,0.8507,0.9599,1.0142,1.066,0.0,0.0,0.0,0.0,0.0,0.0,0.0,0.0,0.0,0.0,0.0,0.0,0.0,0.0,0.0,1.2652,1.3752,1.4603,1.4868,0.0,0.0,0.0,0.0,0.0,1.7662,1.79,1.835,1.9098,1.9108,1.9108,1.9108,1.9108,1.9108,1.9092,1.867,1.8704,1.9058,1.8482,1.8597,1.9181,1.8609,1.8457,1.8675,1.9509,1.9383,1.8928,2.0615,2.0411,1.9433,-0.7503,0.0,0.0,0.0,0.0,0.0,0.0,-0.2157,0.0,-0.1293,0.0,-0.1228,-0.1293,-0.1296,-0.1296,-0.1296,0.0,-0.1296,-0.1296,-0.1296,-0.1296,-0.1296,-0.1296,-0.1296,-0.1296,-0.1296,0.0,0.0,0.0,0.0,0.0,0.0,0.0,0.0,0.0,0.0,0.0,0.4704,0.4998,0.0,0.4998,0.4998,0.4998,0.4998,0.4998,0.4998,0.4998,0.5057,0.521,0.5825,0.6479,0.7088,0.7522,0.8014,0.8406,0.8235,0.8178,0.8178,0.8178,0.8178,0.8245,0.8505,0.8358,0.8432,0.9579,1.0104,1.0595,1.1483,1.2173,1.2631,0.0,0.0,0.0,0.0,0.0,0.0,0.0,0.0,0.0,0.0,0.0,0.0,0.0,0.0,0.0,0.0,0.0,0.0,0.0,0.0,0.0,1.7673,1.8154,0.0,1.9098,0.0,1.9108,1.9108,1.9108,1.9048,1.8948,1.8865,1.8845,1.8866,1.8517,1.8495,1.8624,1.7807,1.7817,1.8449,1.9576,1.9175,1.8198,1.9766,1.9904,1.9315,0.0,0.0,0.0,0.0,0.0,-0.4023,-0.3052,-0.2265,-0.1659,-0.1335,-0.1292,-0.1291,-0.1295,-0.1296,-0.1296,-0.1296,-0.1296,0.0,0.0,0.0,0.0,-0.1296,-0.1296,-0.1296,-0.1296,-0.1296,-0.1237,0.0,-0.0687,0.0157,0.0,0.0,0.0,0.0,0.0,0.0,0.4801,0.4937,0.0,0.4998,0.4998,0.4998,0.4998,0.4998,0.4998,0.4998,0.4998,0.5323,0.5844,0.6498,0.713,0.774,0.8315,0.8552,0.8642,0.8604,0.859,0.859,0.859,0.859,0.8571,0.846,0.8399,0.8551,0.9314,1.0042,1.0829,1.181,1.2404,1.2821,1.2981,0.0,0.0,0.0,0.0,0.0,0.0,0.0,0.0,0.0,0.0,0.0,0.0,0.0,0.0,0.0,0.0,0.0,0.0,0.0,0.0,0.0,0.0,0.0,0.0,0.0,1.9108,1.9108,1.9108,1.8771,1.8172,1.755,1.7447,1.7704,1.7681,1.8427,1.9585,1.8728,1.7846,1.7041,1.7281,1.7631,1.8118,1.9146,1.9423,1.9394,0.0,0.0,0.0,0.0,0.0,0.0,0.0,-0.177,0.0,-0.1323,-0.1307,-0.1309,-0.1301,-0.1304,-0.1298,-0.1302,-0.1301,-0.1294,-0.1298,-0.1296,-0.1296,-0.1296,-0.1296,0.0,-0.1296,-0.1296,-0.108,-0.0628,-0.0609,0.0039,0.0,0.0,0.0,0.0,0.0,0.4014,0.0,0.0,0.0,0.4998,0.4998,0.4998,0.4998,0.4998,0.4998,0.4998,0.4998,0.5615,0.646,0.6788,0.7303,0.7897,0.8508,0.8703,0.8703,0.8703,0.8703,0.8703,0.8703,0.8703,0.868,0.8581,0.8557,0.8752,0.9489,1.0224,1.1007,1.1905,1.2613,1.307,1.3091,1.2965,0.0,0.0,0.0,0.0,0.0,0.0,0.0,0.0,0.0,0.0,0.0,0.0,0.0,0.0,0.0,0.0,0.0,0.0,0.0,0.0,0.0,0.0,0.0,0.0,0.0,1.9108,1.9108,1.8704,1.7986,1.7814,1.7603,1.7423,1.788,1.8255,1.8534,1.8353,1.7923,1.7428,1.7876,1.7755,1.7489,1.8809,1.9295,1.9482,0.0,-0.7029,0.0,0.0,-0.408,0.0,-0.1536,-0.1305,-0.1298,-0.1295,-0.1292,-0.1295,-0.1301,-0.1305,-0.1296,-0.1294,-0.1292,-0.1302,-0.1298,-0.129,-0.1307,-0.1307,-0.13,-0.1296,-0.1296,-0.1296,-0.0962,0.0,-0.0687,-0.0196,0.0,0.0,0.0,0.0,0.0,0.0,0.0,0.0,0.4998,0.4998,0.4998,0.4998,0.4998,0.4998,0.4998,0.4998,0.4998,0.5825,0.688,0.6726,0.7265,0.8069,0.8546,0.8703,0.8703,0.8703,0.8703,0.8703,0.8703,0.8703,0.8703,0.8703,0.8837,0.9117,0.9752,1.0562,1.1394,1.2058,1.2813,1.3291,1.3169,1.3138,0.0,0.0,0.0,0.0,0.0,0.0,0.0,0.0,0.0,0.0,0.0,0.0,0.0,0.0,0.0,0.0,1.6717,1.689,0.0,0.0,0.0,1.9015,1.8865,0.0,1.9108,0.0,1.9108,1.8654,1.7814,1.808,1.7793,1.7129,1.7957,1.7971,1.7479,1.7857,1.7896,1.7796,1.847,1.7917,1.6894,1.845,1.9027,1.9245,0.0,0.0,0.0,0.0,0.0,0.0,0.0,-0.1305,-0.1305,-0.1302,-0.13,-0.13,-0.1305,-0.1305,-0.1305,-0.1302,-0.1302,-0.13,-0.1298,-0.1293,-0.1299,-0.1299,-0.1292,-0.1296,-0.1296,-0.1296,-0.1257,0.0,0.0,-0.0353,0.0666,0.0,0.0,0.0,0.0,0.0,0.0,0.4998,0.4998,0.4998,0.4998,0.4998,0.4998,0.4998,0.4998,0.4998,0.4998,0.5825,0.6807,0.6189,0.7169,0.8627,0.868,0.8703,0.8703,0.8703,0.8703,0.8703,0.8703,0.8703,0.8703,0.8703,0.9255,0.9803,0.9879,1.1075,1.224,1.2503,1.306,1.3441,1.3306,1.3278,1.3235,0.0,0.0,0.0,0.0,0.0,0.0,0.0,0.0,0.0,0.0,0.0,0.0,0.0,0.0,1.4797,1.611,1.6983,1.7419,1.7396,0.0,1.8781,1.8104,1.8771,0.0,1.9108,1.9108,1.8431,1.7198,1.7216,1.6799,1.6087,1.6963,1.7559,1.7946,1.798,1.7521,1.6833,1.6914,1.6833,1.6812,1.7775,1.8118,1.8258,0.0,0.0,0.0,0.0,0.0,0.0,0.0,-0.1782,-0.1305,-0.1305,-0.1305,-0.1312,-0.135,-0.1315,-0.1299,-0.1302,-0.1296,-0.1298,-0.1301,-0.1306,-0.1301,-0.1303,-0.1291,-0.1296,-0.1297,-0.1296,-0.1218,0.0,0.0,-0.0452,0.0059,0.0353,0.0,0.0,0.0,0.4543,0.4998,0.4998,0.4998,0.4998,0.4998,0.4998,0.4998,0.4998,0.4998,0.4998,0.4998,0.5556,0.6267,0.5996,0.7149,0.8642,0.828,0.8413,0.8703,0.8703,0.8703,0.8703,0.8703,0.8703,0.8703,0.8703,0.9311,1.003,1.0519,1.1484,1.2452,1.3028,1.3526,1.3813,1.3623,1.3705,1.3697,0.0,0.0,0.0,0.0,0.0,0.0,0.0,0.0,0.0,0.0,0.0,0.0,0.0,0.0,0.0,1.6986,1.723,1.7593,1.8181,0.0,1.7942,1.7636,1.7489,1.743,1.7413,1.7607,1.7214,1.6265,1.667,1.6824,1.673,1.6597,1.7307,1.847,1.7452,1.7216,1.7428,1.6894,1.6689,1.6812,1.7683,1.7997,1.8118,-0.7783,0.0,-0.6605,0.0,-0.4784,-0.3485,-0.2771,-0.1907,-0.1321,-0.1329,-0.1323,-0.1347,-0.1388,-0.1351,-0.1334,-0.1322,-0.1319,-0.1339,-0.133,-0.132,-0.1297,-0.1296,-0.1307,0.0,-0.1291,-0.129,-0.1207,-0.1021,-0.0805,0.0,-0.0196,0.0,0.0,0.0,0.3657,0.4285,0.4837,0.4957,0.4998,0.4998,0.4998,0.4998,0.4998,0.4998,0.4998,0.4998,0.4998,0.5382,0.5902,0.5902,0.7068,0.8438,0.7953,0.8222,0.8703,0.8703,0.8703,0.8703,0.8703,0.8703,0.8703,0.8703,0.9311,1.0105,1.0925,1.1725,1.2526,1.3328,1.3728,1.3917,1.3885,1.3997,1.401,1.3799,0.0,0.0,0.0,0.0,0.0,0.0,0.0,1.3608,0.0,0.0,0.0,0.0,0.0,0.0,1.756,1.7663,0.0,0.0,0.0,0.0,0.0,1.6559,1.6342,1.6448,1.6687,1.6477,1.5885,1.624,1.6569,1.6801,1.6319,1.6845,1.7989,1.6849,1.6858,1.748,1.6906,1.6689,1.6771,1.7387,1.7622,1.7703,-0.6678,-0.6073,-0.536,-0.4564,-0.3817,-0.2877,-0.1623,-0.1412,-0.14,-0.1408,-0.1408,-0.139,-0.139,-0.139,-0.1401,-0.1408,-0.1389,-0.1399,-0.1391,-0.1342,-0.1305,0.0,0.0,-0.1303,-0.1302,-0.1302,-0.1307,-0.1296,0.0,0.0,0.0039,0.0,0.249,0.2568,0.3837,0.4404,0.4443,0.4837,0.4998,0.4998,0.4998,0.4998,0.4998,0.4998,0.4998,0.4998,0.4998,0.5382,0.5902,0.5902,0.6875,0.8071,0.7861,0.8222,0.8703,0.8703,0.8703,0.8703,0.8703,0.8703,0.8703,0.8703,0.9311,1.0105,1.0925,1.1725,1.2526,1.3328,1.3492,1.3637,1.4013,1.4104,1.4104,1.4095,0.0,0.0,0.0,0.0,0.0,0.0,1.3601,1.3542,1.3423,0.0,0.0,0.0,0.0,0.0,0.0,0.0,0.0,1.774,1.7516,0.0,1.6324,1.6306,1.6466,1.6792,1.6801,1.663,1.6281,1.5896,1.5705,1.5733,1.5984,1.6108,1.6149,1.634,1.6414,1.6435,1.6628,1.6689,1.6689,1.671,1.671,1.671,-0.7506,-0.7317,-0.7091,-0.6825,-0.5338,-0.406,-0.3635,-0.2293,-0.1322,-0.1331,-0.1325,-0.1347,-0.1388,-0.1351,-0.1323,0.0,-0.1371,-0.14,0.0,-0.1379,-0.1376,-0.1378,-0.1328,-0.1292,-0.1292,-0.1292,-0.1298,-0.1308,0.0,0.0,0.0,0.2194,0.3075,0.3431,0.4389,0.4818,0.4818,0.4937,0.4998,0.4998,0.4998,0.4998,0.5006,0.5102,0.5132,0.5143,0.5247,0.54,0.5621,0.6086,0.6864,0.7691,0.8079,0.8624,0.9104,0.9104,0.9104,0.9104,0.9104,0.9104,0.9104,0.9104,0.9717,1.0385,1.0636,1.1633,1.2689,1.3353,1.3608,1.3736,1.3881,1.4119,1.4296,1.4294,1.4385,0.0,0.0,0.0,0.0,0.0,1.429,1.4237,0.0,1.4762,0.0,0.0,0.0,0.0,0.0,0.0,0.0,0.0,1.7474,0.0,1.6239,1.5724,1.5401,1.5229,1.5424,1.5576,1.5673,1.5559,1.5506,1.5506,1.559,1.5686,1.5824,1.5899,1.6031,1.6224,1.6422,1.6504,1.6517,1.6648,1.6689,1.6689,-0.7852,-0.777,-0.7593,-0.7175,-0.5906,-0.4822,-0.4495,-0.2979,-0.188,-0.1896,-0.1574,-0.1344,-0.1405,-0.1369,0.0,-0.1338,-0.1375,-0.1402,-0.1391,-0.1408,-0.141,-0.1391,-0.1351,-0.1343,-0.1343,0.0,0.0,-0.1299,-0.068,0.0041,0.0846,0.2274,0.3164,0.3594,0.4288,0.4686,0.4866,0.5001,0.5108,0.5148,0.5148,0.5148,0.5156,0.5247,0.5275,0.5286,0.5362,0.5389,0.5535,0.6464,0.7103,0.7676,0.8571,0.9185,0.953,0.9349,0.9302,0.9302,0.9302,0.9302,0.9302,0.9302,0.9684,1.0222,1.0888,1.2216,1.3409,1.3808,1.3881,1.3903,1.3966,1.4091,1.4199,1.4281,1.4425,1.4515,1.4515,0.0,0.0,0.0,0.0,0.0,0.0,1.4848,0.0,0.0,0.0,0.0,0.0,0.0,0.0,1.7577,1.6685,0.0,1.5798,1.5175,1.4812,1.4648,1.4957,1.5212,1.541,1.541,1.541,1.541,1.541,1.5465,1.5596,1.5671,1.5803,1.5976,1.6203,1.6332,1.6414,1.6538,1.6648,1.6689,-0.7747,-0.7548,0.0,0.0,-0.5698,0.0,-0.4344,-0.3408,-0.2803,-0.2793,-0.1973,-0.1391,-0.1391,-0.1391,-0.1391,-0.1391,0.0,0.0,0.0,-0.1393,-0.1393,-0.1393,-0.1391,-0.1391,-0.1393,-0.1391,-0.1334,-0.1224,0.0063,0.0714,0.0798,0.2123,0.291,0.3233,0.3725,0.4191,0.4637,0.5038,0.5286,0.5389,0.5389,0.5389,0.5392,0.54,0.5403,0.5403,0.5414,0.5417,0.5623,0.6971,0.755,0.7942,0.9218,0.98,0.9919,0.9483,0.9345,0.9345,0.9345,0.9345,0.9345,0.9345,0.9385,0.9871,1.1545,1.3233,1.4455,1.4492,1.4243,1.4094,1.4283,1.4074,1.3923,1.4085,1.4294,1.4421,1.4379,0.0,0.0,0.0,0.0,0.0,0.0,1.4461,1.4687,0.0,0.0,0.0,0.0,0.0,1.6718,1.6132,1.5523,1.52,1.5168,1.4796,1.4722,1.4936,1.5243,1.541,1.541,1.541,1.541,1.541,1.541,1.541,1.541,1.5596,1.5671,1.572,1.5976,1.6183,1.6353,1.6394,1.6525,1.6677,0.0,0.0,-0.7456,-0.7151,-0.6293,-0.5334,-0.4407,-0.3486,-0.2606,-0.1859,-0.1547,-0.1391,-0.1391,-0.1391,-0.1391,-0.1391,-0.1391,-0.141,-0.1403,-0.1402,-0.1402,-0.1402,-0.1402,-0.1401,-0.1402,-0.1401,-0.1127,-0.0539,0.0296,0.0966,0.1492,0.2625,0.3204,0.3312,0.4145,0.4562,0.4707,0.516,0.5362,0.5389,0.5389,0.5389,0.54,0.5451,0.5486,0.5499,0.5591,0.5624,0.5843,0.7245,0.7744,0.8018,0.946,0.9956,0.9975,0.9876,0.9826,0.9826,0.9826,0.9826,0.9826,0.9826,1.033,1.1069,1.1922,1.3,1.3936,1.4418,1.4445,1.4394,1.4432,1.4463,1.4444,1.4283,1.451,1.4576,1.4222,1.4418,1.4551,0.0,1.4533,1.4551,1.4461,1.4281,1.4489,0.0,0.0,0.0,0.0,1.5931,1.6336,1.7188,1.6634,1.6182,1.5877,1.5775,1.5581,1.5272,1.5352,1.541,1.541,1.541,1.541,1.541,1.541,1.541,1.541,1.5444,1.5465,1.5486,1.5699,1.5824,1.592,1.627,1.6435,1.6497,-0.8225,-0.8021,-0.7831,-0.7709,-0.7035,-0.6166,-0.5092,-0.4135,-0.3199,-0.2218,-0.1681,-0.1391,-0.1391,-0.1391,-0.1391,-0.1391,-0.1391,-0.1391,-0.1391,-0.1391,-0.1391,-0.1391,-0.1398,-0.1396,-0.139,-0.1397,-0.1212,-0.0793,0.0196,0.0888,0.1278,0.2533,0.3316,0.3686,0.4197,0.4666,0.5072,0.5347,0.5483,0.5537,0.5537,0.5537,0.5542,0.5586,0.5588,0.5599,0.5664,0.5688,0.5908,0.7331,0.7812,0.8053,0.9528,0.9994,0.9994,0.9994,0.9994,0.9994,0.9994,0.9994,0.9994,0.9994,1.0977,1.2033,1.2358,1.3455,1.4529,1.4839,1.4787,1.4684,1.4684,1.4646,1.4562,1.4411,1.4603,1.4661,1.4403,1.4616,1.4757,1.469,1.4746,1.4757,1.469,1.4485,1.472,1.5546,0.0,0.0,1.6103,1.5993,1.6007,1.6175,1.5971,1.5772,1.5541,1.5701,1.5651,1.541,1.541,1.541,1.541,1.541,1.541,1.541,1.541,1.541,1.541,1.541,1.541,1.541,1.552,1.5616,1.5733,1.5982,1.6154,1.6286,-0.859,-0.8384,-0.8135,-0.794,-0.7683,-0.7083,-0.5874,-0.4892,-0.3955,-0.3023,-0.2017,-0.1391,-0.1391,-0.1391,-0.1391,-0.1391,-0.1391,-0.1391,-0.1391,-0.1391,-0.1391,-0.1391,-0.1391,-0.1391,-0.1391,-0.1391,-0.1345,-0.1256,0.0067,0.0762,0.0897,0.2267,0.3265,0.3923,0.4075,0.4574,0.5337,0.547,0.5594,0.5688,0.5688,0.5688,0.5688,0.5688,0.5688,0.5688,0.5688,0.5688,0.5908,0.7331,0.7812,0.8053,0.9528,0.9994,0.9994,0.9994,0.9994,0.9994,0.9994,0.9994,0.9994,0.9994,1.1359,1.2696,1.2696,1.4097,1.541,1.541,1.517,1.4973,1.4973,1.4794,1.4616,1.4565,1.4675,1.4751,1.4687,0.0,1.4979,1.4968,1.4979,1.4979,1.4968,1.4801,1.5014,1.5795,1.579,1.6015,0.0,1.6346,1.5686,1.4658,1.4854,1.4973,1.4973,1.525,1.541,1.541,1.541,1.541,1.541,1.541,1.541,1.541,1.541,1.541,1.541,1.541,1.541,1.541,1.541,1.5499,1.5658,1.5692,1.5844,1.6046,-0.859,-0.8384,-0.8135,-0.794,-0.7683,-0.7083,-0.5874,-0.4892,-0.3955,-0.3023,-0.2017,-0.1391,-0.1391,-0.1391,-0.1391,-0.1391,-0.1391,-0.1391,-0.1391,-0.1391,-0.1391,-0.1391,-0.1391,-0.1391,-0.1391,-0.1391,-0.1121,-0.0561,0.0291,0.1009,0.1637,0.2491,0.2959,0.3126,0.3924,0.4344,0.4545,0.5326,0.5672,0.5688,0.5688,0.5688,0.5688,0.5688,0.5688,0.5688,0.5688,0.5688,0.5908,0.7331,0.7812,0.8053,0.9528,0.9994,0.9994,0.9994,0.9994,0.9994,0.9994,0.9994,0.9994,0.9994,1.1359,1.2696,1.2696,1.4097,1.541,1.541,1.5366,1.5309,1.5309,1.5293,1.5169,1.4871,1.4993,1.4976,1.458,0.0,1.4948,1.4769,1.4898,1.4929,1.4769,1.4718,1.4711,1.475,1.4944,1.51,1.5213,1.5433,1.5452,1.5264,1.5307,1.5309,1.5309,1.536,1.541,1.541,1.541,1.541,1.541,1.541,1.541,1.541,1.541,1.541,1.541,1.541,1.541,1.541,1.541,1.5431,1.5465,1.5637,1.5733,1.5782,-0.859,-0.8384,-0.8135,-0.794,-0.7683,-0.6925,-0.5203,-0.4579,-0.3777,-0.2285,-0.1681,-0.1391,-0.1391,-0.1391,-0.1391,-0.1391,-0.1391,-0.1391,-0.1391,-0.1391,-0.1391,-0.1391,-0.1391,-0.1391,-0.1391,-0.1391,-0.1256,-0.0942,0.0157,0.0874,0.1233,0.2379,0.303,0.3297,0.3987,0.4431,0.4721,0.5419,0.5688,0.5688,0.5688,0.5688,0.5688,0.5688,0.5688,0.5688,0.5688,0.5688,0.5908,0.7331,0.7812,0.8053,0.9528,0.9994,0.9994,0.9994,0.9994,0.9994,0.9994,0.9994,0.9994,0.9994,1.1359,1.2696,1.2696,1.4097,1.541,1.541,1.541,1.541,1.541,1.541,1.5359,1.5192,1.5258,0.0,0.0,1.5118,1.5179,1.5085,1.5159,1.5179,1.5085,1.5085,1.5045,1.4984,1.5103,1.5163,1.5163,1.5329,1.541,1.541,1.541,1.541,1.541,1.541,1.541,1.541,1.541,1.541,1.541,1.541,1.541,1.541,1.541,1.541,1.541,1.541,1.541,1.541,1.541,1.541,1.541,1.5499,1.5541,1.5561,-0.859,-0.8428,-0.8204,-0.7944,-0.7724,-0.6922,-0.4937,-0.4445,-0.3688,-0.1972,-0.1547,-0.1391,-0.1391,-0.1391,-0.1391,-0.1391,-0.1391,-0.1391,-0.1391,-0.1391,-0.1391,-0.1391,-0.1391,-0.1391,-0.1391,-0.1391,-0.1391,-0.1391,0.0,0.0695,0.074,0.2199,0.3097,0.3454,0.4032,0.4498,0.4877,0.5463,0.5688,0.5688,0.5688,0.5688,0.5688,0.5688,0.5688,0.5688,0.5688,0.5688,0.5908,0.7331,0.7812,0.8053,0.9528,0.9994,0.9994,0.9994,0.9994,0.9994,0.9994,0.9994,0.9994,0.9994,1.1209,1.2382,1.2382,1.3795,1.5103,1.5103,1.5257,1.541,1.541,1.541,1.541,1.541,0.0,0.0,0.0,1.541,1.541,1.541,1.541,1.541,1.541,1.541,1.541,1.541,1.541,1.541,1.541,1.541,1.541,1.541,1.541,1.541,1.541,1.541,1.541,1.541,1.541,1.541,1.541,1.541,1.541,1.541,1.541,1.541,1.541,1.541,1.541,1.541,1.541,1.541,1.541,1.541,1.541,1.541,-0.859,-0.859,-0.8432,-0.7988,-0.7874,-0.7367,-0.583,-0.487,-0.3933,-0.2911,-0.1973,-0.1391,-0.1391,-0.1391,-0.1391,-0.1391,-0.1391,-0.1391,-0.1391,-0.1391,-0.1391,-0.1391,-0.1391,-0.1391,-0.1391,-0.1391,-0.1391,-0.1391,0.0,0.0695,0.074,0.2199,0.292,0.2985,0.39,0.4322,0.4411,0.5307,0.5688,0.5688,0.5688,0.5688,0.5688,0.5688,0.5688,0.5688,0.5688,0.5688,0.5908,0.7331,0.7812,0.8053,0.9528,0.9994,0.9994,0.9994,0.9994,0.9994,0.9994,0.9994,0.9994,0.9994,1.0701,1.1408,1.1408,1.2857,1.4202,1.4202,1.4845,1.541,1.541,1.541,1.541,1.541,0.0,0.0,1.541,1.541,1.541,1.541,1.541,1.541,1.541,1.541,1.541,1.541,1.541,1.541,1.541,1.541,1.541,1.541,1.541,1.541,1.541,1.541,1.541,1.541,1.541,1.541,1.541,1.541,1.541,1.541,1.541,1.541,1.541,1.541,1.541,1.541,1.541,1.541,1.541,1.541,1.541,1.541,-0.859,-0.8472,-0.8248,-0.7944,-0.7768,-0.701,-0.5114,-0.4534,-0.3732,-0.2173,-0.1637,-0.1391,-0.1391,-0.1391,-0.1391,-0.1391,-0.1391,-0.1391,-0.1391,-0.1391,-0.1391,-0.1391,-0.1391,-0.1391,-0.1391,-0.1391,-0.1391,-0.1391,-0.0448,0.0247,0.0718,0.1749,0.2469,0.2941,0.3877,0.43,0.4366,0.5307,0.5688,0.5688,0.5688,0.5688,0.5688,0.5688,0.5688,0.5688,0.5688,0.5688,0.5841,0.6849,0.746,0.7987,0.8999,0.9641,0.9994,0.9994,0.9994,0.9994,0.9994,0.9994,0.9994,0.9994,1.0663,1.1305,1.1305,1.275,1.4097,1.4097,1.4783,1.541,1.541,1.541,1.541,1.541,0.0,1.541,1.541,1.541,1.541,1.541,1.541,1.541,1.541,1.541,1.541,1.541,1.541,1.541,1.541,1.541,1.541,1.541,1.541,1.541,1.541,1.541,1.541,1.541,1.541,1.541,1.541,1.541,1.541,1.541,1.541,1.541,1.541,1.541,1.541,1.541,1.541,1.541,1.541,1.541,1.541,1.541,-0.859,-0.845,-0.8226,-0.7944,-0.7746,-0.6874,-0.4645,-0.4312,-0.3599,-0.1658,-0.1391,-0.1391,-0.1391,-0.1391,-0.1391,-0.1391,-0.1391,-0.1391,-0.1391,-0.1391,-0.1391,-0.1391,-0.1391,-0.1391,-0.1391,-0.1391,-0.1391,-0.1391,-0.0718,-0.0022,0.0718,0.1458,0.2199,0.2942,0.3721,0.4166,0.4344,0.5149,0.5574,0.5688,0.5688,0.5688,0.5688,0.5688,0.5688,0.5688,0.5688,0.5688,0.5822,0.6561,0.7239,0.7921,0.8671,0.9397,0.9994,0.9994,0.9994,0.9994,0.9994,0.9994,0.9994,0.9994,1.0446,1.0895,1.0895,1.2089,1.3224,1.3224,1.4167,1.4978,1.4978,1.5215,1.541,1.541,1.541,1.541,1.541,1.541,1.541,1.541,1.541,1.541,1.541,1.541,1.541,1.541,1.541,1.541,1.541,1.541,1.541,1.541,1.541,1.541,1.541,1.541,1.541,1.541,1.541,1.541,1.541,1.541,1.541,1.541,1.541,1.541,1.541,1.541,1.541,1.541,1.541,1.541,1.541,1.541,1.541,1.541,-0.859,-0.859,-0.8454,-0.7988,-0.79,-0.7073,-0.4668,-0.4289,-0.3599,-0.1658,-0.1391,-0.1391,-0.1391,-0.1391,-0.1391,-0.1391,-0.1391,-0.1391,-0.1391,-0.1391,-0.1391,-0.1391,-0.1391,-0.1391,-0.1391,-0.1391,-0.1391,-0.1391,-0.074,-0.0022,0.0718,0.1436,0.2176,0.292,0.3387,0.3853,0.4322,0.481,0.528,0.5688,0.5688,0.5688,0.5688,0.5688,0.5688,0.5688,0.5688,0.5688,0.5822,0.6539,0.7239,0.7921,0.8671,0.9419,0.9994,0.9994,0.9994,0.9994,0.9994,0.9994,0.9994,0.9994,0.9994,0.9994,0.9994,1.0679,1.1305,1.1305,1.2793,1.4097,1.4097,1.4803,1.5389,1.541,1.541,1.541,1.541,1.541,1.541,1.541,1.541,1.541,1.541,1.541,1.541,1.541,1.541,1.541,1.541,1.541,1.541,1.541,1.541,1.541,1.541,1.541,1.541,1.541,1.541,1.541,1.541,1.541,1.541,1.541,1.541,1.541,1.541,1.541,1.541,1.541,1.541,1.541,1.541,1.541,1.541,1.541,-0.859,-0.859,-0.8498,-0.816,-0.7419,-0.6331,-0.4759,-0.3823,-0.2865,-0.1569,-0.1391,-0.1391,-0.1391,-0.1391,-0.1391,-0.1391,-0.1391,-0.1391,-0.1391,-0.1391,-0.1391,-0.1391,-0.1391,-0.1391,-0.1391,-0.1391,-0.1391,-0.1391,-0.1211,-0.074,-0.0045,0.0673,0.1413,0.2176,0.3162,0.3853,0.4322,0.481,0.528,0.5688,0.5688,0.5688,0.5688,0.5688,0.5688,0.5688,0.5688,0.5688,0.5733,0.5952,0.6827,0.8009,0.9266,0.9816,0.9994,0.9994,0.9994,0.9994,0.9994,0.9994,0.9994,0.9994,0.9994,0.9994,0.9994,1.0679,1.1305,1.1305,1.2281,1.3317,1.3985,1.4307,1.4699,1.5298,1.541,1.541,1.541,1.541,1.541,1.541,1.541,1.541,1.541,1.541,1.541,1.541,1.541,1.541,1.541,1.541,1.541,1.541,1.541,1.541,1.541,1.541,1.541,1.541,1.541,1.541,1.541,1.541,1.541,1.541,1.541,1.541,1.541,1.541,1.541,1.541,1.541,1.541,1.541,1.541,1.541,1.541,-0.859,-0.859,-0.852,-0.8245,-0.7195,-0.5996,-0.4781,-0.3624,-0.2531,-0.1524,-0.1391,-0.1391,-0.1391,-0.1391,-0.1391,-0.1391,-0.1391,-0.1391,-0.1391,-0.1391,-0.1391,-0.1391,-0.1391,-0.1391,-0.1391,-0.1391,-0.1391,-0.1391,-0.1391,-0.0897,0.0045,0.0493,0.1256,0.2267,0.3006,0.3676,0.4322,0.461,0.5102,0.5688,0.5688,0.5688,0.5688,0.5688,0.5688,0.5688,0.5688,0.5688,0.5688,0.5688,0.6631,0.8053,0.9528,0.9994,0.9994,0.9994,0.9994,0.9994,0.9994,0.9994,0.9994,0.9994,0.9994,0.9994,0.9994,1.0402,1.0787,1.0787,1.151,1.2318,1.2884,1.3303,1.3837,1.4741,1.4894,1.4999,1.534,1.541,1.541,1.541,1.541,1.541,1.541,1.541,1.541,1.541,1.541,1.541,1.541,1.541,1.541,1.541,1.541,1.541,1.541,1.541,1.541,1.541,1.541,1.541,1.541,1.541,1.541,1.541,1.541,1.541,1.541,1.541,1.541,1.541,1.541,1.541,1.541,1.541,1.541,1.541,-0.859,-0.859,-0.852,-0.8266,-0.7217,-0.5996,-0.4823,-0.3647,-0.2531,-0.1524,-0.1391,-0.1391,-0.1391,-0.1391,-0.1391,-0.1391,-0.1391,-0.1391,-0.1391,-0.1391,-0.1391,-0.1391,-0.1391,-0.1391,-0.1391,-0.1391,-0.1391,-0.1391,-0.1391,-0.0718,0.0605,0.0673,0.1458,0.2806,0.2873,0.3387,0.4233,0.4277,0.4815,0.5644,0.5688,0.5688,0.5688,0.5688,0.5688,0.5688,0.5688,0.5688,0.571,0.5777,0.6697,0.8053,0.9462,0.9951,0.9994,0.9994,0.9994,0.9994,0.9994,0.9994,0.9994,0.9994,0.9994,0.9994,0.9994,0.9994,0.9994,0.9994,1.0641,1.1219,1.1278,1.1997,1.2887,1.3816,1.3971,1.4286,1.5173,1.5277,1.5305,1.5389,1.541,1.541,1.541,1.541,1.541,1.541,1.541,1.541,1.541,1.541,1.541,1.541,1.541,1.541,1.541,1.541,1.541,1.541,1.541,1.541,1.541,1.541,1.541,1.541,1.541,1.541,1.541,1.541,1.541,1.541,1.541,1.541,1.541,1.541,1.541,1.541,-0.859,-0.859,-0.859,-0.852,-0.7331,-0.606,-0.5065,-0.3757,-0.2531,-0.1524,-0.1391,-0.1391,-0.1391,-0.1391,-0.1391,-0.1391,-0.1391,-0.1391,-0.1391,-0.1391,-0.1391,-0.1391,-0.1391,-0.1391,-0.1391,-0.1391,-0.1391,-0.1391,-0.1391,-0.0964,-0.0157,0.0426,0.1188,0.2064,0.2649,0.3208,0.3788,0.4143,0.4632,0.5191,0.5552,0.5688,0.5688,0.5688,0.5688,0.5688,0.5688,0.5688,0.5799,0.6365,0.711,0.7965,0.8846,0.9528,0.9994,0.9994,0.9994,0.9994,0.9994,0.9994,0.9994,0.9994,0.9994,0.9994,0.9994,0.9994,0.9994,0.9994,1.0142,1.0489,1.1176,1.1472,1.1918,1.2851,1.2993,1.3317,1.4244,1.4377,1.4636,1.5319,1.541,1.541,1.541,1.541,1.541,1.541,1.541,1.541,1.541,1.541,1.541,1.541,1.541,1.541,1.541,1.541,1.541,1.541,1.541,1.541,1.541,1.541,1.541,1.541,1.541,1.541,1.541,1.541,1.541,1.541,1.541,1.541,1.541,1.541,1.541,1.541,-0.859,-0.859,-0.859,-0.859,-0.7375,-0.6082,-0.5151,-0.3801,-0.2531,-0.1524,-0.1391,-0.1391,-0.1391,-0.1391,-0.1391,-0.1391,-0.1391,-0.1391,-0.1391,-0.1391,-0.1391,-0.1391,-0.1391,-0.1391,-0.1391,-0.1391,-0.1391,-0.1391,-0.1391,-0.1054,-0.0381,0.0359,0.1099,0.1839,0.2581,0.3163,0.3631,0.4099,0.4565,0.5033,0.5508,0.5688,0.5688,0.5688,0.5688,0.5688,0.5688,0.5688,0.5822,0.6561,0.7239,0.7921,0.8671,0.9397,0.9994,0.9994,0.9994,0.9994,0.9994,0.9994,0.9994,0.9994,0.9994,0.9994,0.9994,0.9994,0.9994,0.9994,0.9994,1.0147,1.0598,1.0679,1.0982,1.1875,1.2019,1.2361,1.3296,1.343,1.3774,1.4678,1.4783,1.4936,1.5368,1.541,1.541,1.541,1.541,1.541,1.541,1.541,1.541,1.541,1.541,1.541,1.541,1.541,1.541,1.541,1.541,1.541,1.541,1.541,1.541,1.541,1.541,1.541,1.541,1.541,1.541,1.541,1.541,1.541,1.541,1.541,1.541,1.541,-0.859,-0.859,-0.859,-0.859,-0.7445,-0.6173,-0.5151,-0.3866,-0.2621,-0.1547,-0.1391,-0.1391,-0.1391,-0.1391,-0.1391,-0.1391,-0.1391,-0.1391,-0.1391,-0.1391,-0.1391,-0.1391,-0.1391,-0.1391,-0.1391,-0.1391,-0.1391,-0.1391,-0.1391,-0.1054,-0.0381,0.0359,0.1099,0.1839,0.2581,0.312,0.352,0.3989,0.4411,0.481,0.5349,0.5574,0.5597,0.5666,0.5688,0.5688,0.5688,0.5688,0.5797,0.6409,0.7132,0.79,0.8514,0.931,0.9994,0.9994,0.9994,0.9994,0.9994,0.9994,0.9994,0.9994,0.9994,0.9994,0.9994,0.9994,0.9994,0.9994,0.9994,0.9994,0.9994,0.9994,1.0234,1.096,1.109,1.1408,1.2339,1.2467,1.2808,1.3753,1.3992,1.4377,1.511,1.5305,1.541,1.541,1.541,1.541,1.541,1.541,1.541,1.541,1.541,1.541,1.541,1.541,1.541,1.541,1.541,1.541,1.541,1.541,1.541,1.541,1.541,1.541,1.541,1.541,1.541,1.541,1.541,1.541,1.541,1.541,1.541,1.541,-0.859,-0.859,-0.859,-0.859,-0.7716,-0.6558,-0.5198,-0.4156,-0.2999,-0.1592,-0.1391,-0.1391,-0.1391,-0.1391,-0.1391,-0.1391,-0.1391,-0.1391,-0.1391,-0.1391,-0.1391,-0.1391,-0.1391,-0.1391,-0.1391,-0.1391,-0.1391,-0.1391,-0.1391,-0.1054,-0.0381,0.0359,0.1099,0.1839,0.2581,0.2941,0.303,0.3497,0.3721,0.3875,0.4746,0.5099,0.5144,0.5552,0.5688,0.5688,0.5688,0.5688,0.571,0.5822,0.6716,0.7812,0.7921,0.889,0.9994,0.9994,0.9994,0.9994,0.9994,0.9994,0.9994,0.9994,0.9994,0.9994,0.9994,0.9994,0.9994,0.9994,0.9994,0.9994,0.9994,0.9994,1.0038,1.0168,1.019,1.0489,1.1365,1.1494,1.1832,1.2781,1.3599,1.4139,1.4265,1.4957,1.541,1.541,1.541,1.541,1.541,1.541,1.541,1.541,1.541,1.541,1.541,1.541,1.541,1.541,1.541,1.541,1.541,1.541,1.541,1.541,1.541,1.541,1.541,1.541,1.541,1.541,1.541,1.541,1.541,1.541,1.541,1.541,-0.859,-0.859,-0.859,-0.859,-0.7764,-0.6628,-0.522,-0.42,-0.3066,-0.1592,-0.1391,-0.1391,-0.1391,-0.1391,-0.1391,-0.1391,-0.1391,-0.1391,-0.1391,-0.1391,-0.1391,-0.1391,-0.1391,-0.1391,-0.1391,-0.1391,-0.1391,-0.1391,-0.1391,-0.1054,-0.0381,0.0359,0.1099,0.1839,0.2581,0.2897,0.2942,0.3409,0.3743,0.4054,0.4721,0.5169,0.5416,0.5621,0.5688,0.5688,0.5688,0.5688,0.5688,0.5688,0.6631,0.7812,0.7812,0.8803,0.9994,0.9994,0.9994,0.9994,0.9994,0.9994,0.9994,0.9994,0.9994,0.9994,0.9994,0.9994,0.9994,0.9994,0.9994,0.9994,0.9994,0.9994,0.9994,0.9994,0.9994,1.0125,1.0511,1.0571,1.0917,1.181,1.2744,1.3317,1.3317,1.4139,1.4678,1.4678,1.5124,1.541,1.541,1.541,1.541,1.541,1.541,1.541,1.541,1.541,1.541,1.541,1.541,1.541,1.541,1.541,1.541,1.541,1.541,1.541,1.541,1.541,1.541,1.541,1.541,1.541,1.541,1.541,1.5519,1.568]},{"header":{"parameterUnit":"m.s-1","parameterCategory":1,"la1":30.6,"la2":28.766,"lo1":-90.7593,"lo2":-88.6598,"dx":0.0162,"dy":0.0183,"nx":116,"ny":114,"refTime":"2023-01-22T18:00:00:Z","depth":0,"parameterNumber":3,"parameterNumberName":"V-component_of_WINDS"},"data":[0.0,0.0,0.0,0.0,0.0,0.0,0.0,0.0,0.0,0.0,0.0,0.0,0.0,0.0,0.0,0.0,0.0,0.0,0.0,0.0,0.0,0.0,0.0,0.0,0.0,0.0,0.0,0.0,0.0,0.0,0.0,0.0,0.0,0.0,0.0,0.0,0.0,0.0,0.0,0.0,0.0,0.0,0.0,0.0,0.0,0.0,0.0,0.0,0.0,0.0,0.0,0.0,0.0,0.0,0.0,0.0,0.0,0.0,0.0,0.0,0.0,0.0,0.0,0.0,0.0,0.0,0.0,0.0,0.0,0.0,0.0,0.0,0.0,0.0,0.0,0.0,0.0,0.0,0.0,0.0,0.0,0.0,0.0,0.0,0.0,0.0,0.0,0.0,0.0,0.0,0.0,0.0,0.0,0.0,0.0,0.0,0.0,0.0,0.0,0.0,0.0,0.0,0.0,0.0,0.0,0.0,0.0,0.0,0.0,0.0,0.0,0.0,0.0,0.0,0.0,0.0,0.0,0.0,0.0,0.0,0.0,0.0,0.0,0.0,0.0,0.0,0.0,0.0,0.0,0.0,0.0,0.0,0.0,0.0,0.0,0.0,0.0,0.0,0.0,0.0,0.0,0.0,0.0,0.0,0.0,0.0,0.0,0.0,0.0,0.0,0.0,0.0,0.0,0.0,0.0,0.0,0.0,0.0,0.0,0.0,0.0,0.0,0.0,0.0,0.0,0.0,0.0,0.0,0.0,0.0,0.0,0.0,0.0,0.0,0.0,0.0,0.0,0.0,0.0,0.0,0.0,0.0,0.0,0.0,0.0,0.0,0.0,0.0,0.0,0.0,0.0,0.0,0.0,0.0,0.0,0.0,0.0,0.0,0.0,0.0,0.0,0.0,0.0,0.0,0.0,0.0,0.0,0.0,0.0,0.0,0.0,0.0,0.0,0.0,0.0,0.0,0.0,0.0,0.0,0.0,0.0,0.0,0.0,0.0,0.0,0.0,0.0,0.0,0.0,0.0,0.0,0.0,0.0,0.0,0.0,0.0,0.0,0.0,0.0,0.0,0.0,0.0,0.0,0.0,0.0,0.0,0.0,0.0,0.0,0.0,0.0,0.0,0.0,0.0,0.0,0.0,0.0,0.0,0.0,0.0,0.0,0.0,0.0,0.0,0.0,0.0,0.0,0.0,0.0,0.0,0.0,0.0,0.0,0.0,0.0,0.0,0.0,0.0,0.0,0.0,0.0,0.0,0.0,0.0,0.0,0.0,0.0,0.0,0.0,0.0,0.0,0.0,0.0,0.0,0.0,0.0,0.0,0.0,0.0,0.0,0.0,0.0,0.0,0.0,0.0,0.0,0.0,0.0,0.0,0.0,0.0,0.0,0.0,0.0,0.0,0.0,0.0,0.0,0.0,0.0,0.0,0.0,0.0,0.0,0.0,0.0,0.0,0.0,0.0,0.0,0.0,0.0,0.0,0.0,0.0,0.0,0.0,0.0,0.0,0.0,0.0,0.0,0.0,0.0,0.0,0.0,0.0,0.0,0.0,0.0,0.0,0.0,0.0,0.0,0.0,0.0,0.0,0.0,0.0,0.0,0.0,0.0,0.0,0.0,0.0,0.0,0.0,0.0,0.0,0.0,0.0,0.0,0.0,0.0,0.0,0.0,0.0,0.0,0.0,0.0,0.0,0.0,0.0,0.0,0.0,0.0,0.0,0.0,0.0,0.0,0.0,0.0,0.0,0.0,0.0,0.0,0.0,0.0,0.0,0.0,0.0,0.0,0.0,0.0,0.0,0.0,0.0,0.0,0.0,0.0,0.0,0.0,0.0,0.0,0.0,0.0,0.0,0.0,0.0,0.0,0.0,0.0,0.0,0.0,0.0,0.0,0.0,0.0,0.0,0.0,0.0,0.0,0.0,0.0,0.0,0.0,0.0,0.0,0.0,0.0,0.0,0.0,0.0,0.0,0.0,0.0,0.0,0.0,0.0,0.0,0.0,0.0,0.0,0.0,0.0,0.0,0.0,0.0,0.0,0.0,0.0,0.0,0.0,0.0,0.0,0.0,0.0,0.0,0.0,0.0,0.0,0.0,0.0,0.0,0.0,0.0,0.0,0.0,0.0,0.0,0.0,0.0,0.0,0.0,0.0,0.0,0.0,0.0,0.0,0.0,0.0,0.0,0.0,0.0,0.0,0.0,0.0,0.0,0.0,0.0,0.0,0.0,0.0,0.0,0.0,0.0,0.0,0.0,0.0,0.0,0.0,0.0,0.0,0.0,0.0,0.0,0.0,0.0,0.0,0.0,0.0,0.0,0.0,0.0,0.0,0.0,0.0,0.0,0.0,0.0,0.0,0.0,0.0,0.0,0.0,0.0,0.0,0.0,0.0,0.0,0.0,0.0,0.0,0.0,0.0,0.0,0.0,0.0,0.0,0.0,0.0,0.0,0.0,0.0,0.0,0.0,0.0,0.0,0.0,0.0,0.0,0.0,0.0,0.0,0.0,0.0,0.0,0.0,0.0,0.0,0.0,0.0,0.0,0.0,0.0,0.0,0.0,0.0,0.0,0.0,0.0,0.0,0.0,0.0,0.0,0.0,0.0,0.0,0.0,0.0,0.0,0.0,0.0,0.0,0.0,0.0,0.0,0.0,0.0,0.0,0.0,0.0,0.0,0.0,0.0,0.0,0.0,0.0,0.0,0.0,0.0,0.0,0.0,0.0,0.0,0.0,0.0,0.0,0.0,0.0,0.0,0.0,0.0,0.0,0.0,0.0,0.0,0.0,0.0,0.0,0.0,0.0,0.0,0.0,0.0,0.0,0.0,0.0,0.0,0.0,0.0,0.0,0.0,0.0,0.0,0.0,0.0,0.0,0.0,0.0,0.0,0.0,0.0,0.0,0.0,0.0,0.0,0.0,0.0,0.0,0.0,0.0,0.0,0.0,0.0,0.0,0.0,0.0,0.0,0.0,0.0,0.0,0.0,0.0,0.0,0.0,0.0,0.0,0.0,0.0,0.0,0.0,0.0,0.0,0.0,0.0,0.0,0.0,0.0,0.0,0.0,0.0,0.0,0.0,0.0,0.0,0.0,0.0,0.0,0.0,0.0,0.0,0.0,0.0,0.0,0.0,0.0,0.0,0.0,0.0,0.0,0.0,0.0,0.0,0.0,0.0,0.0,0.0,0.0,0.0,0.0,0.0,0.0,0.0,0.0,0.0,0.0,0.0,0.0,0.0,0.0,0.0,0.0,0.0,0.0,0.0,0.0,0.0,0.0,0.0,0.0,0.0,0.0,0.0,0.0,0.0,0.0,0.0,0.0,0.0,0.0,0.0,0.0,0.0,0.0,0.0,0.0,0.0,0.0,0.0,0.0,0.0,0.0,0.0,0.0,0.0,0.0,0.0,0.0,0.0,0.0,0.0,0.0,0.0,0.0,0.0,0.0,0.0,0.0,0.0,0.0,0.0,0.0,0.0,0.0,0.0,0.0,0.0,0.0,0.0,0.0,0.0,0.0,0.0,0.0,0.0,0.0,0.0,0.0,0.0,0.0,0.0,0.0,0.0,0.0,0.0,0.0,0.0,0.0,0.0,0.0,0.0,0.0,0.0,0.0,0.0,0.0,0.0,0.0,0.0,0.0,0.0,0.0,0.0,0.0,0.0,0.0,0.0,0.0,0.0,0.0,0.0,0.0,0.0,0.0,0.0,0.0,0.0,0.0,0.0,0.0,0.0,0.0,0.0,0.0,0.0,0.0,0.0,0.0,0.0,0.0,0.0,0.0,0.0,0.0,0.0,0.0,0.0,0.0,0.0,0.0,0.0,0.0,0.0,0.0,0.0,0.0,0.0,0.0,0.0,0.0,0.0,0.0,0.0,0.0,0.0,0.0,0.0,0.0,0.0,0.0,0.0,0.0,0.0,0.0,0.0,0.0,0.0,0.0,0.0,0.0,0.0,0.0,0.0,0.0,0.0,0.0,0.0,0.0,0.0,0.0,0.0,0.0,0.0,0.0,0.0,0.0,0.0,0.0,0.0,0.0,0.0,0.0,0.0,0.0,0.0,0.0,0.0,0.0,0.0,0.0,0.0,0.0,0.0,0.0,0.0,0.0,0.0,0.0,0.0,0.0,0.0,0.0,0.0,0.0,0.0,0.0,0.0,0.0,0.0,0.0,0.0,0.0,0.0,0.0,0.0,0.0,0.0,0.0,0.0,0.0,0.0,0.0,0.0,0.0,0.0,0.0,0.0,0.0,0.0,0.0,0.0,0.0,0.0,0.0,0.0,0.0,0.0,0.0,0.0,0.0,0.0,0.0,0.0,0.0,0.0,0.0,0.0,0.0,0.0,0.0,0.0,0.0,0.0,0.0,0.0,0.0,0.0,0.0,0.0,0.0,0.0,0.0,0.0,0.0,0.0,0.0,0.0,0.0,0.0,0.0,0.0,0.0,0.0,0.0,0.0,0.0,0.0,0.0,0.0,0.0,0.0,0.0,0.0,0.0,0.0,0.0,0.0,0.0,0.0,0.0,0.0,0.0,0.0,0.0,0.0,0.0,0.0,0.0,0.0,0.0,0.0,0.0,0.0,0.0,0.0,0.0,0.0,0.0,0.0,0.0,0.0,0.0,0.0,0.0,0.0,0.0,0.0,0.0,0.0,0.0,0.0,0.0,0.0,0.0,0.0,0.0,0.0,0.0,0.0,0.0,0.0,0.0,0.0,0.0,0.0,0.0,0.0,0.0,0.0,0.0,0.0,0.0,0.0,0.0,0.0,0.0,0.0,0.0,0.0,0.0,0.0,0.0,0.0,0.0,0.0,0.0,0.0,0.0,0.0,0.0,0.0,0.0,0.0,0.0,0.0,0.0,0.0,0.0,0.0,0.0,0.0,0.0,0.0,0.0,0.0,0.0,0.0,0.0,0.0,0.0,0.0,0.0,0.0,0.0,0.0,0.0,0.0,0.0,0.0,0.0,0.0,0.0,0.0,0.0,0.0,0.0,0.0,0.0,0.0,0.0,0.0,0.0,0.0,0.0,0.0,0.0,0.0,0.0,0.0,0.0,0.0,0.0,0.0,0.0,0.0,0.0,0.0,0.0,0.0,0.0,0.0,0.0,0.0,0.0,0.0,0.0,0.0,0.0,0.0,0.0,0.0,0.0,0.0,0.0,0.0,0.0,0.0,0.0,0.0,0.0,0.0,0.0,0.0,0.0,0.0,0.0,0.0,0.0,0.0,0.0,0.0,0.0,0.0,0.0,0.0,0.0,0.0,0.0,0.0,0.0,0.0,0.0,0.0,0.0,0.0,0.0,0.0,0.0,0.0,0.0,0.0,0.0,0.0,0.0,0.0,0.0,0.0,0.0,0.0,0.0,0.0,0.0,0.0,0.0,0.0,0.0,0.0,0.0,0.0,0.0,0.0,0.0,0.0,0.0,0.0,0.0,0.0,0.0,0.0,0.0,0.0,0.0,0.0,0.0,0.0,0.0,0.0,0.0,0.0,0.0,0.0,0.0,0.0,0.0,0.0,0.0,0.0,0.0,0.0,0.0,0.0,0.0,0.0,0.0,0.0,0.0,0.0,0.0,0.0,0.0,0.0,0.0,0.0,0.0,0.0,0.0,0.0,0.0,0.0,0.0,0.0,0.0,0.0,0.0,0.0,0.0,0.0,0.0,0.0,0.0,0.0,0.0,0.0,0.0,0.0,0.0,0.0,0.0,0.0,0.0,0.0,0.0,0.0,0.0,0.0,0.0,0.0,0.0,0.0,0.0,0.0,0.0,0.0,0.0,0.0,0.0,0.0,0.0,0.0,0.0,0.0,0.0,0.0,0.0,0.0,0.0,0.0,0.0,0.0,0.0,0.0,0.0,0.0,0.0,0.0,0.0,0.0,0.0,0.0,0.0,0.0,0.0,0.0,0.0,0.0,0.0,0.0,0.0,0.0,0.0,0.0,0.0,0.0,0.0,0.0,0.0,0.0,0.0,0.0,0.0,0.0,0.0,0.0,0.0,0.0,0.0,0.0,0.0,0.0,0.0,0.0,0.0,0.0,0.0,0.0,0.0,0.0,0.0,0.0,0.0,0.0,0.0,0.0,0.0,0.0,0.0,0.0,0.0,0.0,1.3216,0.0,0.0,0.0,0.0,0.0,0.0,0.0,0.0,0.0,0.0,0.0,0.0,0.0,0.0,0.0,0.0,0.0,0.0,0.0,0.0,0.0,0.0,0.0,0.0,0.0,0.0,0.0,0.0,0.0,0.0,0.0,0.0,0.0,0.0,0.0,0.0,0.0,0.0,0.0,0.0,0.0,2.0095,2.0196,2.0292,2.0348,0.0,0.0,0.0,0.0,0.0,0.0,0.0,0.0,0.0,0.0,0.0,0.0,0.0,0.0,0.0,0.0,0.0,0.0,0.0,0.0,0.0,0.0,0.0,0.0,0.0,0.0,0.0,0.0,0.0,0.0,0.0,0.0,0.0,0.0,0.0,0.0,0.0,0.0,0.0,0.0,0.0,0.0,0.0,0.0,0.0,0.0,0.0,0.0,0.0,0.0,0.0,0.0,0.0,0.0,0.0,0.0,0.0,0.0,0.0,0.0,0.0,0.0,0.0,0.0,0.0,0.0,0.0,0.0,0.0,0.0,0.0,1.3361,0.0,0.0,0.0,0.0,0.0,0.0,0.0,0.0,0.0,0.0,0.0,0.0,0.0,0.0,0.0,0.0,0.0,0.0,0.0,0.0,0.0,0.0,0.0,0.0,0.0,0.0,0.0,0.0,0.0,0.0,0.0,0.0,0.0,0.0,0.0,0.0,0.0,0.0,0.0,0.0,0.0,0.0,0.0,0.0,2.0429,0.0,0.0,0.0,0.0,0.0,0.0,0.0,0.0,0.0,0.0,0.0,0.0,0.0,0.0,0.0,0.0,0.0,0.0,0.0,0.0,0.0,0.0,0.0,0.0,0.0,0.0,0.0,0.0,0.0,0.0,0.0,0.0,0.0,0.0,0.0,0.0,0.0,0.0,0.0,0.0,0.0,0.0,0.0,0.0,0.0,0.0,0.0,0.0,0.0,0.0,0.0,0.0,0.0,0.0,0.0,0.0,0.0,0.0,0.0,0.0,0.0,0.0,0.0,1.4427,1.462,1.4383,1.5144,1.5468,1.5369,1.4353,1.3792,1.3614,0.0,0.0,0.0,0.0,0.0,0.0,0.0,0.0,0.0,0.0,0.0,0.0,0.0,0.0,0.0,0.0,0.0,0.0,0.0,0.0,0.0,0.0,0.0,0.0,0.0,0.0,0.0,0.0,0.0,0.0,0.0,0.0,0.0,0.0,0.0,0.0,0.0,0.0,0.0,0.0,0.0,0.0,0.0,2.0651,2.0398,0.0,0.0,0.0,0.0,0.0,0.0,0.0,0.0,0.0,0.0,0.0,0.0,0.0,0.0,0.0,0.0,0.0,0.0,0.0,0.0,0.0,0.0,0.0,0.0,0.0,0.0,0.0,0.0,0.0,0.0,0.0,0.0,0.0,0.0,0.0,0.0,0.0,0.0,0.0,0.0,0.0,0.0,1.4998,1.4509,0.0,0.0,0.0,0.0,0.0,0.0,0.0,0.0,0.0,0.0,0.0,0.0,0.0,0.0,1.4935,1.5163,1.5131,1.4875,1.5218,1.5238,1.499,1.5335,1.5374,1.5149,1.5162,0.0,1.5209,1.5227,0.0,0.0,0.0,0.0,0.0,0.0,0.0,0.0,0.0,0.0,0.0,0.0,0.0,0.0,0.0,0.0,0.0,0.0,0.0,0.0,0.0,0.0,0.0,0.0,0.0,0.0,0.0,0.0,0.0,0.0,0.0,0.0,0.0,0.0,0.0,0.0,0.0,0.0,0.0,0.0,0.0,0.0,0.0,0.0,0.0,0.0,0.0,0.0,0.0,0.0,0.0,0.0,0.0,0.0,0.0,0.0,0.0,0.0,0.0,0.0,0.0,0.0,0.0,0.0,0.0,0.0,0.0,0.0,0.0,0.0,0.0,0.0,0.0,0.0,0.0,0.0,0.0,0.0,0.0,0.0,0.0,0.0,0.0,0.0,0.0,1.6537,1.6161,1.5998,1.5703,1.5559,0.0,0.0,0.0,0.0,0.0,0.0,0.0,0.0,0.0,1.5496,1.5496,1.544,1.5336,1.544,1.544,1.5336,1.5788,1.5948,1.5841,1.6261,1.6394,1.6291,1.6374,1.6434,1.6402,1.5643,1.5345,1.5358,0.0,0.0,0.0,0.0,0.0,1.5108,0.0,0.0,0.0,0.0,0.0,0.0,0.0,0.0,0.0,0.0,0.0,0.0,0.0,0.0,0.0,0.0,0.0,0.0,0.0,0.0,0.0,0.0,0.0,0.0,0.0,0.0,0.0,0.0,0.0,0.0,0.0,0.0,0.0,0.0,0.0,0.0,0.0,0.0,0.0,0.0,0.0,0.0,0.0,0.0,0.0,0.0,0.0,0.0,0.0,0.0,0.0,0.0,0.0,0.0,0.0,0.0,0.0,0.0,0.0,0.0,0.0,0.0,0.0,0.0,0.0,0.0,0.0,0.0,0.0,0.0,0.0,0.0,0.0,0.0,0.0,0.0,0.0,1.7114,1.697,1.6927,1.644,1.6221,0.0,0.0,0.0,0.0,0.0,0.0,1.5931,1.5931,1.5931,1.5931,1.5931,1.5931,1.5931,1.5931,1.5931,1.5941,1.6398,1.6598,1.6611,1.7016,1.7199,1.7199,1.7199,1.7199,1.7123,1.6119,1.5753,1.5805,1.5805,1.5825,1.5834,1.5691,1.5603,1.5574,0.0,0.0,0.0,0.0,0.0,0.0,0.0,0.0,0.0,0.0,0.0,0.0,0.0,0.0,0.0,0.0,0.0,0.0,0.0,0.0,0.0,0.0,0.0,0.0,0.0,0.0,0.0,0.0,0.0,0.0,0.0,0.0,0.0,0.0,0.0,0.0,0.0,0.0,0.0,0.0,0.0,0.0,0.0,0.0,0.0,0.0,0.0,0.0,0.0,0.0,0.0,0.0,0.0,0.0,0.0,0.0,0.0,0.0,0.0,0.0,0.0,0.0,0.0,0.0,0.0,0.0,0.0,0.0,0.0,0.0,0.0,0.0,0.0,0.0,0.0,0.0,0.0,0.0,0.0,1.6186,1.6281,0.0,0.0,0.0,0.0,1.7107,1.7107,1.7107,1.7107,1.7107,1.7107,1.7107,1.7107,1.7107,1.7107,1.7107,1.7107,1.7107,1.7146,1.716,1.716,1.7186,1.7199,1.7199,1.7199,1.7199,1.7199,1.7123,1.7037,1.6912,1.6912,1.687,1.683,1.682,1.6725,1.6619,0.0,0.0,0.0,0.0,0.0,0.0,0.0,0.0,0.0,0.0,0.0,0.0,0.0,0.0,0.0,0.0,0.0,0.0,0.0,0.0,0.0,0.0,0.0,0.0,0.0,0.0,0.0,0.0,0.0,0.0,0.0,0.0,0.0,0.0,0.0,0.0,0.0,0.0,0.0,0.0,0.0,0.0,0.0,0.0,0.0,0.0,0.0,0.0,0.0,0.0,0.0,0.0,0.0,0.0,0.0,0.0,0.0,0.0,0.0,0.0,0.0,0.0,0.0,0.0,0.0,0.0,0.0,0.0,0.0,0.0,0.0,0.0,0.0,0.0,0.0,0.0,0.0,0.0,0.0,1.8039,1.7599,0.0,0.0,1.7246,1.7199,1.7199,1.7199,1.7199,1.7199,1.7199,1.7199,1.7199,1.7199,1.7199,1.7199,1.7199,1.7199,1.7199,1.7199,1.7199,1.7199,1.7199,1.7199,1.7199,1.7199,1.7199,1.7199,1.7199,1.7167,1.7126,1.7126,1.7065,1.696,1.6918,1.6825,1.6686,0.0,0.0,0.0,0.0,0.0,0.0,0.0,0.0,0.0,0.0,0.0,0.0,0.0,0.0,0.0,0.0,0.0,0.0,0.0,0.0,0.0,0.0,0.0,0.0,0.0,0.0,0.0,0.0,0.0,0.0,0.0,0.0,0.0,0.0,0.0,0.0,0.0,0.0,0.0,0.0,0.0,0.0,2.3569,0.0,0.0,0.0,0.0,0.0,0.0,0.0,0.0,0.0,0.0,0.0,0.0,0.0,0.0,0.0,0.0,0.0,0.0,0.0,0.0,0.0,0.0,0.0,0.0,0.0,0.0,0.0,0.0,0.0,0.0,0.0,0.0,0.0,0.0,0.0,1.9101,1.9101,1.8461,1.7968,1.7818,1.7557,1.7341,1.7209,1.7199,1.7199,1.7199,1.7199,1.7199,1.7199,1.7199,1.7199,1.7199,1.7199,1.7199,1.7199,1.7199,1.7199,1.7199,1.7199,1.7199,1.7199,1.7199,1.7199,1.7199,1.7199,1.7199,1.7199,1.7199,1.7147,1.7065,1.6971,1.6876,1.6793,0.0,0.0,0.0,0.0,0.0,0.0,0.0,0.0,0.0,0.0,0.0,0.0,0.0,0.0,0.0,0.0,0.0,0.0,0.0,0.0,0.0,0.0,0.0,0.0,0.0,0.0,0.0,0.0,0.0,0.0,0.0,0.0,0.0,0.0,0.0,0.0,0.0,0.0,0.0,0.0,0.0,0.0,2.4534,0.0,0.0,0.0,0.0,0.0,0.0,0.0,0.0,0.0,0.0,0.0,0.0,0.0,0.0,0.0,0.0,0.0,0.0,0.0,0.0,0.0,0.0,0.0,0.0,0.0,0.0,0.0,0.0,0.0,0.0,0.0,0.0,0.0,1.9836,1.9365,1.911,1.9101,1.8765,1.8334,1.7868,1.7808,1.7639,1.7251,1.7209,1.7199,1.7199,1.7199,1.7199,1.7199,1.7199,1.7199,1.7199,1.7212,1.7225,1.7225,1.7251,1.7251,1.7251,1.7251,1.7251,1.7251,1.7251,1.7251,1.7251,1.7251,1.7251,1.7251,1.7212,1.7199,1.7178,1.7055,1.7002,1.6992,0.0,0.0,0.0,0.0,0.0,0.0,0.0,0.0,0.0,0.0,0.0,0.0,0.0,0.0,0.0,0.0,0.0,0.0,0.0,0.0,0.0,0.0,0.0,0.0,0.0,0.0,0.0,0.0,0.0,0.0,0.0,0.0,0.0,0.0,0.0,0.0,0.0,0.0,0.0,0.0,0.0,0.0,2.5375,0.0,0.0,0.0,0.0,0.0,0.0,0.0,0.0,0.0,0.0,0.0,0.0,0.0,0.0,0.0,0.0,0.0,0.0,0.0,0.0,0.0,0.0,0.0,0.0,0.0,0.0,0.0,0.0,0.0,0.0,0.0,0.0,2.1055,2.0182,1.9764,1.9435,1.9129,1.9007,1.8774,1.8344,1.7998,1.776,1.7639,1.7352,1.7199,1.7199,1.7199,1.7199,1.7199,1.7199,1.7199,1.7199,1.763,1.7852,1.7852,1.8244,1.8429,1.8429,1.8429,1.8429,1.8429,1.8429,1.8429,1.8429,1.8429,1.8429,1.8349,1.7525,1.7136,1.7055,1.7013,1.6971,1.6928,0.0,0.0,0.0,0.0,0.0,0.0,0.0,0.0,0.0,0.0,0.0,0.0,0.0,0.0,0.0,0.0,0.0,0.0,0.0,0.0,0.0,0.0,0.0,0.0,0.0,0.0,0.0,0.0,0.0,0.0,0.0,0.0,0.0,0.0,0.0,0.0,0.0,0.0,0.0,0.0,0.0,0.0,2.5707,2.5707,2.5696,2.5702,2.5702,2.5703,2.5699,2.5693,0.0,0.0,0.0,0.0,0.0,0.0,0.0,0.0,0.0,0.0,0.0,0.0,0.0,0.0,0.0,0.0,0.0,0.0,0.0,0.0,0.0,0.0,0.0,0.0,2.1583,2.1299,2.0746,2.0232,1.9821,1.9588,1.9439,1.9124,1.8563,1.8246,1.7938,1.7578,1.7571,1.7578,1.7578,1.7787,1.7917,1.7917,1.7917,1.7917,1.7917,1.8257,1.844,1.844,1.8754,1.8911,1.8911,1.8911,1.8911,0.0,1.8911,1.8911,1.8911,1.8911,1.8911,0.0,0.0,0.0,0.0,0.0,1.7765,1.7732,0.0,0.0,0.0,0.0,0.0,0.0,0.0,0.0,0.0,0.0,0.0,0.0,0.0,0.0,0.0,0.0,0.0,0.0,0.0,0.0,0.0,0.0,0.0,0.0,0.0,0.0,0.0,0.0,0.0,0.0,0.0,0.0,0.0,0.0,0.0,0.0,0.0,0.0,0.0,0.0,0.0,0.0,2.5707,2.5707,2.5695,2.5702,2.5702,2.5703,2.5702,2.5701,0.0,0.0,0.0,0.0,0.0,0.0,0.0,0.0,0.0,0.0,0.0,0.0,0.0,0.0,0.0,0.0,0.0,0.0,0.0,0.0,0.0,0.0,0.0,0.0,2.1772,2.1524,2.1402,2.078,2.0311,2.0217,1.9936,1.9481,1.8802,1.871,1.8395,1.7692,1.8083,1.8346,1.828,0.0,0.0,0.0,0.0,1.8921,1.8991,1.9043,1.9104,1.9172,1.9227,1.9232,1.9175,1.9175,1.9151,1.9094,1.9094,1.9094,1.9094,1.9094,1.9094,1.9094,1.8952,1.8911,1.8911,1.8911,1.8911,0.0,0.0,0.0,0.0,0.0,0.0,0.0,0.0,0.0,0.0,0.0,0.0,0.0,0.0,0.0,0.0,0.0,0.0,0.0,0.0,0.0,0.0,0.0,0.0,0.0,0.0,0.0,0.0,0.0,0.0,0.0,0.0,0.0,0.0,0.0,0.0,0.0,0.0,0.0,0.0,0.0,0.0,0.0,2.5707,2.5707,2.5709,2.5692,2.5692,2.5693,2.5696,2.5702,2.5703,2.5682,2.5536,0.0,0.0,0.0,0.0,0.0,0.0,0.0,0.0,0.0,0.0,0.0,0.0,0.0,0.0,0.0,0.0,0.0,0.0,0.0,0.0,2.2183,2.2118,2.2012,2.1875,2.1515,2.0983,2.027,2.0139,2.0148,2.0264,1.9977,1.9945,2.0327,2.0105,1.9791,1.9417,1.9489,0.0,1.8909,1.8911,1.9116,1.9546,1.9968,2.0414,2.0832,0.0,0.0,2.0915,2.0915,2.0711,2.0346,2.0346,2.0346,2.0346,2.0346,2.0346,2.0267,1.9288,1.8911,1.8911,1.8911,1.8911,1.8911,0.0,0.0,0.0,0.0,0.0,0.0,0.0,0.0,0.0,0.0,0.0,0.0,0.0,0.0,0.0,0.0,0.0,0.0,0.0,0.0,0.0,0.0,0.0,0.0,0.0,0.0,0.0,0.0,0.0,0.0,0.0,0.0,0.0,0.0,0.0,0.0,0.0,0.0,0.0,0.0,0.0,0.0,2.565,2.5683,2.5707,2.5707,2.5707,2.5707,2.5708,2.5695,2.57,2.5683,2.5616,2.5604,2.5586,0.0,0.0,0.0,0.0,0.0,0.0,0.0,0.0,0.0,0.0,0.0,0.0,0.0,0.0,2.3022,0.0,0.0,2.2275,2.2214,2.2207,2.2296,2.2556,2.2396,2.1946,2.115,2.0867,2.0789,2.0897,2.0729,2.0644,2.0741,2.0809,2.0754,2.0515,2.0761,2.0777,2.051,2.0499,2.0787,2.1393,2.1673,2.2106,2.2699,2.2973,2.2683,2.1894,2.1894,2.1462,2.0699,2.0699,2.0699,2.0711,2.096,2.1191,2.1342,2.0743,2.0361,2.014,2.014,2.014,2.0093,0.0,0.0,0.0,0.0,0.0,0.0,0.0,0.0,0.0,0.0,0.0,0.0,0.0,0.0,0.0,0.0,0.0,0.0,0.0,0.0,0.0,0.0,0.0,0.0,0.0,0.0,0.0,0.0,0.0,0.0,0.0,0.0,0.0,0.0,0.0,0.0,0.0,0.0,0.0,0.0,0.0,0.0,2.5592,2.5643,2.5679,2.5707,2.5707,2.5707,2.5707,2.5707,2.5695,2.5701,2.5702,2.5703,2.5679,2.558,2.554,0.0,0.0,0.0,0.0,0.0,0.0,0.0,0.0,0.0,2.404,2.3647,2.3359,2.3103,2.2825,2.2552,2.2379,2.2435,2.243,2.2678,2.3333,2.334,2.3019,2.2377,2.1882,2.1534,2.1417,2.1408,2.1308,2.1037,2.148,2.1753,2.1803,2.2217,2.2461,2.2491,2.2479,2.2804,2.3445,2.3445,2.3774,2.4381,2.4381,2.3853,2.2883,2.2883,2.226,2.1191,2.1191,2.1187,2.1193,2.1574,2.1876,2.2105,2.221,2.1955,2.1518,2.1422,2.1399,2.1302,0.0,0.0,0.0,0.0,0.0,0.0,0.0,0.0,0.0,0.0,0.0,0.0,0.0,0.0,0.0,0.0,0.0,0.0,0.0,0.0,0.0,0.0,0.0,0.0,0.0,0.0,0.0,0.0,0.0,0.0,0.0,0.0,0.0,0.0,0.0,0.0,0.0,0.0,0.0,0.0,0.0,0.0,2.5513,2.552,2.5599,2.5707,2.5707,2.5707,2.5707,2.5707,2.5708,2.5692,2.5701,2.5703,2.5703,2.5686,0.0,2.5643,0.0,0.0,0.0,2.5032,2.4975,2.4868,0.0,0.0,2.4256,2.3858,2.3603,2.3365,2.3091,2.2838,2.2788,2.3202,2.3267,2.3508,2.4175,2.4252,2.41,2.3722,2.307,2.2596,2.2529,2.2521,2.2724,2.3212,2.3305,2.3423,2.3601,2.3664,2.3753,2.3868,2.3883,2.4138,2.4694,2.4694,2.4955,2.5435,2.5435,2.5153,2.4623,2.4623,2.3994,2.2917,2.2917,2.2886,2.2834,2.2882,2.2584,2.2151,2.2615,2.2489,2.1978,2.1541,2.1399,2.1326,0.0,0.0,0.0,0.0,0.0,0.0,0.0,0.0,0.0,0.0,0.0,0.0,0.0,0.0,0.0,0.0,0.0,0.0,0.0,0.0,0.0,0.0,0.0,0.0,0.0,0.0,0.0,0.0,0.0,0.0,0.0,0.0,0.0,0.0,0.0,0.0,0.0,0.0,0.0,0.0,0.0,0.0,2.5441,2.5441,2.5503,2.5593,2.5636,2.5611,0.0,0.0,2.5678,2.5649,2.5691,2.57,2.5703,2.5698,2.5707,0.0,2.5446,0.0,0.0,0.0,2.4994,2.4929,2.4642,2.4563,2.4464,2.405,2.3775,2.3693,2.3928,2.3636,2.356,0.0,2.4161,2.4266,2.4956,2.496,2.4929,2.4948,2.4407,2.3805,2.3286,2.3216,2.349,2.4137,2.4182,2.4391,2.4858,2.489,2.4926,2.4973,2.4961,2.5274,2.5878,2.5878,2.6181,2.6764,2.6764,2.631,2.5475,2.5121,2.4321,2.3198,2.3198,2.3563,2.416,2.416,2.4132,2.416,2.4384,2.4102,2.3409,2.2247,2.1624,2.1326,0.0,0.0,0.0,0.0,0.0,0.0,0.0,0.0,0.0,0.0,0.0,0.0,0.0,0.0,0.0,0.0,0.0,0.0,0.0,0.0,0.0,0.0,0.0,0.0,0.0,0.0,0.0,0.0,0.0,0.0,0.0,0.0,0.0,0.0,0.0,0.0,0.0,0.0,0.0,0.0,0.0,0.0,2.5374,2.5374,2.5393,2.5457,2.5539,2.5538,0.0,0.0,2.5608,2.5588,2.5637,2.5662,2.5677,2.5664,2.5677,2.5633,2.5413,0.0,0.0,2.5082,2.5034,2.4977,2.4749,2.4704,2.4602,2.4247,2.4157,2.4246,2.4614,2.4507,0.0,2.5201,2.5101,2.5137,2.5697,2.569,2.5627,2.5638,2.5301,2.4856,2.4307,2.4027,2.4077,2.4563,2.4769,2.5169,2.5839,2.5884,2.5959,2.6153,2.6153,2.6378,2.6869,2.6869,2.7108,2.76,2.76,2.717,2.6358,2.5741,2.5081,2.4396,2.4241,2.4622,2.5365,2.5365,2.5455,2.5603,2.5603,2.5114,2.4288,2.3067,2.2188,2.1494,0.0,0.0,0.0,0.0,0.0,0.0,0.0,0.0,0.0,0.0,0.0,0.0,0.0,0.0,0.0,0.0,0.0,0.0,0.0,0.0,0.0,0.0,0.0,0.0,0.0,0.0,0.0,0.0,0.0,0.0,0.0,0.0,0.0,0.0,0.0,0.0,0.0,0.0,0.0,0.0,0.0,0.0,2.5291,2.5291,2.5293,2.5322,2.5457,0.0,0.0,0.0,2.5507,2.5505,2.5507,2.5547,0.0,2.5597,2.5605,0.0,0.0,0.0,2.5341,2.5157,2.5093,2.5022,2.4768,2.4704,2.4638,2.4424,2.4842,2.5171,2.494,2.5356,2.5806,2.6029,2.6063,2.6154,2.642,2.646,2.6234,2.5577,2.5493,2.5596,0.0,2.5109,2.459,2.4593,2.5199,2.5869,2.6527,2.6569,2.6869,2.7525,2.754,2.754,2.757,2.757,2.757,2.76,2.76,2.7585,2.7532,2.6914,2.6953,2.7424,2.6846,2.6572,2.6545,2.6545,2.6171,2.5603,2.5603,2.4951,2.4008,2.3955,2.3145,2.1955,0.0,0.0,0.0,0.0,0.0,0.0,0.0,0.0,0.0,0.0,0.0,0.0,0.0,0.0,0.0,0.0,0.0,0.0,0.0,0.0,0.0,0.0,0.0,0.0,0.0,0.0,0.0,0.0,0.0,0.0,0.0,0.0,0.0,0.0,0.0,0.0,0.0,0.0,0.0,0.0,0.0,0.0,2.4565,2.5096,2.5305,2.5315,0.0,0.0,0.0,0.0,0.0,0.0,2.5489,0.0,0.0,2.559,0.0,0.0,0.0,0.0,2.535,2.5206,2.5128,2.5085,2.4986,2.4935,2.4842,2.4638,2.5188,2.575,2.5931,2.6425,2.6885,2.7113,2.697,2.6755,2.6538,2.6494,2.638,2.6008,2.5694,0.0,0.0,0.0,0.0,2.6856,2.7125,2.7549,2.8221,2.7921,2.782,2.8061,2.7773,2.76,2.76,2.76,2.76,2.76,2.76,2.7382,2.6997,2.6801,2.6814,2.6997,2.6801,2.6904,2.727,2.727,2.7136,2.6929,2.6929,2.6198,2.5088,2.4783,2.4108,2.3205,0.0,0.0,0.0,0.0,0.0,0.0,0.0,0.0,0.0,0.0,0.0,0.0,0.0,0.0,0.0,0.0,0.0,0.0,0.0,0.0,0.0,0.0,0.0,0.0,0.0,0.0,0.0,0.0,0.0,0.0,0.0,0.0,0.0,0.0,0.0,0.0,0.0,0.0,0.0,0.0,0.0,0.0,2.4553,2.4762,2.5031,0.0,0.0,0.0,0.0,0.0,0.0,0.0,0.0,0.0,0.0,0.0,0.0,0.0,0.0,2.5459,2.5408,2.5277,2.5195,2.5154,2.5103,2.506,2.4982,2.4842,2.5625,2.6385,2.6564,2.7319,2.7888,2.7844,2.7666,2.735,2.6891,2.6716,2.6581,2.6407,2.6233,0.0,0.0,0.0,0.0,2.8061,2.8313,2.865,2.9081,2.8768,2.8591,2.8591,2.8113,2.7857,2.7857,2.7685,2.76,2.76,2.76,2.741,2.7023,2.7023,2.7023,2.7023,2.7023,2.7242,2.76,2.76,2.76,2.76,2.76,2.6833,2.5694,2.5393,2.4757,2.3878,0.0,0.0,0.0,0.0,0.0,0.0,0.0,0.0,0.0,0.0,0.0,0.0,0.0,0.0,0.0,0.0,0.0,0.0,0.0,0.0,0.0,0.0,0.0,0.0,0.0,0.0,0.0,0.0,0.0,0.0,0.0,0.0,0.0,0.0,0.0,0.0,0.0,0.0,0.0,0.0,0.0,0.0,2.51,2.4358,0.0,0.0,0.0,0.0,0.0,0.0,0.0,0.0,0.0,0.0,0.0,0.0,0.0,2.5695,2.5628,2.5558,2.5476,2.5342,2.5302,2.5279,2.5144,2.5094,2.5082,2.5068,2.6151,2.707,0.0,0.0,2.8815,2.8224,2.8109,2.7925,2.7462,2.7129,2.6873,0.0,0.0,0.0,0.0,0.0,0.0,2.8282,0.0,2.9166,2.9166,2.9143,2.9147,2.9147,2.8626,2.8336,2.8336,2.7907,2.766,2.765,2.765,2.7625,2.76,2.76,2.76,2.76,2.76,2.76,2.76,2.76,2.76,2.76,2.76,2.6877,2.5837,2.5837,2.5161,2.4071,0.0,0.0,0.0,0.0,0.0,0.0,0.0,0.0,0.0,0.0,0.0,0.0,0.0,0.0,0.0,0.0,0.0,0.0,0.0,0.0,0.0,0.0,0.0,0.0,0.0,0.0,0.0,0.0,0.0,0.0,0.0,0.0,0.0,0.0,0.0,0.0,0.0,0.0,0.0,0.0,0.0,0.0,2.3549,0.0,0.0,0.0,0.0,0.0,0.0,0.0,0.0,0.0,0.0,0.0,2.5589,0.0,0.0,2.5696,2.5622,2.5551,2.5484,2.5453,2.5374,2.5288,2.5267,2.5174,2.5269,2.5853,2.6724,2.7514,0.0,0.0,0.0,2.8491,2.8197,0.0,2.7454,2.7278,0.0,0.0,0.0,2.7859,2.8355,2.9003,0.0,0.0,3.0047,3.0135,3.0135,2.9804,2.9617,2.9617,2.9154,2.89,2.89,2.8783,2.8523,2.8122,2.8122,2.7944,2.76,2.76,2.76,2.76,2.76,2.76,2.76,2.76,2.76,2.76,2.76,2.7137,2.647,2.647,2.6297,2.5863,0.0,0.0,0.0,0.0,0.0,0.0,0.0,0.0,0.0,0.0,0.0,0.0,0.0,0.0,0.0,0.0,0.0,0.0,0.0,0.0,0.0,0.0,0.0,0.0,0.0,0.0,0.0,0.0,0.0,0.0,0.0,0.0,0.0,0.0,0.0,0.0,0.0,0.0,0.0,0.0,0.0,0.0,0.0,0.0,0.0,0.0,0.0,0.0,0.0,0.0,0.0,2.5452,2.5491,2.5542,2.5602,2.5592,0.0,2.5682,2.5611,2.5571,2.554,2.5518,2.5444,2.5372,2.5304,2.5247,2.5305,2.5691,2.6716,0.0,0.0,0.0,0.0,0.0,0.0,0.0,2.7886,2.7681,2.7394,0.0,2.7733,0.0,2.8398,2.9301,3.0042,0.0,3.0506,3.0506,3.0506,3.0258,3.0103,3.0103,2.965,2.9303,2.9097,2.9097,2.8842,2.8288,2.8288,2.8052,2.76,2.76,2.76,2.76,0.0,2.76,2.76,2.76,2.76,2.76,2.76,2.7229,2.6709,2.6709,2.6537,2.6243,0.0,0.0,0.0,0.0,0.0,0.0,0.0,0.0,0.0,0.0,0.0,0.0,0.0,0.0,0.0,0.0,0.0,0.0,0.0,0.0,0.0,0.0,0.0,0.0,0.0,0.0,0.0,0.0,0.0,0.0,0.0,0.0,0.0,0.0,0.0,0.0,0.0,0.0,0.0,0.0,0.0,0.0,0.0,0.0,0.0,0.0,0.0,0.0,0.0,0.0,2.5507,2.5515,2.5524,2.5578,2.5613,2.5602,2.5649,2.5684,2.5636,2.5607,2.5572,2.5501,2.5497,2.5476,2.5344,2.5304,2.5296,2.5293,0.0,0.0,2.7363,0.0,2.9272,2.9064,0.0,2.855,2.8413,2.8128,2.7761,2.733,2.8314,2.8913,2.8584,2.9776,3.0582,3.0582,3.0531,3.0506,3.0506,3.0506,3.0506,3.0506,3.0103,2.9694,2.9291,2.9291,2.8977,2.8412,2.8412,2.8125,2.76,2.76,2.76,2.76,0.0,0.0,2.76,2.76,2.76,2.76,2.76,2.728,2.6827,2.6827,2.6497,2.6109,0.0,0.0,0.0,0.0,0.0,0.0,0.0,0.0,0.0,0.0,0.0,0.0,0.0,0.0,0.0,0.0,0.0,0.0,0.0,0.0,0.0,0.0,0.0,0.0,0.0,0.0,0.0,0.0,0.0,0.0,0.0,0.0,0.0,0.0,0.0,0.0,0.0,0.0,0.0,0.0,0.0,0.0,0.0,0.0,0.0,0.0,0.0,0.0,0.0,0.0,2.5534,2.5595,2.5647,2.5661,2.5689,2.5675,2.5683,2.5696,2.5686,2.5603,2.5513,2.5491,2.5499,2.5486,2.5476,2.5376,0.0,0.0,0.0,2.779,2.8387,0.0,0.0,2.9278,0.0,0.0,0.0,0.0,0.0,0.0,0.0,0.0,0.0,0.0,0.0,0.0,0.0,0.0,3.0506,3.0506,3.0506,3.0506,3.0416,3.0342,3.0268,3.0268,2.9815,2.897,2.897,2.8487,2.76,2.76,2.76,2.76,0.0,0.0,2.76,2.76,2.76,2.76,2.76,2.7549,2.7433,2.7433,2.7382,2.7227,0.0,0.0,0.0,0.0,0.0,0.0,0.0,0.0,0.0,0.0,0.0,0.0,0.0,0.0,0.0,0.0,0.0,0.0,0.0,0.0,0.0,0.0,0.0,0.0,0.0,0.0,0.0,0.0,0.0,0.0,0.0,0.0,0.0,0.0,0.0,0.0,0.0,0.0,0.0,0.0,0.0,0.0,0.0,0.0,0.0,0.0,0.0,0.0,0.0,0.0,2.5546,2.5614,2.5684,2.5692,2.5695,2.57,2.5703,2.5701,2.5691,2.5636,2.5541,2.551,2.5508,2.5509,2.5509,0.0,0.0,0.0,0.0,2.7259,2.8039,0.0,0.0,0.0,0.0,0.0,0.0,0.0,0.0,0.0,0.0,0.0,0.0,0.0,0.0,0.0,0.0,0.0,3.0499,3.0506,3.0506,3.0506,3.0506,3.0506,3.0506,3.0506,3.0145,2.9461,2.9461,2.8943,2.7953,2.7953,2.7832,2.76,2.76,0.0,2.76,2.76,2.76,2.76,2.76,2.76,2.76,2.76,2.76,2.7562,0.0,0.0,0.0,0.0,0.0,0.0,0.0,0.0,0.0,0.0,0.0,0.0,0.0,0.0,0.0,0.0,0.0,0.0,0.0,0.0,0.0,0.0,0.0,0.0,0.0,0.0,0.0,0.0,0.0,0.0,0.0,0.0,0.0,0.0,0.0,0.0,0.0,0.0,0.0,0.0,0.0,0.0,0.0,0.0,0.0,0.0,0.0,0.0,0.0,0.0,2.5375,2.5586,2.5656,2.569,2.5697,2.5701,2.5703,2.5703,2.5696,2.5653,2.5594,2.5548,2.5523,2.5495,2.5495,2.5501,0.0,0.0,0.0,2.6724,2.7462,0.0,0.0,0.0,0.0,0.0,0.0,0.0,0.0,0.0,0.0,0.0,0.0,0.0,0.0,0.0,0.0,0.0,3.051,3.0506,3.0506,3.0506,3.0506,3.0506,3.0506,3.0506,3.0252,2.9793,2.9793,2.9259,2.8288,2.8288,2.8039,2.76,2.76,0.0,0.0,2.76,2.76,2.76,2.76,2.76,2.76,2.76,2.76,2.76,0.0,0.0,0.0,0.0,0.0,0.0,0.0,0.0,0.0,0.0,0.0,0.0,0.0,0.0,0.0,0.0,0.0,0.0,0.0,0.0,0.0,0.0,0.0,0.0,0.0,0.0,0.0,0.0,0.0,0.0,0.0,0.0,0.0,0.0,0.0,0.0,0.0,0.0,0.0,0.0,0.0,0.0,0.0,0.0,0.0,0.0,0.0,0.0,0.0,0.0,0.0,2.5518,2.5591,2.5654,2.5702,2.5701,0.0,0.0,2.5702,2.5647,2.5609,2.5675,2.5591,2.5494,2.5494,0.0,0.0,0.0,2.5939,2.6724,2.7462,2.8195,0.0,0.0,0.0,0.0,0.0,0.0,0.0,0.0,0.0,0.0,0.0,0.0,0.0,0.0,0.0,0.0,0.0,3.0506,3.0506,3.0506,3.0506,3.0506,3.0506,3.0506,3.0252,2.9793,2.9793,2.9259,2.8288,2.8288,2.8039,2.76,0.0,0.0,0.0,2.76,2.76,2.76,2.76,2.76,2.76,2.76,2.76,2.76,0.0,0.0,0.0,0.0,0.0,0.0,0.0,0.0,0.0,0.0,0.0,0.0,0.0,0.0,0.0,0.0,0.0,0.0,0.0,0.0,0.0,0.0,0.0,0.0,0.0,0.0,0.0,0.0,0.0,0.0,0.0,0.0,0.0,0.0,0.0,0.0,0.0,0.0,0.0,0.0,0.0,0.0,0.0,0.0,0.0,0.0,0.0,0.0,0.0,0.0,0.0,0.0,2.5598,2.5643,0.0,0.0,2.5702,2.5701,2.5703,2.5676,2.5675,2.5685,2.5601,2.5503,2.5503,0.0,0.0,2.5333,2.5518,2.5945,2.668,2.7457,2.8214,0.0,0.0,0.0,0.0,0.0,0.0,0.0,0.0,0.0,0.0,0.0,0.0,0.0,0.0,0.0,0.0,3.0506,3.0506,3.0506,3.0506,3.0506,3.0506,3.0506,3.0405,3.0209,3.0209,2.9728,2.8779,2.8779,2.8355,2.76,0.0,0.0,0.0,2.76,2.76,2.76,2.76,2.76,2.76,2.76,2.76,2.76,0.0,0.0,0.0,0.0,0.0,0.0,0.0,0.0,0.0,0.0,0.0,0.0,0.0,0.0,0.0,0.0,0.0,0.0,0.0,0.0,0.0,0.0,0.0,0.0,0.0,0.0,0.0,0.0,0.0,0.0,0.0,0.0,0.0,0.0,0.0,0.0,0.0,0.0,0.0,0.0,0.0,0.0,0.0,0.0,0.0,0.0,0.0,0.0,0.0,0.0,0.0,0.0,0.0,0.0,0.0,0.0,2.57,2.5703,2.5703,2.5701,2.5694,2.5708,2.5609,2.5524,0.0,0.0,0.0,2.5303,2.5234,2.5422,2.6133,2.6949,2.7763,0.0,0.0,0.0,0.0,0.0,0.0,0.0,0.0,0.0,0.0,0.0,0.0,0.0,0.0,0.0,0.0,3.0506,3.0506,3.0506,3.0506,3.0506,3.0506,3.0506,3.0506,3.0506,3.0506,3.0016,2.9097,2.9097,2.8547,2.76,0.0,0.0,0.0,2.76,2.76,2.76,2.76,2.76,2.76,2.76,2.76,2.76,0.0,0.0,0.0,0.0,0.0,0.0,0.0,0.0,0.0,0.0,0.0,0.0,0.0,0.0,0.0,0.0,0.0,0.0,0.0,0.0,0.0,0.0,0.0,0.0,0.0,0.0,0.0,0.0,0.0,0.0,0.0,0.0,0.0,0.0,0.0,0.0,0.0,0.0,0.0,0.0,0.0,0.0,0.0,0.0,0.0,0.0,0.0,0.0,0.0,0.0,0.0,0.0,0.0,0.0,0.0,0.0,2.5703,2.5703,2.5703,2.5703,2.5703,2.5692,2.5648,2.5588,0.0,0.0,0.0,2.5246,2.5192,2.5405,2.6088,2.6902,2.7744,2.8477,0.0,0.0,0.0,0.0,0.0,0.0,0.0,0.0,0.0,0.0,0.0,0.0,0.0,0.0,0.0,3.0506,3.0506,3.0506,3.0506,3.0506,3.0506,3.0506,3.0506,3.0506,3.0506,3.0016,2.9097,2.9097,2.8547,0.0,0.0,0.0,0.0,2.76,2.76,2.76,2.76,2.76,2.76,2.76,2.76,2.76,0.0,0.0,0.0,0.0,0.0,0.0,0.0,0.0,0.0,0.0,0.0,0.0,0.0,0.0,0.0,0.0,0.0,0.0,0.0,0.0,0.0,0.0,0.0,0.0,0.0,0.0,0.0,0.0,0.0,0.0,0.0,0.0,0.0,0.0,0.0,0.0,0.0,0.0,0.0,0.0,0.0,0.0,0.0,0.0,0.0,0.0,0.0,0.0,0.0,0.0,0.0,0.0,0.0,0.0,0.0,0.0,0.0,0.0,2.5703,2.5703,2.5703,2.5692,2.5648,2.5589,2.5517,0.0,0.0,2.5216,2.516,2.5173,2.5349,2.6465,2.7432,2.7664,2.8587,0.0,0.0,0.0,0.0,0.0,0.0,0.0,0.0,0.0,0.0,0.0,0.0,0.0,0.0,3.0506,3.0506,3.0506,3.0506,3.0506,3.0506,3.0506,3.0506,3.0506,3.0506,3.0177,2.9561,2.9246,0.0,0.0,0.0,0.0,0.0,2.76,2.76,2.76,2.76,2.76,2.76,2.76,2.76,2.76,0.0,0.0,0.0,0.0,0.0,0.0,0.0,0.0,0.0,0.0,0.0,0.0,0.0,0.0,0.0,0.0,0.0,0.0,0.0,0.0,0.0,0.0,0.0,0.0,0.0,0.0,0.0,0.0,0.0,0.0,0.0,0.0,0.0,0.0,0.0,0.0,0.0,0.0,0.0,0.0,0.0,0.0,0.0,0.0,0.0,0.0,0.0,0.0,0.0,0.0,0.0,0.0,0.0,0.0,0.0,0.0,0.0,0.0,0.0,2.5703,2.5683,2.5663,2.5638,0.0,0.0,0.0,0.0,2.5211,2.5138,2.5022,2.4938,2.6204,2.7244,2.7207,2.8323,0.0,0.0,0.0,0.0,0.0,0.0,0.0,0.0,0.0,0.0,0.0,0.0,0.0,0.0,0.0,3.0506,3.0506,3.0506,3.0506,3.0506,3.0506,3.0506,3.0506,3.0506,3.0241,2.9783,2.9494,0.0,0.0,0.0,0.0,0.0,2.787,2.7773,2.76,2.76,2.76,2.76,2.76,2.76,2.76,0.0,0.0,0.0,0.0,0.0,0.0,0.0,0.0,0.0,0.0,0.0,0.0,0.0,0.0,0.0,0.0,0.0,0.0,0.0,0.0,0.0,0.0,0.0,0.0,0.0,0.0,0.0,0.0,0.0,0.0,0.0,0.0,0.0,0.0,0.0,0.0,0.0,0.0,0.0,0.0,0.0,0.0,0.0,0.0,0.0,0.0,0.0,0.0,0.0,0.0,0.0,0.0,0.0,0.0,0.0,0.0,0.0,0.0,0.0,0.0,0.0,0.0,0.0,0.0,0.0,0.0,0.0,0.0,0.0,2.4969,2.4891,2.616,2.7161,2.7106,2.8277,0.0,0.0,0.0,0.0,0.0,0.0,0.0,0.0,0.0,0.0,0.0,0.0,0.0,0.0,0.0,3.0506,3.0506,3.0506,3.0506,3.0506,3.0506,3.0506,3.0506,3.0506,3.0279,2.9853,2.9821,0.0,0.0,0.0,0.0,0.0,2.8288,2.8027,2.76,2.76,2.76,2.76,2.76,2.76,2.76,0.0,0.0,0.0,0.0,0.0,0.0,0.0,0.0,0.0,0.0,0.0,0.0,0.0,0.0,0.0,0.0,0.0,0.0,0.0,0.0,0.0,0.0,0.0,0.0,0.0,0.0,0.0,0.0,0.0,0.0,0.0,0.0,0.0,0.0,0.0,0.0,0.0,0.0,0.0,0.0,0.0,0.0,0.0,0.0,0.0,0.0,2.5698,0.0,0.0,0.0,0.0,0.0,0.0,0.0,0.0,0.0,0.0,0.0,0.0,0.0,0.0,0.0,0.0,0.0,0.0,0.0,0.0,0.0,0.0,2.5034,2.568,2.6474,2.7246,2.7895,0.0,0.0,0.0,0.0,0.0,0.0,0.0,0.0,0.0,0.0,0.0,0.0,0.0,0.0,0.0,0.0,3.0506,3.0506,3.0506,3.0506,3.0506,3.0506,3.0506,3.0506,3.0506,3.0437,3.0332,2.9962,0.0,0.0,0.0,0.0,2.8288,2.8288,2.8027,2.76,2.76,2.76,2.76,2.76,2.76,2.76,0.0,0.0,0.0,0.0,0.0,0.0,0.0,0.0,0.0,0.0,0.0,0.0,0.0,0.0,0.0,0.0,0.0,0.0,0.0,0.0,0.0,0.0,0.0,0.0,0.0,0.0,0.0,0.0,0.0,0.0,0.0,0.0,0.0,0.0,0.0,0.0,0.0,0.0,0.0,0.0,0.0,0.0,0.0,0.0,0.0,0.0,2.5699,2.5408,0.0,2.5547,2.5391,2.5078,0.0,0.0,0.0,0.0,2.5702,2.5698,2.569,2.5707,2.5679,2.5586,2.5526,0.0,0.0,0.0,0.0,0.0,0.0,0.0,2.5927,0.0,0.0,0.0,0.0,0.0,0.0,0.0,0.0,0.0,0.0,0.0,0.0,0.0,0.0,0.0,0.0,0.0,0.0,0.0,3.0506,3.0506,3.0506,3.0506,3.0506,3.0506,3.0506,3.0506,3.0506,3.0506,3.0479,3.0016,0.0,0.0,0.0,0.0,2.865,2.8396,2.8027,2.76,2.76,2.76,2.76,2.76,2.76,2.76,0.0,0.0,0.0,0.0,0.0,0.0,0.0,0.0,0.0,0.0,0.0,0.0,0.0,0.0,0.0,0.0,0.0,0.0,0.0,0.0,0.0,0.0,0.0,0.0,0.0,0.0,0.0,0.0,0.0,0.0,0.0,0.0,0.0,0.0,0.0,0.0,0.0,0.0,0.0,0.0,0.0,0.0,0.0,0.0,0.0,0.0,0.0,0.0,0.0,2.5703,2.5703,2.5703,2.5703,0.0,0.0,0.0,0.0,0.0,2.5677,2.5676,2.5645,2.5528,2.5495,2.5491,0.0,0.0,0.0,0.0,0.0,0.0,0.0,0.0,0.0,0.0,0.0,0.0,0.0,0.0,0.0,0.0,0.0,0.0,0.0,0.0,0.0,0.0,0.0,0.0,0.0,0.0,0.0,3.0506,3.0506,3.0506,3.0506,3.0506,3.0506,3.0506,3.0506,3.0506,3.0495,3.0092,3.0081,0.0,0.0,0.0,2.8947,2.8496,2.8027,2.76,2.76,2.76,2.76,2.76,2.76,2.76,0.0,0.0,0.0,0.0,0.0,0.0,0.0,0.0,0.0,0.0,0.0,0.0,0.0,0.0,0.0,0.0,0.0,0.0,0.0,0.0,0.0,0.0,0.0,0.0,0.0,0.0,0.0,0.0,0.0,0.0,0.0,0.0,0.0,0.0,0.0,0.0,0.0,0.0,0.0,0.0,0.0,0.0,0.0,0.0,0.0,0.0,0.0,0.0,0.0,2.5703,2.5703,2.5703,2.5703,0.0,0.0,0.0,0.0,0.0,2.5542,2.5529,2.5525,2.5507,2.5497,2.5505,0.0,0.0,0.0,0.0,0.0,0.0,0.0,0.0,0.0,0.0,0.0,0.0,0.0,0.0,0.0,0.0,0.0,0.0,0.0,0.0,0.0,0.0,0.0,0.0,0.0,0.0,0.0,3.0499,3.0506,3.0506,3.0506,3.0506,3.0506,3.0506,3.0506,3.0506,3.0506,3.0426,3.0226,0.0,0.0,2.9207,2.8424,2.8324,2.8027,2.76,2.76,2.76,2.76,2.76,2.76,2.76,0.0,0.0,0.0,0.0,0.0,0.0,0.0,0.0,0.0,0.0,0.0,0.0,0.0,0.0,0.0,0.0,0.0,0.0,0.0,0.0,0.0,0.0,0.0,0.0,0.0,0.0,0.0,0.0,0.0,0.0,0.0,0.0,0.0,0.0,0.0,0.0,0.0,0.0,0.0,0.0,0.0,0.0,0.0,0.0,0.0,0.0,0.0,0.0,0.0,0.0,2.5646,2.5646,2.5646,0.0,0.0,0.0,0.0,0.0,2.551,2.5496,2.5478,2.541,2.5392,0.0,0.0,0.0,0.0,0.0,0.0,0.0,0.0,0.0,0.0,0.0,0.0,0.0,0.0,0.0,0.0,0.0,0.0,0.0,0.0,0.0,0.0,0.0,0.0,0.0,0.0,0.0,0.0,0.0,3.0506,3.0506,3.0506,3.0506,3.0506,3.0506,3.0506,3.0506,3.0489,3.0247,3.0006,2.9761,0.0,2.8729,2.8292,2.8027,2.7783,2.76,2.76,2.76,2.76,2.76,2.76,2.76,0.0,0.0,0.0,0.0,0.0,0.0,0.0,0.0,0.0,0.0,0.0,0.0,0.0,0.0,0.0,0.0,0.0,0.0,0.0,0.0,0.0,0.0,0.0,0.0,0.0,0.0,0.0,0.0,0.0,0.0,0.0,0.0,0.0,0.0,0.0,0.0,0.0,0.0,0.0,0.0,0.0,0.0,0.0,0.0,0.0,0.0,0.0,0.0,0.0,0.0,0.0,0.0,0.0,0.0,0.0,0.0,2.5549,2.5499,2.5499,2.5498,2.5452,0.0,0.0,0.0,0.0,0.0,0.0,0.0,0.0,0.0,0.0,0.0,0.0,0.0,0.0,0.0,0.0,0.0,0.0,0.0,0.0,0.0,0.0,0.0,0.0,0.0,0.0,0.0,0.0,0.0,0.0,0.0,3.0506,3.0506,3.0506,3.0506,3.0506,3.0506,3.0506,3.0506,3.0495,3.0124,2.9892,2.975,2.9,2.8516,2.8264,2.7904,2.7698,2.76,2.76,2.76,2.76,2.76,2.76,2.76,0.0,0.0,0.0,0.0,0.0,0.0,0.0,0.0,0.0,0.0,0.0,0.0,0.0,0.0,0.0,0.0,0.0,0.0,0.0,0.0,0.0,0.0,0.0,0.0,0.0,0.0,0.0,0.0,0.0,0.0,0.0,0.0,0.0,0.0,0.0,0.0,0.0,0.0,0.0,0.0,0.0,0.0,0.0,0.0,0.0,0.0,0.0,0.0,0.0,0.0,0.0,0.0,0.0,0.0,0.0,0.0,2.5501,2.5497,2.5497,2.5494,2.544,0.0,0.0,0.0,0.0,0.0,0.0,0.0,0.0,0.0,0.0,0.0,0.0,0.0,0.0,0.0,0.0,0.0,0.0,0.0,0.0,0.0,0.0,0.0,0.0,0.0,0.0,0.0,0.0,0.0,0.0,0.0,0.0,3.0506,3.0506,3.0506,3.0506,3.0506,3.0506,3.0506,3.0506,3.0474,3.0209,2.981,2.9728,2.9157,2.8288,2.8252,2.799,2.76,2.76,2.76,2.76,2.76,2.76,2.76,0.0,0.0,0.0,0.0,0.0,0.0,0.0,0.0,0.0,0.0,0.0,0.0,0.0,0.0,0.0,0.0,0.0,0.0,0.0,0.0,0.0,0.0,0.0,0.0,0.0,0.0,0.0,0.0,0.0,0.0,0.0,0.0,0.0,0.0,0.0,0.0,0.0,0.0,0.0,0.0,0.0,0.0,0.0,0.0,0.0,0.0,0.0,0.0,0.0,0.0,0.0,0.0,0.0,0.0,0.0,0.0,2.5493,2.5509,2.5509,2.5442,0.0,0.0,0.0,0.0,0.0,0.0,0.0,0.0,0.0,0.0,0.0,0.0,0.0,0.0,0.0,0.0,0.0,0.0,0.0,0.0,0.0,0.0,0.0,0.0,0.0,0.0,0.0,0.0,0.0,0.0,0.0,0.0,0.0,3.0506,3.0506,3.0506,3.0506,3.0506,3.0506,3.0506,3.0506,3.0506,3.0231,2.9793,2.9793,2.9411,2.8768,2.8448,2.8195,2.8002,2.771,2.76,2.76,2.76,2.76,2.76,0.0,0.0,0.0,0.0,0.0,0.0,0.0,0.0,0.0,0.0,0.0,0.0,0.0,0.0,0.0,0.0,0.0,0.0,0.0,0.0,0.0,0.0,0.0,0.0,0.0,0.0,0.0,0.0,0.0,0.0,0.0,0.0,0.0,0.0,0.0,0.0,0.0,0.0,0.0,0.0,0.0,0.0,0.0,0.0,0.0,0.0,0.0,0.0,0.0,0.0,0.0,0.0,0.0,0.0,0.0,0.0,0.0,2.5442,2.5442,2.5354,0.0,0.0,0.0,0.0,0.0,0.0,0.0,0.0,0.0,0.0,0.0,0.0,0.0,0.0,0.0,0.0,0.0,0.0,0.0,0.0,0.0,0.0,0.0,0.0,0.0,0.0,0.0,0.0,0.0,0.0,0.0,0.0,0.0,3.0506,3.0506,3.0506,3.0506,3.0506,3.0506,3.0506,3.0506,3.0506,3.0332,3.0016,2.9859,2.9617,2.928,2.8768,2.8555,2.8507,2.8002,2.782,2.7795,2.7648,2.76,2.76,0.0,0.0,0.0,0.0,0.0,0.0,0.0,0.0,0.0,0.0,0.0,0.0,0.0,0.0,0.0,0.0,0.0,0.0,0.0,0.0,0.0,0.0,0.0,0.0,0.0,0.0,0.0,0.0,0.0,0.0,0.0,0.0,0.0,0.0,0.0,0.0,0.0,0.0,0.0,0.0,0.0,0.0,0.0,0.0,0.0,0.0,0.0,0.0,0.0,0.0,0.0,0.0,0.0,0.0,0.0,0.0,2.5408,2.53,2.53,2.5259,0.0,0.0,0.0,0.0,0.0,0.0,0.0,0.0,0.0,0.0,0.0,0.0,0.0,0.0,0.0,0.0,0.0,0.0,0.0,0.0,0.0,0.0,0.0,0.0,0.0,0.0,0.0,0.0,0.0,0.0,0.0,0.0,0.0,0.0,3.0506,3.0506,3.0506,3.0506,3.0506,3.0506,3.0506,3.0506,3.0506,3.0468,3.0006,2.9793,2.9761,2.9291,2.9097,2.9039,2.8507,2.8288,2.8255,2.777,2.7612,2.7612,0.0,0.0,0.0,0.0,0.0,0.0,0.0,0.0,0.0,0.0,0.0,0.0,0.0,0.0,0.0,0.0,0.0,0.0,0.0,0.0,0.0,0.0,0.0,0.0,0.0,0.0,0.0,0.0,0.0,0.0,0.0,0.0,0.0,0.0,0.0,0.0,0.0,0.0,0.0,0.0,0.0,0.0,0.0,0.0,0.0,0.0,0.0,0.0,0.0,0.0,0.0,0.0,0.0,0.0,0.0,0.0,2.5478,2.5444,2.5444,0.0,0.0,0.0,0.0,0.0,0.0,0.0,0.0,0.0,0.0,0.0,0.0,0.0,0.0,0.0,0.0,0.0,0.0,0.0,0.0,0.0,0.0,0.0,0.0,0.0,0.0,0.0,0.0,0.0,0.0,0.0,0.0,0.0,0.0,0.0,3.0506,3.0506,3.0506,3.0506,3.0506,3.0506,3.0506,3.0506,3.0506,3.0468,3.0006,2.9995,3.0236,2.9427,2.9097,2.9039,2.8507,2.8531,2.8807,2.828,2.81,2.8052,0.0,0.0,0.0,0.0,0.0,0.0,0.0,0.0,0.0,0.0,0.0,0.0,0.0,0.0,0.0,0.0,0.0,0.0,0.0,0.0,0.0,0.0,0.0,0.0,0.0,0.0,0.0,0.0,0.0,0.0,0.0,0.0,0.0,0.0,0.0,0.0,0.0,0.0,0.0,0.0,0.0,0.0,0.0,0.0,0.0,0.0,0.0,0.0,0.0,0.0,0.0,0.0,0.0,0.0,0.0,0.0,2.5395,2.5384,0.0,0.0,0.0,0.0,0.0,0.0,0.0,0.0,0.0,0.0,0.0,0.0,0.0,0.0,0.0,0.0,0.0,0.0,0.0,0.0,0.0,0.0,0.0,0.0,0.0,0.0,0.0,0.0,0.0,0.0,0.0,0.0,0.0,0.0,0.0,0.0,3.0506,3.0506,3.0506,3.0506,3.0506,3.0506,3.0506,3.0506,3.0506,3.0468,3.0006,2.9848,2.9908,2.9325,2.9212,2.9325,2.8814,2.8818,2.9039,2.8507,2.842,2.8543,0.0,0.0,0.0,0.0,0.0,0.0,0.0,0.0,0.0,0.0,0.0,0.0,0.0,0.0,0.0,0.0,0.0,0.0,0.0,0.0,0.0,0.0,0.0,0.0,0.0,0.0,0.0,0.0,0.0,0.0,0.0,0.0,0.0,0.0,0.0,0.0,0.0,0.0,0.0,0.0,0.0,0.0,0.0,0.0,0.0,0.0,0.0,0.0,0.0,0.0,0.0,0.0,0.0,0.0,0.0,2.5344,2.5272,0.0,0.0,0.0,0.0,0.0,0.0,0.0,0.0,0.0,0.0,0.0,0.0,0.0,0.0,0.0,0.0,0.0,0.0,0.0,0.0,0.0,0.0,0.0,0.0,0.0,0.0,0.0,0.0,0.0,0.0,0.0,0.0,0.0,0.0,0.0,0.0,0.0,3.0506,3.0506,3.0506,0.0,3.0506,3.0506,3.0506,3.0506,3.0468,3.0405,2.9984,2.9528,2.9097,2.9097,2.9348,2.9694,2.9269,2.912,2.9097,2.8579,2.8685,2.9016,0.0,0.0,0.0,0.0,0.0,0.0,0.0,0.0,0.0,0.0,0.0,0.0,0.0,0.0,0.0,0.0,0.0,0.0,0.0,0.0,0.0,0.0,0.0,0.0,0.0,0.0,0.0,0.0,0.0,0.0,0.0,0.0,0.0,0.0,0.0,0.0,0.0,0.0,0.0,0.0,0.0,0.0,0.0,0.0,0.0,0.0,0.0,0.0,0.0,0.0,0.0,0.0,0.0,2.5509,2.5488,2.5474,0.0,0.0,0.0,0.0,0.0,0.0,0.0,0.0,0.0,0.0,0.0,0.0,0.0,0.0,0.0,0.0,0.0,0.0,0.0,0.0,0.0,0.0,0.0,0.0,0.0,0.0,0.0,0.0,0.0,0.0,0.0,0.0,0.0,0.0,0.0,0.0,0.0,3.0506,3.0506,3.0506,3.0506,0.0,3.0506,3.0506,3.0506,3.0506,3.03,2.9935,2.9837,2.9528,2.9097,2.9097,2.9154,2.9234,2.9131,2.9325,2.9584,2.9109,2.9005,2.9016,0.0,0.0,0.0,0.0,0.0,0.0,0.0,0.0,0.0,0.0,0.0,0.0,0.0,0.0,0.0,0.0,0.0,0.0,0.0,0.0,0.0,0.0,0.0,0.0,0.0,0.0,0.0,0.0,0.0,0.0,0.0,0.0,0.0,0.0,0.0,0.0,0.0,0.0,0.0,0.0,0.0,0.0,0.0,0.0,0.0,0.0,0.0,0.0,0.0,0.0,0.0,0.0,0.0,0.0,2.5484,2.5417,2.5346,0.0,0.0,0.0,0.0,0.0,0.0,0.0,0.0,0.0,0.0,0.0,0.0,0.0,0.0,0.0,0.0,0.0,0.0,0.0,0.0,0.0,0.0,0.0,0.0,0.0,0.0,0.0,0.0,0.0,0.0,0.0,0.0,0.0,0.0,0.0,3.0506,3.0506,3.0506,3.0506,3.0506,3.0506,3.0506,3.0506,3.0506,3.0506,3.0231,2.9793,2.9793,2.9528,2.9097,2.9097,2.8947,2.8732,2.8993,2.9246,2.9438,2.9189,2.9382,2.9694,0.0,0.0,0.0,0.0,0.0,0.0,0.0,0.0,0.0,0.0,0.0,0.0,0.0,0.0,0.0,0.0,0.0,0.0,0.0,0.0,0.0,0.0,0.0,0.0,0.0,0.0,0.0,0.0,0.0,0.0,0.0,0.0,0.0,0.0,0.0,0.0,0.0,0.0,0.0,0.0,0.0,0.0,0.0,0.0,0.0,0.0,0.0,0.0,0.0,0.0,0.0,0.0,0.0,0.0,2.5907,2.5796,2.5752,2.5661,0.0,0.0,0.0,0.0,0.0,0.0,0.0,0.0,0.0,0.0,0.0,0.0,0.0,0.0,0.0,0.0,0.0,0.0,0.0,0.0,0.0,0.0,0.0,0.0,0.0,0.0,0.0,0.0,0.0,0.0,0.0,0.0,3.0506,3.0506,3.0506,3.0506,3.0506,3.0506,3.0506,3.0506,3.0506,3.0506,3.0506,3.0506,3.03,2.993,2.9843,2.9584,2.9212,2.9131,2.8779,2.8336,2.8779,2.9016,2.9097,2.9097,2.9639,3.0332,0.0,0.0,0.0,0.0,0.0,0.0,0.0,0.0,0.0,0.0,0.0,0.0,0.0,0.0,0.0,0.0,0.0,0.0,0.0,0.0,0.0,0.0,0.0,0.0,0.0,0.0,0.0,0.0,0.0,0.0,0.0,0.0,0.0,0.0,0.0,0.0,0.0,0.0,0.0,0.0,0.0,0.0,0.0,0.0,0.0,0.0,0.0,0.0,0.0,0.0,0.0,0.0,0.0,0.0,0.0,0.0,0.0,0.0,0.0,0.0,0.0,0.0,0.0,0.0,0.0,0.0,0.0,0.0,0.0,0.0,0.0,0.0,0.0,0.0,0.0,0.0,0.0,0.0,0.0,0.0,0.0,0.0,0.0,0.0,0.0,0.0,0.0,0.0,0.0,3.0506,3.0506,3.0506,3.0506,3.0506,3.0506,3.0506,3.0506,3.0506,3.0506,3.0506,3.0506,3.0506,3.0474,3.0384,2.9984,2.9761,2.9672,2.9269,2.8779,2.8316,2.8388,2.8685,2.9097,2.9097,2.9438,2.987,0.0,0.0,0.0,0.0,0.0,0.0,0.0,0.0,0.0,0.0,0.0,0.0,0.0,0.0,0.0,0.0,0.0,0.0,0.0,0.0,0.0,0.0,0.0,0.0,0.0,0.0,0.0,0.0,0.0,0.0,0.0,2.5699,2.5699,0.0,0.0,0.0,0.0,0.0,0.0,0.0,0.0,0.0,0.0,0.0,0.0,0.0,0.0,0.0,0.0,0.0,0.0,0.0,0.0,0.0,0.0,0.0,0.0,0.0,0.0,0.0,0.0,0.0,0.0,0.0,0.0,0.0,0.0,0.0,0.0,0.0,0.0,0.0,0.0,0.0,0.0,0.0,0.0,0.0,0.0,0.0,0.0,0.0,0.0,0.0,0.0,0.0,0.0,0.0,3.0499,3.0506,3.0506,3.0506,3.0506,3.0506,3.0506,3.0506,3.0506,3.0506,3.0506,3.0506,3.0506,3.0506,3.0506,3.0495,3.0289,3.0049,2.9793,2.9859,2.9449,2.8768,2.9047,2.9287,2.9494,2.9494,2.9799,3.0188,0.0,0.0,0.0,0.0,0.0,0.0,0.0,0.0,0.0,0.0,0.0,0.0,0.0,0.0,0.0,0.0,0.0,0.0,0.0,0.0,0.0,0.0,0.0,0.0,0.0,0.0,0.0,0.0,0.0,0.0,2.5699,2.5699,2.5816,0.0,2.5991,0.0,0.0,0.0,0.0,0.0,0.0,0.0,0.0,0.0,0.0,0.0,0.0,0.0,0.0,0.0,0.0,0.0,0.0,0.0,0.0,0.0,0.0,0.0,0.0,0.0,0.0,0.0,0.0,0.0,0.0,0.0,0.0,0.0,0.0,0.0,0.0,0.0,0.0,0.0,0.0,0.0,0.0,0.0,0.0,0.0,0.0,0.0,0.0,0.0,0.0,0.0,0.0,0.0,3.0506,3.0506,3.0506,3.0506,3.0506,3.0506,3.0506,3.0506,3.0506,3.0506,3.0506,3.0506,3.0506,3.0506,3.0506,3.0506,3.0506,3.0311,3.0006,3.0236,2.9919,2.9303,2.9528,2.9694,2.9793,2.9793,3.0092,3.0522,0.0,0.0,0.0,0.0,0.0,0.0,0.0,0.0,0.0,0.0,0.0,0.0,0.0,0.0,0.0,0.0,0.0,0.0,0.0,0.0,0.0,0.0,0.0,0.0,0.0,0.0,0.0,0.0,0.0,0.0,2.5699,2.5699,2.6107,2.6847,2.6847,2.6867,2.6945,0.0,0.0,0.0,0.0,0.0,0.0,0.0,0.0,0.0,0.0,0.0,0.0,0.0,0.0,0.0,0.0,0.0,0.0,0.0,0.0,0.0,0.0,0.0,0.0,0.0,0.0,0.0,0.0,0.0,0.0,0.0,0.0,0.0,0.0,0.0,0.0,0.0,0.0,0.0,0.0,0.0,0.0,0.0,0.0,0.0,0.0,0.0,0.0,0.0,0.0,0.0,3.0506,3.0506,3.0506,3.0506,3.0506,3.0506,3.0506,3.0506,3.0506,3.0506,3.0506,3.0506,3.0506,3.0506,3.0506,3.0506,3.0506,3.0495,3.0426,3.0016,2.9821,2.9717,2.9303,2.9404,2.9793,2.9793,3.0092,3.0605,0.0,0.0,0.0,0.0,0.0,0.0,0.0,0.0,0.0,0.0,0.0,0.0,0.0,0.0,0.0,0.0,0.0,0.0,0.0,0.0,0.0,0.0,0.0,0.0,0.0,0.0,0.0,0.0,0.0,2.6477,2.6477,2.7042,2.7451,2.7704,2.7159,2.7528,2.858,2.8892,0.0,0.0,0.0,0.0,0.0,0.0,0.0,0.0,0.0,0.0,0.0,0.0,0.0,0.0,0.0,0.0,0.0,0.0,0.0,0.0,0.0,0.0,0.0,0.0,0.0,0.0,0.0,0.0,0.0,0.0,0.0,0.0,0.0,0.0,0.0,0.0,0.0,0.0,0.0,0.0,0.0,0.0,0.0,0.0,0.0,0.0,0.0,0.0,0.0,0.0,3.0472,3.0506,3.0506,3.0506,3.0506,3.0506,3.0506,3.0506,3.0506,3.0506,3.0506,3.0506,3.0506,3.0506,3.0506,3.0506,3.0506,3.0506,3.0495,3.0321,3.0258,3.022,3.006,3.0103,3.0258,3.0258,3.0353,3.0605,0.0,0.0,0.0,0.0,0.0,0.0,0.0,0.0,0.0,0.0,0.0,0.0,0.0,0.0,0.0,0.0,0.0,0.0,0.0,0.0,0.0,0.0,0.0,0.0,0.0,0.0,0.0,0.0,0.0,0.0,0.0,0.0,2.8366,2.8619,2.8035,0.0,0.0,0.0,0.0,3.0799,0.0,0.0,3.071,0.0,0.0,0.0,0.0,0.0,0.0,0.0,0.0,0.0,0.0,0.0,0.0,0.0,0.0,0.0,0.0,0.0,0.0,0.0,0.0,0.0,0.0,0.0,0.0,0.0,0.0,0.0,0.0,0.0,0.0,0.0,0.0,0.0,0.0,0.0,0.0,0.0,0.0,0.0,0.0,0.0,0.0,0.0,0.0,0.0,3.0092,3.0125,3.0241,3.0489,3.0506,3.0506,3.0506,3.0506,3.0506,3.0506,3.0506,3.0506,3.0506,3.0506,3.0506,3.0506,3.0506,3.0506,3.0506,3.0506,3.0506,3.0506,3.0506,3.0506,3.0506,3.0506,3.0654,3.0969,0.0,2.5707,2.5707,2.5707,2.5707,2.5692,0.0,0.0,0.0,0.0,0.0,0.0,0.0,0.0,0.0,0.0,0.0,0.0,0.0,0.0,0.0,0.0,0.0,0.0,0.0,0.0,0.0,0.0,0.0,0.0,0.0,0.0,2.8736,0.0,2.9535,2.9535,2.9593,0.0,0.0,3.0799,0.0,3.0767,3.0692,0.0,0.0,0.0,3.0598,3.0598,0.0,0.0,0.0,0.0,0.0,0.0,0.0,0.0,0.0,0.0,0.0,0.0,0.0,0.0,0.0,0.0,0.0,0.0,0.0,0.0,0.0,0.0,0.0,0.0,0.0,0.0,0.0,0.0,0.0,0.0,0.0,0.0,0.0,0.0,0.0,0.0,0.0,0.0,0.0,2.8664,2.9324,2.939,2.9744,3.0472,3.0506,3.0506,3.0506,3.0506,3.0506,3.0506,3.0506,3.0506,3.0506,3.0506,3.0506,3.0506,3.0506,3.0506,3.0506,3.0506,3.0506,3.0506,3.0506,3.0506,3.0506,3.0522,3.0986,3.1714,2.5705,2.5707,2.5707,2.5707,2.5707,2.5708,0.0,0.0,0.0,0.0,0.0,0.0,0.0,0.0,0.0,0.0,0.0,0.0,0.0,2.8261,2.8257,2.8208,2.8207,2.8197,0.0,0.0,0.0,0.0,0.0,0.0,0.0,0.0,0.0,0.0,3.043,3.043,3.0469,3.0703,0.0,0.0,3.0732,3.0695,0.0,0.0,0.0,0.0,0.0,3.0598,0.0,0.0,3.0598,3.0598,0.0,0.0,0.0,0.0,0.0,0.0,2.9849,0.0,0.0,0.0,0.0,0.0,0.0,0.0,0.0,0.0,0.0,0.0,0.0,0.0,0.0,0.0,0.0,0.0,0.0,0.0,0.0,0.0,0.0,0.0,0.0,0.0,0.0,0.0,2.7606,2.7912,2.8631,2.9142,2.9744,3.0472,3.0506,3.0506,3.0506,3.0506,3.0506,3.0506,3.0506,3.0506,3.0506,3.0506,3.0506,3.0506,3.0506,3.0506,3.0506,3.0506,3.0506,3.0506,3.0506,3.0506,3.0555,3.1101,3.1416,3.178,2.6137,2.6222,2.6343,2.6674,2.6777,0.0,0.0,0.0,0.0,0.0,0.0,0.0,0.0,0.0,0.0,0.0,0.0,0.0,0.0,2.9334,2.9335,2.9292,2.927,2.9278,0.0,0.0,0.0,0.0,0.0,0.0,0.0,0.0,0.0,0.0,0.0,0.0,0.0,0.0,0.0,0.0,3.0701,0.0,0.0,3.0604,3.0597,0.0,0.0,0.0,3.0598,3.0598,3.0598,0.0,0.0,0.0,0.0,0.0,0.0,0.0,0.0,0.0,0.0,0.0,0.0,0.0,0.0,2.8939,0.0,0.0,0.0,0.0,0.0,0.0,0.0,0.0,0.0,0.0,0.0,0.0,0.0,0.0,0.0,0.0,0.0,0.0,0.0,0.0,2.6842,2.7289,2.8343,2.9036,2.9744,3.0472,3.0506,3.0506,3.0506,3.0506,3.0506,3.0506,3.0506,3.0506,3.0506,3.0506,3.0506,3.0506,3.0506,3.0506,3.0506,3.0506,3.0506,3.0506,3.0506,3.0506,3.0588,3.1333,3.1797,3.2232,0.0,2.7096,2.7362,2.8085,2.8252,0.0,0.0,0.0,0.0,0.0,0.0,0.0,0.0,0.0,0.0,0.0,0.0,0.0,0.0,3.0798,3.0801,3.0801,3.0798,3.0803,3.0808,0.0,0.0,0.0,0.0,0.0,0.0,0.0,0.0,0.0,0.0,0.0,0.0,0.0,0.0,3.0691,3.0696,3.0655,0.0,0.0,3.0593,0.0,3.0598,3.0598,3.0598,3.0598,3.0598,0.0,0.0,0.0,0.0,0.0,3.0091,0.0,0.0,0.0,0.0,0.0,0.0,0.0,2.9162,2.8986,2.8815,0.0,0.0,0.0,0.0,0.0,0.0,0.0,0.0,0.0,0.0,0.0,0.0,0.0,0.0,0.0,0.0,0.0,2.6211,2.6211,2.6211,2.6816,2.8194,2.892,2.9622,3.0357,3.0456,3.0506,3.0506,3.0506,3.0506,3.0506,3.0506,3.0506,3.0506,3.0506,3.0506,3.0506,3.0506,3.0506,3.0506,3.0506,3.0506,3.0506,3.0506,3.0555,3.0704,3.1449,3.2188,3.2923,2.7909,2.7956,2.8024,2.816,0.0,0.0,0.0,0.0,0.0,0.0,0.0,0.0,0.0,0.0,0.0,0.0,0.0,0.0,0.0,3.0806,3.0794,3.0801,3.0798,3.0807,3.0805,3.0622,0.0,0.0,0.0,0.0,0.0,0.0,0.0,0.0,0.0,0.0,0.0,0.0,0.0,3.0614,3.069,0.0,3.0592,3.0592,3.0605,3.0598,3.0598,3.0598,3.0598,0.0,3.0598,3.0586,0.0,0.0,0.0,0.0,0.0,0.0,0.0,0.0,0.0,0.0,0.0,0.0,2.936,2.931,2.9235,0.0,0.0,0.0,0.0,0.0,0.0,0.0,0.0,0.0,0.0,0.0,0.0,0.0,0.0,0.0,0.0,0.0,2.6211,2.6211,2.6211,2.6575,2.7474,2.8194,2.8913,2.9589,3.0191,3.0506,3.0506,3.0506,3.0506,3.0506,3.0506,3.0506,3.0506,3.0506,3.0506,3.0506,3.0506,3.0506,3.0506,3.0506,3.0506,3.0506,3.0506,3.0853,3.1466,3.2216,3.2956,3.3685,2.8709,2.8821,2.8972,2.9376,0.0,0.0,0.0,0.0,0.0,0.0,0.0,0.0,0.0,0.0,0.0,0.0,0.0,0.0,0.0,0.0,3.0808,3.0799,3.0801,3.0797,3.0794,3.0798,3.0801,0.0,0.0,0.0,0.0,0.0,0.0,0.0,0.0,0.0,0.0,0.0,3.0668,3.0608,3.0632,0.0,3.0598,3.0598,3.0598,3.0598,3.0598,3.0598,3.0598,3.0598,3.0552,0.0,0.0,3.0371,3.0311,0.0,2.9957,2.9779,0.0,0.0,0.0,2.9402,0.0,0.0,0.0,2.9251,2.9156,0.0,0.0,0.0,0.0,0.0,0.0,0.0,0.0,0.0,0.0,0.0,0.0,0.0,0.0,0.0,0.0,0.0,2.6211,2.6211,2.6211,2.6518,2.7258,2.7995,2.8714,2.939,3.0125,3.0506,3.0506,3.0506,3.0506,3.0506,3.0506,3.0506,3.0506,3.0506,3.0506,3.0506,3.0506,3.0506,3.0506,3.0506,3.0506,3.0539,3.0903,3.1267,3.173,3.2829,3.3486,3.3917,2.9502,2.9688,2.9944,3.0592,0.0,0.0,0.0,0.0,0.0,0.0,0.0,0.0,0.0,0.0,0.0,0.0,0.0,0.0,0.0,0.0,3.0807,3.0797,3.0799,3.0801,3.0805,3.0797,3.0801,3.0793,0.0,0.0,0.0,0.0,0.0,0.0,0.0,0.0,0.0,0.0,0.0,3.0593,0.0,3.0591,3.0598,3.0598,3.0598,3.0598,3.0598,3.0598,3.0598,3.0598,0.0,3.0433,3.0381,3.0336,0.0,0.0,0.0,0.0,0.0,0.0,0.0,0.0,0.0,2.9365,0.0,0.0,0.0,0.0,0.0,0.0,0.0,0.0,0.0,0.0,0.0,0.0,0.0,0.0,0.0,0.0,0.0,0.0,0.0,0.0,2.6274,2.6194,2.6257,2.6524,2.705,2.7796,2.8499,2.9201,2.992,3.0357,3.0506,3.0506,3.0506,3.0506,3.0506,3.0506,3.0506,3.0506,3.0506,3.0506,3.0506,3.0506,3.0506,3.0506,3.0572,3.077,3.1366,3.1697,3.1973,3.3309,3.39,3.4099,3.0528,3.0563,3.0613,3.0754,0.0,0.0,0.0,0.0,0.0,0.0,0.0,0.0,0.0,0.0,0.0,0.0,0.0,0.0,3.0801,0.0,0.0,3.0804,3.0796,3.08,3.08,3.081,3.0792,3.0808,0.0,0.0,0.0,0.0,0.0,0.0,3.0734,0.0,0.0,0.0,3.0608,0.0,3.0605,3.0602,0.0,3.0598,3.0598,3.0598,3.0598,3.0598,3.0598,0.0,3.0593,3.0542,0.0,3.0318,0.0,0.0,0.0,0.0,0.0,0.0,0.0,0.0,2.9402,0.0,0.0,0.0,0.0,0.0,0.0,0.0,0.0,0.0,0.0,0.0,0.0,0.0,0.0,0.0,0.0,0.0,0.0,0.0,0.0,0.0,0.0,2.6212,2.6478,2.6554,2.6328,2.7024,2.7755,2.8492,2.9168,2.9837,3.0489,3.0506,3.0506,3.0506,3.0506,3.0506,3.0506,3.0506,3.0506,3.0506,3.0506,3.0506,3.0506,3.0506,3.0886,3.1482,3.1565,3.2006,3.2674,3.3503,3.4215,3.4783,3.0681,3.0704,3.0704,0.0,0.0,0.0,0.0,0.0,0.0,0.0,0.0,0.0,0.0,0.0,0.0,0.0,0.0,3.0801,0.0,0.0,0.0,0.0,3.0807,3.0794,3.0799,3.08,3.0796,3.0809,3.0808,0.0,0.0,0.0,0.0,0.0,3.0769,0.0,3.0731,0.0,0.0,0.0,0.0,0.0,0.0,3.0965,3.0598,3.0598,3.0598,3.0598,3.0598,0.0,3.0547,0.0,0.0,0.0,0.0,0.0,0.0,0.0,0.0,0.0,0.0,0.0,0.0,0.0,0.0,0.0,2.9027,0.0,0.0,0.0,0.0,0.0,0.0,0.0,0.0,0.0,0.0,0.0,0.0,0.0,0.0,0.0,0.0,0.0,0.0,0.0,0.0,2.6547,2.6212,2.6892,2.763,2.8376,2.9052,2.9744,3.0489,3.0506,3.0506,3.0506,3.0506,3.0506,3.0506,3.0506,3.0506,3.0506,3.0506,3.0506,3.0506,3.0506,3.0936,3.1648,3.2072,3.268,3.3436,3.4165,3.4618,3.4899,3.0653,0.0,0.0,0.0,0.0,0.0,3.0802,3.0794,3.0898,0.0,0.0,0.0,3.1484,3.1308,0.0,0.0,0.0,3.0801,0.0,0.0,3.1055,0.0,0.0,0.0,0.0,3.0798,3.08,3.0799,3.0809,0.0,0.0,0.0,0.0,0.0,0.0,3.1228,3.1428,0.0,0.0,3.2159,3.2159,3.2546,3.2972,3.1756,3.1137,3.0926,3.0926,3.0791,3.0598,3.0598,3.054,0.0,3.0394,0.0,0.0,0.0,0.0,0.0,2.946,0.0,0.0,0.0,0.0,0.0,0.0,0.0,0.0,0.0,0.0,0.0,0.0,0.0,0.0,0.0,0.0,0.0,0.0,0.0,0.0,0.0,0.0,0.0,0.0,0.0,0.0,0.0,2.6649,2.6649,2.6212,2.6709,2.7431,2.8376,2.887,2.9572,3.0489,3.0506,3.0506,3.0506,3.0506,3.0506,3.0506,3.0506,3.0506,3.0506,3.0506,3.0562,3.0648,3.0648,3.1225,3.2124,3.2651,3.3372,3.4165,3.47,3.4899,3.4899,3.0556,3.0664,0.0,0.0,0.0,0.0,3.0798,3.08,3.1094,0.0,0.0,0.0,0.0,0.0,0.0,0.0,0.0,3.0801,3.0801,0.0,3.168,0.0,0.0,3.1661,0.0,0.0,3.0799,3.08,3.08,0.0,0.0,0.0,0.0,0.0,0.0,3.2391,3.3114,3.315,3.3117,3.3066,3.3066,3.3085,3.3085,0.0,3.2507,3.1753,3.1753,0.0,0.0,3.0598,3.0595,0.0,0.0,0.0,0.0,0.0,0.0,0.0,0.0,0.0,0.0,2.9427,0.0,0.0,0.0,0.0,2.9038,0.0,0.0,0.0,0.0,0.0,0.0,0.0,0.0,0.0,0.0,0.0,0.0,0.0,0.0,0.0,0.0,0.0,0.0,2.6733,2.6997,2.6899,2.623,2.6227,2.6899,2.8343,2.8426,2.9112,3.0489,3.0506,3.0506,3.0506,3.0506,3.0506,3.0506,3.0506,3.0506,3.0506,3.0506,3.072,3.1083,3.1083,3.1945,3.3252,3.3269,3.3924,3.4866,3.4883,3.4899,3.4899,0.0,0.0,0.0,0.0,0.0,0.0,3.1561,3.2148,3.2636,0.0,0.0,0.0,0.0,0.0,3.2967,0.0,0.0,3.2518,3.2518,3.2792,0.0,0.0,0.0,3.2811,0.0,0.0,3.2527,3.2527,3.2518,0.0,0.0,0.0,0.0,0.0,0.0,3.2994,0.0,0.0,0.0,0.0,0.0,3.4485,3.3905,0.0,0.0,3.2662,3.2662,3.2488,0.0,3.1582,3.1354,3.1221,3.0562,3.0247,3.0087,2.9975,2.9838,0.0,0.0,0.0,2.9654,2.9511,0.0,0.0,0.0,0.0,0.0,0.0,0.0,0.0,0.0,0.0,0.0,0.0,0.0,0.0,0.0,0.0,0.0,0.0,0.0,0.0,0.0,0.0,0.0,2.6733,2.6808,2.6674,0.0,2.6211,2.6882,2.8343,2.8392,2.9079,3.0489,3.0506,3.0506,3.0506,3.0506,3.0506,3.0506,3.0506,3.0506,3.0506,3.0506,3.0572,3.0749,3.1222,3.2207,3.3385,3.355,3.4342,3.5333,3.5013,3.4899,3.4899,3.1917,0.0,0.0,0.0,0.0,0.0,0.0,0.0,0.0,0.0,3.3865,0.0,3.4294,0.0,3.3865,0.0,3.3573,3.3396,3.3396,3.369,0.0,3.3416,3.3709,0.0,0.0,0.0,3.3396,3.3396,0.0,3.3398,0.0,0.0,0.0,0.0,0.0,0.0,0.0,0.0,3.4865,0.0,0.0,3.5358,0.0,0.0,3.3825,3.3554,0.0,3.3358,3.3008,3.2449,3.2202,3.1968,3.107,3.0664,3.0422,3.0071,2.9862,2.9778,2.9747,2.9778,0.0,2.9546,2.9593,0.0,2.9189,0.0,0.0,0.0,0.0,0.0,0.0,0.0,0.0,0.0,0.0,0.0,0.0,0.0,0.0,0.0,0.0,0.0,0.0,0.0,2.7322,2.6741,2.6808,2.6683,0.0,0.0,2.6882,2.8343,2.8392,2.9079,3.0489,3.0506,3.0506,3.0506,3.0506,3.0506,3.0506,3.0506,3.0506,3.0506,3.0506,3.0582,3.0786,3.1697,3.2685,3.3669,3.4087,3.4807,3.5549,3.5264,3.5148,3.5171,3.2849,0.0,0.0,0.0,3.3385,0.0,0.0,0.0,3.3826,0.0,3.4764,3.5076,3.5914,3.5251,3.4764,3.4764,3.4002,0.0,3.3533,3.4295,0.0,0.0,3.4315,3.4374,3.3552,0.0,0.0,0.0,0.0,0.0,0.0,0.0,0.0,0.0,3.4588,0.0,3.5808,3.5732,3.5706,3.5706,3.5706,3.5706,3.5706,3.5706,3.5184,3.4452,3.4452,3.3924,3.322,3.3177,3.3078,3.2788,3.1853,3.1509,3.1253,3.0293,3.0025,3.0009,2.9947,2.9925,2.9862,2.9635,0.0,0.0,0.0,0.0,2.9056,0.0,0.0,0.0,0.0,0.0,0.0,0.0,0.0,0.0,0.0,0.0,0.0,0.0,0.0,0.0,0.0,2.7972,2.7745,2.68,2.7005,0.0,0.0,0.0,2.6901,2.8343,2.8392,2.9079,3.0489,3.0506,3.0506,3.0506,3.0506,3.0506,3.0506,3.051,3.0526,3.0506,3.051,3.0763,3.1221,3.2421,3.3369,3.4135,3.4863,3.5352,3.5616,3.5571,3.5582,3.5683,3.3567,3.4264,3.4767,0.0,3.4527,3.4306,0.0,0.0,0.0,0.0,3.5661,3.5758,3.5973,3.5797,3.5661,3.5661,3.5465,0.0,0.0,0.0,0.0,3.5348,3.5543,3.5563,3.5348,3.5329,0.0,3.5329,0.0,0.0,3.5327,0.0,0.0,0.0,0.0,0.0,3.5808,3.5732,3.5706,3.5706,3.5706,3.5706,0.0,0.0,3.5552,3.5378,3.5378,3.5223,3.4919,3.417,3.3866,3.3611,3.2626,3.2235,3.2085,3.1823,3.1758,3.1749,3.175,3.1723,3.1545,3.0804,3.0645,3.0401,0.0,0.0,0.0,0.0,0.0,0.0,0.0,0.0,0.0,0.0,0.0,0.0,0.0,0.0,0.0,0.0,0.0,0.0,2.8053,2.7704,2.7346,2.7093,2.6923,0.0,0.0,0.0,0.0,2.8369,2.8392,2.9079,3.0489,3.0506,3.0506,3.0506,3.0506,3.0506,3.0499,3.0811,3.0781,3.0526,3.0821,3.116,3.1579,3.2774,3.3912,3.4969,3.5652,3.5965,3.5966,3.5316,3.5493,3.5966,3.4426,3.5004,0.0,3.5483,0.0,0.0,3.5179,0.0,0.0,3.5952,3.5661,0.0,3.5953,3.5992,3.5992,3.5992,3.5992,0.0,0.0,0.0,0.0,3.5992,3.5992,3.5992,3.5992,3.5992,0.0,3.6005,0.0,0.0,3.5961,0.0,0.0,0.0,0.0,3.5795,0.0,3.5732,3.5706,3.5706,3.5706,0.0,0.0,3.5706,3.5706,3.5706,3.5706,3.5706,3.5596,3.4975,3.4698,3.445,3.3482,3.3084,3.2895,3.2516,3.2402,3.2402,3.2402,3.2402,3.2266,3.1708,3.1599,3.1407,3.0559,2.993,2.9438,0.0,0.0,0.0,0.0,0.0,0.0,0.0,0.0,0.0,0.0,0.0,0.0,0.0,0.0,0.0,2.8168,2.7582,2.7141,2.6997,0.0,0.0,0.0,0.0,0.0,2.8369,2.8681,2.9367,3.0489,3.0506,3.0506,3.0506,3.0506,3.0506,3.0516,3.073,3.0709,3.0537,3.1298,3.1729,3.2041,3.3744,3.4759,3.5262,3.5745,3.6169,3.6409,3.5526,3.5621,3.612,3.5205,0.0,0.0,0.0,0.0,0.0,0.0,3.5266,0.0,3.5895,0.0,3.5154,3.5914,3.5992,3.5992,3.5992,0.0,3.5992,3.5992,3.5992,3.5992,3.5992,3.5992,3.5992,3.5992,3.5992,0.0,0.0,0.0,0.0,0.0,0.0,0.0,0.0,0.0,0.0,0.0,3.5727,3.5706,0.0,3.5706,3.5706,3.5706,3.5706,3.5706,3.5706,3.5706,3.5698,3.5656,3.5522,3.5388,3.5132,3.4282,3.395,3.3714,3.2951,3.2724,3.2724,3.2724,3.2724,3.2687,3.2519,3.2537,3.2458,3.2016,3.1156,3.0394,3.0111,2.9163,2.837,0.0,0.0,0.0,0.0,0.0,0.0,0.0,0.0,0.0,0.0,0.0,0.0,0.0,0.0,0.0,0.0,0.0,0.0,0.0,0.0,0.0,2.8385,2.9052,0.0,3.0489,0.0,3.0506,3.0506,3.0506,3.052,3.0582,3.0634,3.0715,3.0862,3.1911,3.2442,3.2751,3.4855,3.5638,3.5535,3.5775,3.6301,3.6801,3.5983,3.5907,3.6183,0.0,0.0,0.0,0.0,0.0,3.5653,3.5788,3.5749,3.5762,3.5971,3.5875,3.5836,3.5973,3.5992,3.5992,3.5992,3.5992,0.0,0.0,0.0,0.0,3.5992,3.5992,3.5992,3.5992,3.5992,3.5994,0.0,3.6009,3.5976,0.0,0.0,0.0,0.0,0.0,0.0,3.5714,3.5695,0.0,3.5706,3.5706,3.5706,3.5706,3.5706,3.5706,3.5706,3.5706,3.562,3.5518,3.5385,3.5243,3.5094,3.4802,3.4704,3.4661,3.451,3.4453,3.4453,3.4453,3.4453,3.4297,3.362,3.3454,3.3214,3.2216,3.1669,3.1284,3.0969,3.004,2.9268,2.9198,0.0,0.0,0.0,0.0,0.0,0.0,0.0,0.0,0.0,0.0,0.0,0.0,0.0,0.0,0.0,0.0,0.0,0.0,0.0,0.0,0.0,0.0,0.0,0.0,0.0,3.0506,3.0506,3.0506,3.0669,3.1004,3.1338,3.1842,3.248,3.2649,3.3242,3.4181,3.4991,3.6038,3.7179,3.7219,3.7119,3.6841,3.6295,3.6147,3.6141,0.0,0.0,0.0,0.0,0.0,0.0,0.0,3.7282,0.0,3.6734,3.6285,3.6344,3.7243,3.734,3.7165,3.6715,3.6676,3.6481,3.6031,3.5992,3.5992,3.5992,3.5992,0.0,3.5992,3.5992,3.5999,3.5991,3.5991,3.5976,0.0,0.0,0.0,0.0,0.0,3.5752,0.0,0.0,0.0,3.5706,3.5706,3.5706,3.5706,3.5706,3.5706,3.5706,3.5706,3.5575,3.5392,3.533,3.5207,3.5079,3.4936,3.4908,3.4908,3.4908,3.4908,3.4908,3.4908,3.4908,3.4813,3.4415,3.432,3.415,3.3506,3.2799,3.2194,3.1894,3.0925,2.9969,2.949,2.9076,0.0,0.0,0.0,0.0,0.0,0.0,0.0,0.0,0.0,0.0,0.0,0.0,0.0,0.0,0.0,0.0,0.0,0.0,0.0,0.0,0.0,0.0,0.0,0.0,0.0,3.0506,3.0506,3.0709,3.1113,3.1728,3.2336,3.2942,3.3716,3.4468,3.5227,3.5826,3.6545,3.7215,3.6958,3.7017,3.7186,3.6471,3.6194,3.6116,0.0,3.6915,0.0,0.0,3.822,0.0,3.8563,3.8591,3.8357,3.7673,3.6989,3.7087,3.8454,3.8591,3.8318,3.7634,3.7575,3.7282,3.6598,3.6383,3.6285,3.6285,3.6109,3.5992,3.5992,3.5992,3.6003,0.0,3.6009,3.5995,0.0,0.0,0.0,0.0,0.0,0.0,0.0,0.0,3.5706,3.5706,3.5706,3.5706,3.5706,3.5706,3.5706,3.5706,3.5706,3.5522,3.5293,3.5322,3.5215,3.504,3.4926,3.4908,3.4908,3.4908,3.4908,3.4908,3.4908,3.4908,3.4908,3.4908,3.4874,3.4782,3.465,3.3819,3.3031,3.2795,3.1813,3.0704,2.984,2.9683,0.0,0.0,0.0,0.0,0.0,0.0,0.0,0.0,0.0,0.0,0.0,0.0,0.0,0.0,0.0,0.0,2.7414,2.8495,0.0,0.0,0.0,3.0541,3.0634,0.0,3.0506,0.0,3.0506,3.0854,3.1526,3.2161,3.2899,3.3754,3.4866,3.5605,3.6087,3.6664,3.6949,3.6997,3.6643,3.6939,3.7503,3.6654,3.6357,3.6242,0.0,0.0,0.0,0.0,0.0,0.0,0.0,3.8591,3.8572,3.8494,3.8415,3.8415,3.8572,3.8591,3.8572,3.8494,3.8474,3.8435,3.8357,3.7614,3.7184,3.7184,3.6422,3.5992,3.5992,3.5992,3.5994,0.0,0.0,3.5975,3.5912,0.0,0.0,0.0,0.0,0.0,0.0,3.5706,3.5706,3.5706,3.5706,3.5706,3.5706,3.5706,3.5706,3.5706,3.5706,3.5522,3.5327,3.544,3.5235,3.4927,3.4894,3.4908,3.4908,3.4908,3.4908,3.4908,3.4908,3.4908,3.4908,3.4908,3.4766,3.4615,3.4594,3.4147,3.3685,3.3609,3.2683,3.1617,3.074,3.0582,3.0302,0.0,0.0,0.0,0.0,0.0,0.0,0.0,0.0,0.0,0.0,0.0,0.0,0.0,0.0,2.8387,2.7798,2.9121,2.9906,2.9942,0.0,3.0685,3.1044,3.0669,0.0,3.0506,3.0506,3.1328,3.2818,3.2896,3.4159,3.6238,3.5966,3.6201,3.6794,3.6865,3.715,3.7531,3.7494,3.7531,3.754,3.7007,3.6841,3.6771,0.0,0.0,0.0,0.0,0.0,0.0,0.0,3.8865,3.8591,3.8591,3.8591,3.8786,3.9274,3.8884,3.8396,3.7868,3.8298,3.8376,3.7849,3.7985,3.7849,3.7321,3.697,3.6539,3.6012,3.5992,3.5995,0.0,0.0,3.5993,3.5957,3.5994,0.0,0.0,0.0,3.5708,3.5706,3.5706,3.5706,3.5706,3.5706,3.5706,3.5706,3.5706,3.5706,3.5706,3.5706,3.5584,3.5427,3.5473,3.5239,3.4903,3.4991,3.4959,3.4908,3.4908,3.4908,3.4908,3.4908,3.4908,3.4908,3.4908,3.4751,3.455,3.4404,3.4074,3.3753,3.3556,3.3063,3.2393,3.1518,3.1333,3.1038,0.0,0.0,0.0,0.0,0.0,0.0,0.0,0.0,0.0,0.0,0.0,0.0,0.0,0.0,0.0,2.8165,2.9361,3.0167,3.0409,0.0,3.1116,3.129,3.135,3.1405,3.1414,3.1887,3.2588,3.3442,3.4417,3.5621,3.6977,3.7059,3.6905,3.6643,3.7161,3.7292,3.7215,3.7503,3.7595,3.754,3.7073,3.69,3.6841,3.8578,0.0,3.9075,0.0,3.9496,3.9338,3.963,3.925,3.904,3.9294,3.9118,3.9176,3.9741,3.9293,3.8805,3.8454,3.8982,3.8961,3.8082,3.8395,3.8337,3.7712,3.7438,0.0,3.6403,3.6383,3.6269,3.6001,3.6007,0.0,3.5995,0.0,0.0,0.0,3.5731,3.5701,3.5689,3.5693,3.5706,3.5706,3.5706,3.5706,3.5706,3.5706,3.5706,3.5706,3.5706,3.5611,3.5509,3.5509,3.5435,3.5315,3.5147,3.5004,3.4908,3.4908,3.4908,3.4908,3.4908,3.4908,3.4908,3.4908,3.4751,3.4528,3.4257,3.3992,3.3726,3.3459,3.3297,3.2985,3.2319,3.2143,3.1839,3.0993,0.0,0.0,0.0,0.0,0.0,0.0,0.0,3.0564,0.0,0.0,0.0,0.0,0.0,0.0,2.8867,2.9763,0.0,0.0,0.0,0.0,0.0,3.1851,3.2116,3.2369,3.2927,3.3643,3.4507,3.5999,3.6943,3.746,3.7757,3.7504,3.6882,3.7459,3.7477,3.7169,3.7476,3.7595,3.7558,3.7234,3.7102,3.7063,3.7992,3.8073,3.8141,3.8205,3.8326,3.8721,3.9654,3.9799,4.0093,4.0952,4.0327,3.98,3.98,3.98,4.0132,4.0972,4.1051,4.0699,3.9839,3.9039,3.8591,0.0,0.0,3.7301,3.7282,3.7282,3.6852,3.5992,0.0,0.0,3.5996,0.0,3.589,3.5885,3.5752,3.5706,3.5701,3.5689,3.5706,3.5706,3.5706,3.5706,3.5706,3.5706,3.5706,3.5706,3.5706,3.5611,3.5509,3.5509,3.589,3.6221,3.5367,3.5004,3.4908,3.4908,3.4908,3.4908,3.4908,3.4908,3.4908,3.4908,3.4751,3.4528,3.4257,3.3992,3.3726,3.3459,3.3393,3.3334,3.3114,3.3076,3.2778,3.1844,0.0,0.0,0.0,0.0,0.0,0.0,3.0504,3.0551,3.0689,0.0,0.0,0.0,0.0,0.0,0.0,0.0,0.0,3.1276,3.1357,0.0,3.1994,3.2003,3.2404,3.318,3.3198,3.4285,3.6301,3.7449,3.7974,3.7984,3.7943,3.789,3.7872,3.7748,3.7694,3.7685,3.7622,3.7595,3.7595,3.7586,3.7586,3.7586,3.8613,3.8769,3.8969,3.9592,3.9386,3.9244,3.956,3.9249,3.9079,3.9352,3.9157,3.9196,3.9741,3.9313,3.9099,0.0,3.9898,4.0093,0.0,4.0113,4.0035,3.9449,3.8629,3.8181,3.8181,3.7595,3.7165,3.6891,0.0,0.0,0.0,3.587,3.5825,3.5832,3.5747,3.5692,3.5692,3.5695,3.5706,3.5706,3.5706,3.5706,3.5764,3.6303,3.6516,3.6593,3.719,3.7385,3.7333,3.724,3.7264,3.7281,3.6919,3.6715,3.6599,3.6599,3.6599,3.6599,3.6599,3.6599,3.6599,3.6599,3.6421,3.6216,3.6123,3.5342,3.4394,3.3575,3.3367,3.3315,3.3254,3.3111,3.2929,3.2631,3.2549,0.0,0.0,0.0,0.0,0.0,3.2142,3.2166,0.0,3.1885,0.0,0.0,0.0,0.0,0.0,0.0,0.0,0.0,3.1403,0.0,3.302,3.3246,3.3891,3.4972,3.5527,3.6418,3.7607,3.7971,3.814,3.814,3.8106,3.8045,3.7967,3.7915,3.788,3.7819,3.7712,3.7676,3.7649,3.7613,3.7595,3.7595,3.8484,3.8621,3.8835,3.9431,3.9226,3.9098,3.9452,3.9223,3.9134,3.9466,3.9519,3.9723,4.0229,3.984,0.0,3.9548,3.9996,4.0151,3.9819,4.0307,4.0366,3.9819,3.9313,3.9059,3.9059,0.0,0.0,3.779,3.7767,3.7461,3.6943,3.6844,3.6621,3.6287,3.6231,3.6202,3.6198,3.616,3.6342,3.6632,3.6632,3.6632,3.669,3.719,3.7384,3.7461,3.8002,3.8196,3.8175,3.7989,3.8093,3.8261,3.807,3.8168,3.8224,3.7585,3.7395,3.7395,3.7395,3.7395,3.7395,3.7395,3.7278,3.7094,3.6904,3.6053,3.5104,3.4445,3.4036,3.3774,3.3769,3.3399,3.3099,3.3042,3.2979,3.294,3.294,0.0,0.0,0.0,0.0,0.0,0.0,3.277,0.0,0.0,0.0,0.0,0.0,0.0,0.0,3.1346,3.2138,0.0,3.3687,3.4335,3.5215,3.6254,3.7077,3.7711,3.82,3.82,3.82,3.82,3.82,3.8157,3.8061,3.8009,3.7976,3.7925,3.7828,3.773,3.7694,3.764,3.7613,3.7595,3.7868,3.7948,0.0,0.0,3.8269,0.0,3.9469,3.9698,4.0078,4.0901,4.1066,4.1109,4.1109,4.1109,4.1109,4.1109,0.0,0.0,0.0,3.9897,3.9897,3.9897,3.9839,3.9839,3.9897,3.9839,3.943,3.8672,3.8555,3.8509,3.8507,3.8496,3.8033,3.7184,3.7197,3.7147,3.7094,3.7022,3.7461,3.8196,3.8196,3.8196,3.8215,3.8273,3.8292,3.8292,3.837,3.8389,3.834,3.8078,3.8505,3.9144,3.8863,3.9304,3.9597,3.8035,3.7566,3.7566,3.7566,3.7566,3.7566,3.7566,3.7556,3.7411,3.6826,3.6296,3.589,3.5812,3.5196,3.4666,3.4589,3.3978,3.3406,3.3232,3.3121,3.3066,3.3021,0.0,0.0,0.0,0.0,0.0,0.0,3.2963,3.2842,0.0,0.0,0.0,0.0,0.0,3.1944,3.2135,3.3384,3.4089,3.4167,3.5285,3.6266,3.7085,3.7846,3.82,3.82,3.82,3.82,3.82,3.82,3.82,3.82,3.8061,3.8009,3.801,3.7925,3.7837,3.7721,3.7703,3.7667,3.7622,0.0,0.0,3.904,3.9792,4.0016,4.0175,4.0444,4.0612,4.0776,4.1032,4.1084,4.1109,4.1109,4.1109,4.1109,4.1109,4.1109,4.1011,4.0816,4.0796,4.0796,4.0796,4.0151,4.0112,4.0777,4.0132,3.971,3.9527,3.8827,3.8503,3.8506,3.8446,3.8304,3.8098,3.8036,3.8008,3.7991,3.7912,3.8002,3.8196,3.8196,3.8196,3.8273,3.8937,3.9188,3.9285,3.9942,4.0175,4.0143,3.9815,3.984,3.9965,3.9689,3.9748,3.9824,3.9426,3.9318,3.9318,3.9318,3.9318,3.9318,3.9318,3.9148,3.8763,3.7813,3.7291,3.6784,3.5968,3.5641,3.5514,3.5498,3.5296,3.4924,3.4271,3.4028,3.3723,3.3152,3.2961,3.2924,0.0,3.2932,3.2924,3.2963,3.3042,3.293,0.0,0.0,0.0,0.0,3.3969,3.382,3.2668,3.387,3.4951,3.5818,3.6119,3.6819,3.7919,3.8118,3.82,3.82,3.82,3.82,3.82,3.82,3.82,3.82,3.8165,3.8157,3.8149,3.8019,3.7967,3.7906,3.7757,3.7685,3.7658,3.9544,3.9646,3.9823,4.0364,4.0546,4.0648,4.0738,4.0846,4.093,4.1034,4.1079,4.1109,4.1109,4.1109,4.1109,4.1109,4.1109,4.1109,4.1109,4.1109,4.1109,4.1109,4.0659,4.062,4.109,4.064,4.0392,4.0383,3.9921,3.9697,3.9686,3.9646,3.9392,3.8947,3.8915,3.8881,3.885,3.8813,3.9011,3.9398,3.9398,3.9398,3.9437,3.9904,4.0081,4.0158,4.0623,4.0797,4.0746,4.0415,4.0305,4.0257,3.9974,3.99,3.99,3.99,3.99,3.99,3.99,3.99,3.99,3.99,3.958,3.9129,3.8535,3.8063,3.7603,3.7019,3.6598,3.6345,3.6345,3.6023,3.5593,3.517,3.4985,3.4749,3.4348,3.4173,3.4091,3.4142,3.4117,3.4091,3.4142,3.4229,3.4108,3.3674,0.0,0.0,3.4191,3.5145,3.5225,3.42,3.5198,3.6057,3.6667,3.7044,3.7553,3.82,3.82,3.82,3.82,3.82,3.82,3.82,3.82,3.82,3.82,3.82,3.82,3.82,3.8114,3.8053,3.7984,3.788,3.7828,3.7793,4.0306,4.0309,4.032,4.0379,4.0468,4.0558,4.0672,4.0762,4.0844,4.0982,4.1064,4.1109,4.1109,4.1109,4.1109,4.1109,4.1109,4.1109,4.1109,4.1109,4.1109,4.1109,4.1109,4.1109,4.1109,4.1109,4.1091,4.1094,4.1094,4.1106,4.1103,4.1109,4.0631,3.9827,3.9811,3.9757,3.9701,3.9703,4.012,4.0797,4.0797,4.0797,4.0797,4.0797,4.0797,4.0797,4.0797,4.0797,4.0746,4.0415,4.0305,4.0257,3.9974,3.99,3.99,3.99,3.99,3.99,3.99,3.99,3.99,3.99,3.9452,3.9001,3.9001,3.86,3.82,3.82,3.7665,3.7176,3.7176,3.6616,3.612,3.5993,3.5927,3.5833,3.5732,0.0,3.5504,3.5531,3.5504,3.5504,3.5531,3.5622,3.5532,3.5064,3.5258,3.5243,0.0,3.5972,3.6456,3.6166,3.6824,3.7176,3.7176,3.7865,3.82,3.82,3.82,3.82,3.82,3.82,3.82,3.82,3.82,3.82,3.82,3.82,3.82,3.82,3.82,3.8122,3.8036,3.8001,3.7959,3.7916,4.0306,4.0309,4.032,4.0379,4.0468,4.0558,4.0672,4.0762,4.0844,4.0982,4.1064,4.1109,4.1109,4.1109,4.1109,4.1109,4.1109,4.1109,4.1109,4.1109,4.1109,4.1109,4.1109,4.1109,4.1109,4.1109,4.1098,4.1109,4.1093,4.1101,4.11,4.1096,4.1026,4.0857,4.0749,4.0687,4.0684,4.0629,4.0681,4.0797,4.0797,4.0797,4.0797,4.0797,4.0797,4.0797,4.0797,4.0797,4.0746,4.0415,4.0305,4.0257,3.9974,3.99,3.99,3.99,3.99,3.99,3.99,3.99,3.99,3.99,3.9452,3.9001,3.9001,3.86,3.82,3.82,3.8092,3.8009,3.8009,3.7911,3.7603,3.6922,3.6704,3.6437,3.586,0.0,3.5539,3.5656,3.5581,3.5547,3.5656,3.5698,3.568,3.5664,3.6302,3.6681,3.6614,3.7432,3.7888,3.7838,3.7947,3.8009,3.8009,3.8136,3.82,3.82,3.82,3.82,3.82,3.82,3.82,3.82,3.82,3.82,3.82,3.82,3.82,3.82,3.82,3.8192,3.8157,3.8044,3.7984,3.7984,4.0306,4.0309,4.032,4.0379,4.0468,4.0565,4.0724,4.0779,4.0861,4.103,4.1079,4.1109,4.1109,4.1109,4.1109,4.1109,4.1109,4.1109,4.1109,4.1109,4.1109,4.1109,4.1109,4.1109,4.1109,4.1109,4.1094,4.1102,4.1093,4.1104,4.1095,4.1103,4.108,4.104,4.0939,4.0874,4.0841,4.0814,4.0797,4.0797,4.0797,4.0797,4.0797,4.0797,4.0797,4.0797,4.0797,4.0797,4.0746,4.0415,4.0305,4.0257,3.9974,3.99,3.99,3.99,3.99,3.99,3.99,3.99,3.99,3.99,3.9452,3.9001,3.9001,3.86,3.82,3.82,3.82,3.82,3.82,3.82,3.8074,3.772,3.7588,0.0,0.0,3.7012,3.6987,3.7046,3.6995,3.6987,3.7046,3.7046,3.7063,3.7087,3.744,3.7647,3.7647,3.8001,3.82,3.82,3.82,3.82,3.82,3.82,3.82,3.82,3.82,3.82,3.82,3.82,3.82,3.82,3.82,3.82,3.82,3.82,3.82,3.82,3.82,3.82,3.82,3.8122,3.8105,3.8097,4.0306,4.03,4.0326,4.0398,4.0441,4.0546,4.0757,4.0794,4.0869,4.1046,4.1084,4.1109,4.1109,4.1109,4.1109,4.1109,4.1109,4.1109,4.1109,4.1109,4.1109,4.1109,4.1109,4.1109,4.1109,4.1109,4.1109,4.1109,4.1094,4.1107,4.1107,4.1093,4.1075,4.1027,4.0935,4.0866,4.0823,4.0808,4.0797,4.0797,4.0797,4.0797,4.0797,4.0797,4.0797,4.0797,4.0797,4.0797,4.0746,4.0415,4.0305,4.0257,3.9974,3.99,3.99,3.99,3.99,3.99,3.99,3.99,3.99,3.99,3.9495,3.9122,3.9122,3.8688,3.8281,3.8281,3.8241,3.82,3.82,3.82,3.82,3.82,0.0,0.0,0.0,3.82,3.82,3.82,3.82,3.82,3.82,3.82,3.82,3.82,3.82,3.82,3.82,3.82,3.82,3.82,3.82,3.82,3.82,3.82,3.82,3.82,3.82,3.82,3.82,3.82,3.82,3.82,3.82,3.82,3.82,3.82,3.82,3.82,3.82,3.82,3.82,3.82,3.82,3.82,4.0306,4.0306,4.0319,4.0389,4.0392,4.0487,4.0678,4.0765,4.0846,4.099,4.1066,4.1109,4.1109,4.1109,4.1109,4.1109,4.1109,4.1109,4.1109,4.1109,4.1109,4.1109,4.1109,4.1109,4.1109,4.1109,4.1109,4.1109,4.1094,4.1107,4.1107,4.1093,4.1107,4.1083,4.0967,4.0905,4.0896,4.0828,4.0797,4.0797,4.0797,4.0797,4.0797,4.0797,4.0797,4.0797,4.0797,4.0797,4.0746,4.0415,4.0305,4.0257,3.9974,3.99,3.99,3.99,3.99,3.99,3.99,3.99,3.99,3.99,3.9676,3.9458,3.9458,3.899,3.8561,3.8561,3.836,3.82,3.82,3.82,3.82,3.82,0.0,0.0,3.82,3.82,3.82,3.82,3.82,3.82,3.82,3.82,3.82,3.82,3.82,3.82,3.82,3.82,3.82,3.82,3.82,3.82,3.82,3.82,3.82,3.82,3.82,3.82,3.82,3.82,3.82,3.82,3.82,3.82,3.82,3.82,3.82,3.82,3.82,3.82,3.82,3.82,3.82,3.82,4.0306,4.0291,4.0317,4.0398,4.0432,4.0531,4.0735,4.0784,4.0865,4.1036,4.1081,4.1109,4.1109,4.1109,4.1109,4.1109,4.1109,4.1109,4.1109,4.1109,4.1109,4.1109,4.1109,4.1109,4.1109,4.1109,4.1109,4.1109,4.1091,4.1093,4.1107,4.1095,4.1098,4.1086,4.0969,4.0907,4.09,4.0828,4.0797,4.0797,4.0797,4.0797,4.0797,4.0797,4.0797,4.0797,4.0797,4.0797,4.0755,4.0519,4.0371,4.027,4.0076,3.9967,3.99,3.99,3.99,3.99,3.99,3.99,3.99,3.99,3.9706,3.9508,3.9508,3.9024,3.86,3.86,3.8385,3.82,3.82,3.82,3.82,3.82,0.0,3.82,3.82,3.82,3.82,3.82,3.82,3.82,3.82,3.82,3.82,3.82,3.82,3.82,3.82,3.82,3.82,3.82,3.82,3.82,3.82,3.82,3.82,3.82,3.82,3.82,3.82,3.82,3.82,3.82,3.82,3.82,3.82,3.82,3.82,3.82,3.82,3.82,3.82,3.82,3.82,3.82,4.0306,4.0295,4.0322,4.0398,4.0437,4.0534,4.0771,4.0808,4.0877,4.106,4.1109,4.1109,4.1109,4.1109,4.1109,4.1109,4.1109,4.1109,4.1109,4.1109,4.1109,4.1109,4.1109,4.1109,4.1109,4.1109,4.1109,4.1109,4.1107,4.1094,4.1107,4.1107,4.1093,4.1106,4.0984,4.0921,4.0903,4.0829,4.0793,4.0797,4.0797,4.0797,4.0797,4.0797,4.0797,4.0797,4.0797,4.0797,4.0778,4.0566,4.0411,4.0283,4.0148,4.0005,3.99,3.99,3.99,3.99,3.99,3.99,3.99,3.99,3.9764,3.9623,3.9623,3.9234,3.8887,3.8887,3.8595,3.833,3.833,3.8257,3.82,3.82,3.82,3.82,3.82,3.82,3.82,3.82,3.82,3.82,3.82,3.82,3.82,3.82,3.82,3.82,3.82,3.82,3.82,3.82,3.82,3.82,3.82,3.82,3.82,3.82,3.82,3.82,3.82,3.82,3.82,3.82,3.82,3.82,3.82,3.82,3.82,3.82,3.82,3.82,3.82,3.82,3.82,3.82,4.0306,4.0306,4.0314,4.0389,4.0407,4.05,4.0769,4.081,4.0877,4.106,4.1109,4.1109,4.1109,4.1109,4.1109,4.1109,4.1109,4.1109,4.1109,4.1109,4.1109,4.1109,4.1109,4.1109,4.1109,4.1109,4.1109,4.1109,4.1107,4.1094,4.1107,4.1108,4.1095,4.1107,4.1032,4.0952,4.0905,4.0831,4.0792,4.0797,4.0797,4.0797,4.0797,4.0797,4.0797,4.0797,4.0797,4.0797,4.0778,4.057,4.0411,4.0283,4.0148,4.0,3.99,3.99,3.99,3.99,3.99,3.99,3.99,3.99,3.99,3.99,3.99,3.9682,3.9508,3.9508,3.901,3.86,3.86,3.8377,3.8209,3.82,3.82,3.82,3.82,3.82,3.82,3.82,3.82,3.82,3.82,3.82,3.82,3.82,3.82,3.82,3.82,3.82,3.82,3.82,3.82,3.82,3.82,3.82,3.82,3.82,3.82,3.82,3.82,3.82,3.82,3.82,3.82,3.82,3.82,3.82,3.82,3.82,3.82,3.82,3.82,3.82,3.82,3.82,4.0306,4.0306,4.0305,4.0335,4.0399,4.0544,4.0778,4.0876,4.0974,4.1083,4.1109,4.1109,4.1109,4.1109,4.1109,4.1109,4.1109,4.1109,4.1109,4.1109,4.1109,4.1109,4.1109,4.1109,4.1109,4.1109,4.1109,4.1109,4.1095,4.1107,4.1094,4.1108,4.1108,4.1095,4.1031,4.0952,4.0905,4.0831,4.0792,4.0797,4.0797,4.0797,4.0797,4.0797,4.0797,4.0797,4.0797,4.0797,4.079,4.0739,4.0523,4.0266,4.0035,3.9924,3.99,3.99,3.99,3.99,3.99,3.99,3.99,3.99,3.99,3.99,3.99,3.9682,3.9508,3.9508,3.9175,3.8814,3.862,3.8523,3.8417,3.8224,3.82,3.82,3.82,3.82,3.82,3.82,3.82,3.82,3.82,3.82,3.82,3.82,3.82,3.82,3.82,3.82,3.82,3.82,3.82,3.82,3.82,3.82,3.82,3.82,3.82,3.82,3.82,3.82,3.82,3.82,3.82,3.82,3.82,3.82,3.82,3.82,3.82,3.82,3.82,3.82,3.82,3.82,4.0306,4.0306,4.0301,4.0298,4.0419,4.0575,4.0775,4.0914,4.1016,4.1085,4.1109,4.1109,4.1109,4.1109,4.1109,4.1109,4.1109,4.1109,4.1109,4.1109,4.1109,4.1109,4.1109,4.1109,4.1109,4.1109,4.1109,4.1109,4.1109,4.1103,4.1094,4.1091,4.1094,4.1109,4.1062,4.0988,4.0905,4.0854,4.0815,4.0797,4.0797,4.0797,4.0797,4.0797,4.0797,4.0797,4.0797,4.0797,4.0797,4.0797,4.0575,4.0257,3.9974,3.99,3.99,3.99,3.99,3.99,3.99,3.99,3.99,3.99,3.99,3.99,3.99,3.9775,3.9653,3.9653,3.9408,3.9143,3.9001,3.884,3.8673,3.8401,3.8362,3.8322,3.8207,3.82,3.82,3.82,3.82,3.82,3.82,3.82,3.82,3.82,3.82,3.82,3.82,3.82,3.82,3.82,3.82,3.82,3.82,3.82,3.82,3.82,3.82,3.82,3.82,3.82,3.82,3.82,3.82,3.82,3.82,3.82,3.82,3.82,3.82,3.82,3.82,3.82,3.82,3.82,4.0306,4.0306,4.0301,4.0293,4.0415,4.0575,4.0751,4.0912,4.1016,4.1085,4.1109,4.1109,4.1109,4.1109,4.1109,4.1109,4.1109,4.1109,4.1109,4.1109,4.1109,4.1109,4.1109,4.1109,4.1109,4.1109,4.1109,4.1109,4.1109,4.1107,4.1109,4.1108,4.1107,4.1096,4.1091,4.1032,4.0914,4.091,4.087,4.0803,4.0797,4.0797,4.0797,4.0797,4.0797,4.0797,4.0797,4.0797,4.0794,4.0784,4.0564,4.0257,3.9989,3.9911,3.99,3.99,3.99,3.99,3.99,3.99,3.99,3.99,3.99,3.99,3.99,3.99,3.99,3.99,3.9712,3.9532,3.9495,3.9242,3.8938,3.8681,3.8646,3.853,3.8274,3.8232,3.8242,3.8209,3.82,3.82,3.82,3.82,3.82,3.82,3.82,3.82,3.82,3.82,3.82,3.82,3.82,3.82,3.82,3.82,3.82,3.82,3.82,3.82,3.82,3.82,3.82,3.82,3.82,3.82,3.82,3.82,3.82,3.82,3.82,3.82,3.82,3.82,3.82,3.82,4.0306,4.0306,4.0306,4.0301,4.0415,4.0546,4.0702,4.0882,4.1016,4.1085,4.1109,4.1109,4.1109,4.1109,4.1109,4.1109,4.1109,4.1109,4.1109,4.1109,4.1109,4.1109,4.1109,4.1109,4.1109,4.1109,4.1109,4.1109,4.1109,4.1102,4.1093,4.1091,4.1096,4.11,4.1106,4.1047,4.0978,4.0924,4.0851,4.0804,4.0796,4.0797,4.0797,4.0797,4.0797,4.0797,4.0797,4.0797,4.0781,4.0617,4.0454,4.0274,4.011,3.9974,3.99,3.99,3.99,3.99,3.99,3.99,3.99,3.99,3.99,3.99,3.99,3.99,3.99,3.99,3.9843,3.9753,3.9545,3.9439,3.9287,3.8971,3.8903,3.8814,3.8546,3.8517,3.8441,3.8216,3.82,3.82,3.82,3.82,3.82,3.82,3.82,3.82,3.82,3.82,3.82,3.82,3.82,3.82,3.82,3.82,3.82,3.82,3.82,3.82,3.82,3.82,3.82,3.82,3.82,3.82,3.82,3.82,3.82,3.82,3.82,3.82,3.82,3.82,3.82,3.82,4.0306,4.0306,4.0306,4.0306,4.0407,4.0542,4.0671,4.0878,4.1016,4.1085,4.1109,4.1109,4.1109,4.1109,4.1109,4.1109,4.1109,4.1109,4.1109,4.1109,4.1109,4.1109,4.1109,4.1109,4.1109,4.1109,4.1109,4.1109,4.1109,4.11,4.1092,4.1092,4.1099,4.1092,4.1091,4.105,4.0992,4.0928,4.0859,4.0804,4.0802,4.0797,4.0797,4.0797,4.0797,4.0797,4.0797,4.0797,4.0778,4.0566,4.0411,4.0283,4.0148,4.0005,3.99,3.99,3.99,3.99,3.99,3.99,3.99,3.99,3.99,3.99,3.99,3.99,3.99,3.99,3.99,3.9862,3.9724,3.9682,3.9599,3.93,3.9235,3.9129,3.8821,3.8796,3.8696,3.8425,3.8385,3.8346,3.8217,3.82,3.82,3.82,3.82,3.82,3.82,3.82,3.82,3.82,3.82,3.82,3.82,3.82,3.82,3.82,3.82,3.82,3.82,3.82,3.82,3.82,3.82,3.82,3.82,3.82,3.82,3.82,3.82,3.82,3.82,3.82,3.82,3.82,4.0306,4.0306,4.0306,4.0306,4.0414,4.0548,4.0671,4.0853,4.101,4.1084,4.1109,4.1109,4.1109,4.1109,4.1109,4.1109,4.1109,4.1109,4.1109,4.1109,4.1109,4.1109,4.1109,4.1109,4.1109,4.1109,4.1109,4.1109,4.1109,4.11,4.1092,4.1092,4.1099,4.1092,4.1091,4.1073,4.1001,4.0958,4.0896,4.0831,4.0803,4.0793,4.079,4.08,4.0797,4.0797,4.0797,4.0797,4.0762,4.0611,4.045,4.0287,4.0162,4.0025,3.99,3.99,3.99,3.99,3.99,3.99,3.99,3.99,3.99,3.99,3.99,3.99,3.99,3.99,3.99,3.99,3.99,3.99,3.9839,3.9605,3.9569,3.9458,3.9136,3.9095,3.8985,3.8703,3.8638,3.8517,3.8299,3.8242,3.82,3.82,3.82,3.82,3.82,3.82,3.82,3.82,3.82,3.82,3.82,3.82,3.82,3.82,3.82,3.82,3.82,3.82,3.82,3.82,3.82,3.82,3.82,3.82,3.82,3.82,3.82,3.82,3.82,3.82,3.82,3.82,4.0306,4.0306,4.0306,4.0306,4.0402,4.0547,4.0685,4.0824,4.0964,4.1082,4.1109,4.1109,4.1109,4.1109,4.1109,4.1109,4.1109,4.1109,4.1109,4.1109,4.1109,4.1109,4.1109,4.1109,4.1109,4.1109,4.1109,4.1109,4.1109,4.11,4.1092,4.1092,4.1099,4.1092,4.1091,4.1086,4.108,4.1003,4.0984,4.095,4.0858,4.0796,4.079,4.0796,4.0797,4.0797,4.0797,4.0797,4.0794,4.0778,4.0541,4.0305,4.0283,4.0101,3.99,3.99,3.99,3.99,3.99,3.99,3.99,3.99,3.99,3.99,3.99,3.99,3.99,3.99,3.99,3.99,3.99,3.99,3.9889,3.9856,3.985,3.9753,3.9471,3.9433,3.9313,3.8973,3.8737,3.8585,3.8538,3.8338,3.82,3.82,3.82,3.82,3.82,3.82,3.82,3.82,3.82,3.82,3.82,3.82,3.82,3.82,3.82,3.82,3.82,3.82,3.82,3.82,3.82,3.82,3.82,3.82,3.82,3.82,3.82,3.82,3.82,3.82,3.82,3.82,4.0306,4.0306,4.0306,4.0306,4.0413,4.0556,4.0682,4.082,4.096,4.1082,4.1109,4.1109,4.1109,4.1109,4.1109,4.1109,4.1109,4.1109,4.1109,4.1109,4.1109,4.1109,4.1109,4.1109,4.1109,4.1109,4.1109,4.1109,4.1109,4.11,4.1092,4.1092,4.1099,4.1092,4.1091,4.1109,4.1106,4.103,4.0982,4.0932,4.0841,4.0807,4.0794,4.0806,4.0797,4.0797,4.0797,4.0797,4.0797,4.0797,4.0575,4.0305,4.0305,4.012,3.99,3.99,3.99,3.99,3.99,3.99,3.99,3.99,3.99,3.99,3.99,3.99,3.99,3.99,3.99,3.99,3.99,3.99,3.99,3.99,3.99,3.9867,3.9747,3.9711,3.9617,3.9319,3.9006,3.8814,3.8814,3.8585,3.8425,3.8425,3.8272,3.82,3.82,3.82,3.82,3.82,3.82,3.82,3.82,3.82,3.82,3.82,3.82,3.82,3.82,3.82,3.82,3.82,3.82,3.82,3.82,3.82,3.82,3.82,3.82,3.82,3.82,3.82,3.8472,3.8871]}]]